Wetterdaten: Dienstag, 08.01.2019
Datum Zeit Temp. A. Feuchte A. Luftdruck Regen Wind Richtung Richtung Sonnenschein ET UV Solar Taupunkt Windchill Windböen
08.01.2019 00:00 -1,1 °C 93 % 1027,3 hPa 0,0 mm 0,3 km/h (0 Bft) W-SW 243 ° 0 min 0,000 mm 0,0 UV-I 0 W/m² -2,1 °C -1,1 °C 1,6 km/h (1 Bft)
08.01.2019 00:01 -1,1 °C 93 % 1027,3 hPa 0,0 mm 1,8 km/h (1 Bft) W-SW 243 ° 0 min 0,000 mm 0,0 UV-I 0 W/m² -2,1 °C -1,1 °C 3,2 km/h (1 Bft)
08.01.2019 00:02 -1,2 °C 93 % 1027,3 hPa 0,0 mm 2,4 km/h (1 Bft) S-SW 212 ° 0 min 0,000 mm 0,0 UV-I 0 W/m² -2,2 °C -1,2 °C 6,4 km/h (2 Bft)
08.01.2019 00:03 -1,2 °C 93 % 1027,2 hPa 0,0 mm 2,4 km/h (1 Bft) S-SW 213 ° 0 min 0,000 mm 0,0 UV-I 0 W/m² -2,2 °C -1,2 °C 6,4 km/h (2 Bft)
08.01.2019 00:04 -1,2 °C 93 % 1027,2 hPa 0,0 mm 1,5 km/h (1 Bft) S-SW 213 ° 0 min 0,000 mm 0,0 UV-I 0 W/m² -2,2 °C -1,2 °C 3,2 km/h (1 Bft)
08.01.2019 00:05 -1,2 °C 93 % 1027,1 hPa 0,0 mm 4,7 km/h (1 Bft) S 188 ° 0 min 0,000 mm 0,0 UV-I 0 W/m² -2,2 °C -2,8 °C 9,7 km/h (2 Bft)
08.01.2019 00:06 -1,2 °C 93 % 1027,1 hPa 0,0 mm 4,1 km/h (1 Bft) S-SW 195 ° 0 min 0,000 mm 0,0 UV-I 0 W/m² -2,2 °C -1,2 °C 8,0 km/h (2 Bft)
08.01.2019 00:07 -1,2 °C 93 % 1027,0 hPa 0,0 mm 6,4 km/h (2 Bft) W 274 ° 0 min 0,000 mm 0,0 UV-I 0 W/m² -2,2 °C -3,6 °C 12,9 km/h (3 Bft)
08.01.2019 00:08 -1,2 °C 93 % 1027,0 hPa 0,0 mm 3,6 km/h (1 Bft) S-SW 213 ° 0 min 0,000 mm 0,0 UV-I 0 W/m² -2,2 °C -1,2 °C 6,4 km/h (2 Bft)
08.01.2019 00:09 -1,2 °C 93 % 1027,0 hPa 0,0 mm 2,7 km/h (1 Bft) SW 217 ° 0 min 0,000 mm 0,0 UV-I 0 W/m² -2,2 °C -1,2 °C 4,8 km/h (1 Bft)
08.01.2019 00:10 -1,3 °C 93 % 1026,9 hPa 0,0 mm 5,6 km/h (1 Bft) S-SW 202 ° 0 min 0,000 mm 0,0 UV-I 0 W/m² -2,3 °C -3,3 °C 12,9 km/h (3 Bft)
08.01.2019 00:11 -1,3 °C 93 % 1026,9 hPa 0,0 mm 4,2 km/h (1 Bft) SW 231 ° 0 min 0,000 mm 0,0 UV-I 0 W/m² -2,3 °C -1,3 °C 6,4 km/h (2 Bft)
08.01.2019 00:12 -1,3 °C 93 % 1026,9 hPa 0,0 mm 5,1 km/h (1 Bft) S-SW 212 ° 0 min 0,000 mm 0,0 UV-I 0 W/m² -2,3 °C -3,1 °C 6,4 km/h (2 Bft)
08.01.2019 00:13 -1,3 °C 93 % 1026,9 hPa 0,0 mm 0,4 km/h (0 Bft) S-SW 212 ° 0 min 0,000 mm 0,0 UV-I 0 W/m² -2,3 °C -1,3 °C 3,2 km/h (1 Bft)
08.01.2019 00:14 -1,3 °C 93 % 1026,8 hPa 0,0 mm 0,0 km/h (0 Bft) S-SW 212 ° 0 min 0,000 mm 0,0 UV-I 0 W/m² -2,3 °C -1,3 °C 0,0 km/h (0 Bft)
08.01.2019 00:15 -1,3 °C 93 % 1026,8 hPa 0,0 mm 0,0 km/h (0 Bft) S-SW 212 ° 0 min 0,000 mm 0,0 UV-I 0 W/m² -2,3 °C -1,3 °C 0,0 km/h (0 Bft)
08.01.2019 00:16 -1,3 °C 93 % 1026,8 hPa 0,0 mm 0,0 km/h (0 Bft) S-SW 212 ° 0 min 0,000 mm 0,0 UV-I 0 W/m² -2,3 °C -1,3 °C 0,0 km/h (0 Bft)
08.01.2019 00:17 -1,4 °C 93 % 1026,8 hPa 0,0 mm 0,0 km/h (0 Bft) S-SW 212 ° 0 min 0,000 mm 0,0 UV-I 0 W/m² -2,4 °C -1,4 °C 0,0 km/h (0 Bft)
08.01.2019 00:18 -1,3 °C 93 % 1026,8 hPa 0,0 mm 0,0 km/h (0 Bft) S-SW 212 ° 0 min 0,000 mm 0,0 UV-I 0 W/m² -2,3 °C -1,3 °C 0,0 km/h (0 Bft)
08.01.2019 00:19 -1,4 °C 93 % 1026,8 hPa 0,0 mm 0,0 km/h (0 Bft) S-SW 212 ° 0 min 0,000 mm 0,0 UV-I 0 W/m² -2,4 °C -1,4 °C 0,0 km/h (0 Bft)
08.01.2019 00:20 -1,4 °C 93 % 1026,8 hPa 0,0 mm 0,0 km/h (0 Bft) S-SW 212 ° 0 min 0,000 mm 0,0 UV-I 0 W/m² -2,4 °C -1,4 °C 0,0 km/h (0 Bft)
08.01.2019 00:21 -1,4 °C 93 % 1026,8 hPa 0,0 mm 1,3 km/h (1 Bft) S-SO 148 ° 0 min 0,000 mm 0,0 UV-I 0 W/m² -2,4 °C -1,4 °C 6,4 km/h (2 Bft)
08.01.2019 00:22 -1,4 °C 93 % 1026,7 hPa 0,0 mm 3,2 km/h (1 Bft) SW 229 ° 0 min 0,000 mm 0,0 UV-I 0 W/m² -2,4 °C -1,4 °C 8,0 km/h (2 Bft)
08.01.2019 00:23 -1,4 °C 93 % 1026,7 hPa 0,0 mm 3,8 km/h (1 Bft) W-SW 252 ° 0 min 0,000 mm 0,0 UV-I 0 W/m² -2,4 °C -1,4 °C 6,4 km/h (2 Bft)
08.01.2019 00:24 -1,4 °C 93 % 1026,6 hPa 0,0 mm 1,5 km/h (1 Bft) SW 231 ° 0 min 0,000 mm 0,0 UV-I 0 W/m² -2,4 °C -1,4 °C 4,8 km/h (1 Bft)
08.01.2019 00:25 -1,5 °C 93 % 1026,6 hPa 0,0 mm 2,4 km/h (1 Bft) S 175 ° 0 min 0,000 mm 0,0 UV-I 0 W/m² -2,5 °C -1,5 °C 6,4 km/h (2 Bft)
08.01.2019 00:26 -1,5 °C 93 % 1026,5 hPa 0,0 mm 1,4 km/h (1 Bft) S 190 ° 0 min 0,000 mm 0,0 UV-I 0 W/m² -2,5 °C -1,5 °C 6,4 km/h (2 Bft)
08.01.2019 00:27 -1,5 °C 93 % 1026,5 hPa 0,0 mm 4,0 km/h (1 Bft) SW 233 ° 0 min 0,000 mm 0,0 UV-I 0 W/m² -2,5 °C -1,5 °C 6,4 km/h (2 Bft)
08.01.2019 00:28 -1,5 °C 93 % 1026,5 hPa 0,0 mm 1,5 km/h (1 Bft) SW 228 ° 0 min 0,000 mm 0,0 UV-I 0 W/m² -2,5 °C -1,5 °C 3,2 km/h (1 Bft)
08.01.2019 00:29 -1,6 °C 93 % 1026,4 hPa 0,0 mm 0,5 km/h (0 Bft) SW 217 ° 0 min 0,000 mm 0,0 UV-I 0 W/m² -2,6 °C -1,6 °C 3,2 km/h (1 Bft)
08.01.2019 00:30 -1,6 °C 93 % 1026,4 hPa 0,0 mm 2,0 km/h (1 Bft) S-SO 167 ° 0 min 0,000 mm 0,0 UV-I 0 W/m² -2,6 °C -1,6 °C 4,8 km/h (1 Bft)
08.01.2019 00:31 -1,6 °C 93 % 1026,4 hPa 0,0 mm 0,5 km/h (0 Bft) S-SO 168 ° 0 min 0,000 mm 0,0 UV-I 0 W/m² -2,6 °C -1,6 °C 1,6 km/h (1 Bft)
08.01.2019 00:32 -1,6 °C 93 % 1026,3 hPa 0,0 mm 0,3 km/h (0 Bft) W 261 ° 0 min 0,000 mm 0,0 UV-I 0 W/m² -2,6 °C -1,6 °C 1,6 km/h (1 Bft)
08.01.2019 00:33 -1,6 °C 93 % 1026,4 hPa 0,0 mm 2,9 km/h (1 Bft) S-SW 209 ° 0 min 0,000 mm 0,0 UV-I 0 W/m² -2,6 °C -1,6 °C 8,0 km/h (2 Bft)
08.01.2019 00:34 -1,6 °C 93 % 1026,3 hPa 0,0 mm 2,8 km/h (1 Bft) S-SW 207 ° 0 min 0,000 mm 0,0 UV-I 0 W/m² -2,6 °C -1,6 °C 11,3 km/h (2 Bft)
08.01.2019 00:35 -1,6 °C 93 % 1026,3 hPa 0,0 mm 4,0 km/h (1 Bft) SW 225 ° 0 min 0,000 mm 0,0 UV-I 0 W/m² -2,6 °C -1,6 °C 11,3 km/h (2 Bft)
08.01.2019 00:36 -1,6 °C 93 % 1026,3 hPa 0,0 mm 0,4 km/h (0 Bft) SW 225 ° 0 min 0,000 mm 0,0 UV-I 0 W/m² -2,6 °C -1,6 °C 1,6 km/h (1 Bft)
08.01.2019 00:37 -1,6 °C 93 % 1026,4 hPa 0,0 mm 1,2 km/h (1 Bft) S 186 ° 0 min 0,000 mm 0,0 UV-I 0 W/m² -2,6 °C -1,6 °C 3,2 km/h (1 Bft)
08.01.2019 00:38 -1,6 °C 93 % 1026,4 hPa 0,0 mm 0,0 km/h (0 Bft) S 186 ° 0 min 0,000 mm 0,0 UV-I 0 W/m² -2,6 °C -1,6 °C 0,0 km/h (0 Bft)
08.01.2019 00:39 -1,6 °C 93 % 1026,4 hPa 0,0 mm 0,2 km/h (0 Bft) S 186 ° 0 min 0,000 mm 0,0 UV-I 0 W/m² -2,6 °C -1,6 °C 1,6 km/h (1 Bft)
08.01.2019 00:40 -1,6 °C 93 % 1026,5 hPa 0,0 mm 1,0 km/h (0 Bft) S 176 ° 0 min 0,000 mm 0,0 UV-I 0 W/m² -2,6 °C -1,6 °C 4,8 km/h (1 Bft)
08.01.2019 00:41 -1,6 °C 93 % 1026,5 hPa 0,0 mm 0,0 km/h (0 Bft) S 176 ° 0 min 0,000 mm 0,0 UV-I 0 W/m² -2,6 °C -1,6 °C 0,0 km/h (0 Bft)
08.01.2019 00:42 -1,6 °C 93 % 1026,5 hPa 0,0 mm 0,0 km/h (0 Bft) S 176 ° 0 min 0,000 mm 0,0 UV-I 0 W/m² -2,6 °C -1,6 °C 0,0 km/h (0 Bft)
08.01.2019 00:43 -1,7 °C 93 % 1026,5 hPa 0,0 mm 0,0 km/h (0 Bft) S 176 ° 0 min 0,000 mm 0,0 UV-I 0 W/m² -2,7 °C -1,7 °C 0,0 km/h (0 Bft)
08.01.2019 00:44 -1,7 °C 93 % 1026,5 hPa 0,0 mm 0,0 km/h (0 Bft) S 176 ° 0 min 0,000 mm 0,0 UV-I 0 W/m² -2,7 °C -1,7 °C 0,0 km/h (0 Bft)
08.01.2019 00:45 -1,6 °C 93 % 1026,5 hPa 0,0 mm 0,1 km/h (0 Bft) S 176 ° 0 min 0,000 mm 0,0 UV-I 0 W/m² -2,6 °C -1,6 °C 1,6 km/h (1 Bft)
08.01.2019 00:46 -1,6 °C 93 % 1026,5 hPa 0,0 mm 2,0 km/h (1 Bft) S-SW 194 ° 0 min 0,000 mm 0,0 UV-I 0 W/m² -2,6 °C -1,6 °C 4,8 km/h (1 Bft)
08.01.2019 00:47 -1,6 °C 93 % 1026,5 hPa 0,0 mm 1,9 km/h (1 Bft) S-SW 201 ° 0 min 0,000 mm 0,0 UV-I 0 W/m² -2,6 °C -1,6 °C 6,4 km/h (2 Bft)
08.01.2019 00:48 -1,7 °C 93 % 1026,4 hPa 0,0 mm 4,0 km/h (1 Bft) S-SW 195 ° 0 min 0,000 mm 0,0 UV-I 0 W/m² -2,7 °C -1,7 °C 8,0 km/h (2 Bft)
08.01.2019 00:49 -1,7 °C 93 % 1026,4 hPa 0,0 mm 4,2 km/h (1 Bft) SW 223 ° 0 min 0,000 mm 0,0 UV-I 0 W/m² -2,7 °C -1,7 °C 6,4 km/h (2 Bft)
08.01.2019 00:50 -1,7 °C 93 % 1026,4 hPa 0,0 mm 4,6 km/h (1 Bft) SW 217 ° 0 min 0,000 mm 0,0 UV-I 0 W/m² -2,7 °C -3,3 °C 6,4 km/h (2 Bft)
08.01.2019 00:51 -1,7 °C 93 % 1026,4 hPa 0,0 mm 7,5 km/h (2 Bft) S-SW 196 ° 0 min 0,000 mm 0,0 UV-I 0 W/m² -2,7 °C -4,6 °C 11,3 km/h (2 Bft)
08.01.2019 00:52 -1,6 °C 93 % 1026,3 hPa 0,0 mm 4,9 km/h (1 Bft) S-SW 200 ° 0 min 0,000 mm 0,0 UV-I 0 W/m² -2,6 °C -3,4 °C 11,3 km/h (2 Bft)
08.01.2019 00:53 -1,6 °C 93 % 1026,3 hPa 0,0 mm 7,4 km/h (2 Bft) W 270 ° 0 min 0,000 mm 0,0 UV-I 0 W/m² -2,6 °C -4,4 °C 9,7 km/h (2 Bft)
08.01.2019 00:54 -1,6 °C 93 % 1026,3 hPa 0,0 mm 0,8 km/h (0 Bft) S-SW 211 ° 0 min 0,000 mm 0,0 UV-I 0 W/m² -2,6 °C -1,6 °C 3,2 km/h (1 Bft)
08.01.2019 00:55 -1,6 °C 93 % 1026,3 hPa 0,0 mm 7,4 km/h (2 Bft) SW 223 ° 0 min 0,000 mm 0,0 UV-I 0 W/m² -2,6 °C -4,4 °C 14,5 km/h (3 Bft)
08.01.2019 00:56 -1,6 °C 93 % 1026,3 hPa 0,0 mm 3,6 km/h (1 Bft) S-SW 198 ° 0 min 0,000 mm 0,0 UV-I 0 W/m² -2,6 °C -1,6 °C 9,7 km/h (2 Bft)
08.01.2019 00:57 -1,6 °C 93 % 1026,3 hPa 0,0 mm 4,8 km/h (1 Bft) W 271 ° 0 min 0,000 mm 0,0 UV-I 0 W/m² -2,6 °C -3,3 °C 9,7 km/h (2 Bft)
08.01.2019 00:58 -1,6 °C 93 % 1026,2 hPa 0,0 mm 7,2 km/h (2 Bft) W-SW 248 ° 0 min 0,000 mm 0,0 UV-I 0 W/m² -2,6 °C -4,3 °C 12,9 km/h (3 Bft)
08.01.2019 00:59 -1,5 °C 93 % 1026,2 hPa 0,0 mm 8,6 km/h (2 Bft) W 266 ° 0 min 0,000 mm 0,0 UV-I 0 W/m² -2,5 °C -4,7 °C 12,9 km/h (3 Bft)
08.01.2019 01:00 -1,5 °C 93 % 1026,2 hPa 0,0 mm 3,8 km/h (1 Bft) W-SW 242 ° 0 min 0,000 mm 0,0 UV-I 0 W/m² -2,5 °C -1,5 °C 11,3 km/h (2 Bft)
08.01.2019 01:01 -1,5 °C 93 % 1026,2 hPa 0,0 mm 2,5 km/h (1 Bft) W-SW 253 ° 0 min 0,000 mm 0,0 UV-I 0 W/m² -2,5 °C -1,5 °C 4,8 km/h (1 Bft)
08.01.2019 01:02 -1,4 °C 93 % 1026,2 hPa 0,0 mm 2,4 km/h (1 Bft) SW 219 ° 0 min 0,000 mm 0,0 UV-I 0 W/m² -2,4 °C -1,4 °C 4,8 km/h (1 Bft)
08.01.2019 01:03 -1,4 °C 93 % 1026,2 hPa 0,0 mm 0,0 km/h (0 Bft) SW 219 ° 0 min 0,000 mm 0,0 UV-I 0 W/m² -2,4 °C -1,4 °C 0,0 km/h (0 Bft)
08.01.2019 01:04 -1,4 °C 93 % 1026,3 hPa 0,0 mm 0,3 km/h (0 Bft) W-NW 284 ° 0 min 0,000 mm 0,0 UV-I 0 W/m² -2,4 °C -1,4 °C 1,6 km/h (1 Bft)
08.01.2019 01:05 -1,4 °C 93 % 1026,3 hPa 0,0 mm 2,7 km/h (1 Bft) NW 318 ° 0 min 0,000 mm 0,0 UV-I 0 W/m² -2,4 °C -1,4 °C 3,2 km/h (1 Bft)
08.01.2019 01:06 -1,4 °C 93 % 1026,3 hPa 0,0 mm 0,9 km/h (0 Bft) SW 216 ° 0 min 0,000 mm 0,0 UV-I 0 W/m² -2,4 °C -1,4 °C 3,2 km/h (1 Bft)
08.01.2019 01:07 -1,4 °C 93 % 1026,3 hPa 0,0 mm 3,6 km/h (1 Bft) SW 231 ° 0 min 0,000 mm 0,0 UV-I 0 W/m² -2,4 °C -1,4 °C 4,8 km/h (1 Bft)
08.01.2019 01:08 -1,4 °C 93 % 1026,2 hPa 0,0 mm 4,0 km/h (1 Bft) S-SW 205 ° 0 min 0,000 mm 0,0 UV-I 0 W/m² -2,4 °C -1,4 °C 6,4 km/h (2 Bft)
08.01.2019 01:09 -1,4 °C 93 % 1026,2 hPa 0,0 mm 4,8 km/h (1 Bft) NW 310 ° 0 min 0,000 mm 0,0 UV-I 0 W/m² -2,4 °C -3,1 °C 12,9 km/h (3 Bft)
08.01.2019 01:10 -1,4 °C 93 % 1026,3 hPa 0,0 mm 5,4 km/h (1 Bft) W-SW 247 ° 0 min 0,000 mm 0,0 UV-I 0 W/m² -2,4 °C -3,4 °C 11,3 km/h (2 Bft)
08.01.2019 01:11 -1,4 °C 93 % 1026,3 hPa 0,0 mm 1,7 km/h (1 Bft) W 264 ° 0 min 0,000 mm 0,0 UV-I 0 W/m² -2,4 °C -1,4 °C 9,7 km/h (2 Bft)
08.01.2019 01:12 -1,4 °C 93 % 1026,2 hPa 0,0 mm 2,2 km/h (1 Bft) W 263 ° 0 min 0,000 mm 0,0 UV-I 0 W/m² -2,4 °C -1,4 °C 3,2 km/h (1 Bft)
08.01.2019 01:13 -1,4 °C 93 % 1026,2 hPa 0,0 mm 0,9 km/h (0 Bft) W 265 ° 0 min 0,000 mm 0,0 UV-I 0 W/m² -2,4 °C -1,4 °C 3,2 km/h (1 Bft)
08.01.2019 01:14 -1,4 °C 93 % 1026,2 hPa 0,0 mm 0,0 km/h (0 Bft) W 263 ° 0 min 0,000 mm 0,0 UV-I 0 W/m² -2,4 °C -1,4 °C 0,0 km/h (0 Bft)
08.01.2019 01:15 -1,4 °C 93 % 1026,2 hPa 0,0 mm 0,0 km/h (0 Bft) W 263 ° 0 min 0,000 mm 0,0 UV-I 0 W/m² -2,4 °C -1,4 °C 0,0 km/h (0 Bft)
08.01.2019 01:16 -1,4 °C 93 % 1026,0 hPa 0,0 mm 0,0 km/h (0 Bft) W 279 ° 0 min 0,000 mm 0,0 UV-I 0 W/m² -2,4 °C -1,4 °C 0,0 km/h (0 Bft)
08.01.2019 01:17 -1,4 °C 93 % 1026,1 hPa 0,0 mm 1,4 km/h (1 Bft) W 274 ° 0 min 0,000 mm 0,0 UV-I 0 W/m² -2,4 °C -1,4 °C 4,8 km/h (1 Bft)
08.01.2019 01:18 -1,4 °C 93 % 1026,1 hPa 0,0 mm 1,0 km/h (0 Bft) S 173 ° 0 min 0,000 mm 0,0 UV-I 0 W/m² -2,4 °C -1,4 °C 4,8 km/h (1 Bft)
08.01.2019 01:19 -1,4 °C 93 % 1026,1 hPa 0,0 mm 2,0 km/h (1 Bft) W 281 ° 0 min 0,000 mm 0,0 UV-I 0 W/m² -2,4 °C -1,4 °C 6,4 km/h (2 Bft)
08.01.2019 01:20 -1,3 °C 93 % 1026,1 hPa 0,0 mm 4,7 km/h (1 Bft) S 183 ° 0 min 0,000 mm 0,0 UV-I 0 W/m² -2,3 °C -2,9 °C 9,7 km/h (2 Bft)
08.01.2019 01:21 -1,3 °C 93 % 1026,1 hPa 0,0 mm 4,6 km/h (1 Bft) W-SW 258 ° 0 min 0,000 mm 0,0 UV-I 0 W/m² -2,3 °C -2,9 °C 9,7 km/h (2 Bft)
08.01.2019 01:22 -1,3 °C 93 % 1026,1 hPa 0,0 mm 6,9 km/h (2 Bft) SW 232 ° 0 min 0,000 mm 0,0 UV-I 0 W/m² -2,3 °C -3,9 °C 12,9 km/h (3 Bft)
08.01.2019 01:23 -1,3 °C 93 % 1025,9 hPa 0,0 mm 8,2 km/h (2 Bft) S 175 ° 0 min 0,000 mm 0,0 UV-I 0 W/m² -2,3 °C -4,3 °C 14,5 km/h (3 Bft)
08.01.2019 01:24 -1,3 °C 93 % 1025,9 hPa 0,0 mm 4,6 km/h (1 Bft) S 186 ° 0 min 0,000 mm 0,0 UV-I 0 W/m² -2,3 °C -2,9 °C 8,0 km/h (2 Bft)
08.01.2019 01:25 -1,3 °C 93 % 1025,9 hPa 0,0 mm 4,3 km/h (1 Bft) S-SW 209 ° 0 min 0,000 mm 0,0 UV-I 0 W/m² -2,3 °C -1,3 °C 6,4 km/h (2 Bft)
08.01.2019 01:26 -1,3 °C 93 % 1025,9 hPa 0,0 mm 6,2 km/h (2 Bft) S 179 ° 0 min 0,000 mm 0,0 UV-I 0 W/m² -2,3 °C -3,6 °C 9,7 km/h (2 Bft)
08.01.2019 01:27 -1,3 °C 93 % 1025,8 hPa 0,0 mm 5,1 km/h (1 Bft) SW 214 ° 0 min 0,000 mm 0,0 UV-I 0 W/m² -2,3 °C -3,1 °C 11,3 km/h (2 Bft)
08.01.2019 01:28 -1,3 °C 93 % 1025,8 hPa 0,0 mm 2,3 km/h (1 Bft) S-SW 194 ° 0 min 0,000 mm 0,0 UV-I 0 W/m² -2,3 °C -1,3 °C 8,0 km/h (2 Bft)
08.01.2019 01:29 -1,3 °C 93 % 1025,7 hPa 0,0 mm 10,5 km/h (2 Bft) S-SW 195 ° 0 min 0,000 mm 0,0 UV-I 0 W/m² -2,3 °C -5,0 °C 12,9 km/h (3 Bft)
08.01.2019 01:30 -1,3 °C 93 % 1025,7 hPa 0,0 mm 5,4 km/h (1 Bft) S-SW 202 ° 0 min 0,000 mm 0,0 UV-I 0 W/m² -2,3 °C -3,3 °C 8,0 km/h (2 Bft)
08.01.2019 01:31 -1,3 °C 93 % 1025,7 hPa 0,0 mm 5,4 km/h (1 Bft) S-SW 197 ° 0 min 0,000 mm 0,0 UV-I 0 W/m² -2,3 °C -3,3 °C 8,0 km/h (2 Bft)
08.01.2019 01:32 -1,3 °C 93 % 1025,7 hPa 0,0 mm 3,8 km/h (1 Bft) SW 229 ° 0 min 0,000 mm 0,0 UV-I 0 W/m² -2,3 °C -1,3 °C 6,4 km/h (2 Bft)
08.01.2019 01:33 -1,3 °C 93 % 1025,7 hPa 0,0 mm 6,6 km/h (2 Bft) S-SW 207 ° 0 min 0,000 mm 0,0 UV-I 0 W/m² -2,3 °C -3,8 °C 8,0 km/h (2 Bft)
08.01.2019 01:34 -1,3 °C 93 % 1025,7 hPa 0,0 mm 6,5 km/h (2 Bft) SW 220 ° 0 min 0,000 mm 0,0 UV-I 0 W/m² -2,3 °C -3,7 °C 9,7 km/h (2 Bft)
08.01.2019 01:35 -1,2 °C 93 % 1025,7 hPa 0,0 mm 4,9 km/h (1 Bft) SW 234 ° 0 min 0,000 mm 0,0 UV-I 0 W/m² -2,2 °C -2,9 °C 8,0 km/h (2 Bft)
08.01.2019 01:36 -1,2 °C 93 % 1025,7 hPa 0,0 mm 4,5 km/h (1 Bft) W 261 ° 0 min 0,000 mm 0,0 UV-I 0 W/m² -2,2 °C -1,2 °C 6,4 km/h (2 Bft)
08.01.2019 01:37 -1,3 °C 93 % 1025,7 hPa 0,0 mm 3,1 km/h (1 Bft) S-SW 200 ° 0 min 0,000 mm 0,0 UV-I 0 W/m² -2,3 °C -1,3 °C 6,4 km/h (2 Bft)
08.01.2019 01:38 -1,3 °C 93 % 1025,6 hPa 0,0 mm 4,8 km/h (1 Bft) S-SW 211 ° 0 min 0,000 mm 0,0 UV-I 0 W/m² -2,3 °C -3,0 °C 8,0 km/h (2 Bft)
08.01.2019 01:39 -1,2 °C 93 % 1025,6 hPa 0,0 mm 4,0 km/h (1 Bft) SW 224 ° 0 min 0,000 mm 0,0 UV-I 0 W/m² -2,2 °C -1,2 °C 6,4 km/h (2 Bft)
08.01.2019 01:40 -1,2 °C 93 % 1025,6 hPa 0,0 mm 4,0 km/h (1 Bft) SW 227 ° 0 min 0,000 mm 0,0 UV-I 0 W/m² -2,2 °C -1,2 °C 8,0 km/h (2 Bft)
08.01.2019 01:41 -1,2 °C 93 % 1025,6 hPa 0,0 mm 5,3 km/h (1 Bft) SW 217 ° 0 min 0,000 mm 0,0 UV-I 0 W/m² -2,2 °C -3,1 °C 9,7 km/h (2 Bft)
08.01.2019 01:42 -1,3 °C 93 % 1025,5 hPa 0,0 mm 6,0 km/h (2 Bft) W 279 ° 0 min 0,000 mm 0,0 UV-I 0 W/m² -2,3 °C -3,5 °C 11,3 km/h (2 Bft)
08.01.2019 01:43 -1,2 °C 93 % 1025,5 hPa 0,0 mm 3,7 km/h (1 Bft) W 260 ° 0 min 0,000 mm 0,0 UV-I 0 W/m² -2,2 °C -1,2 °C 6,4 km/h (2 Bft)
08.01.2019 01:44 -1,2 °C 93 % 1025,4 hPa 0,0 mm 2,3 km/h (1 Bft) S-SW 201 ° 0 min 0,000 mm 0,0 UV-I 0 W/m² -2,2 °C -1,2 °C 3,2 km/h (1 Bft)
08.01.2019 01:45 -1,2 °C 93 % 1025,4 hPa 0,0 mm 2,7 km/h (1 Bft) W 269 ° 0 min 0,000 mm 0,0 UV-I 0 W/m² -2,2 °C -1,2 °C 9,7 km/h (2 Bft)
08.01.2019 01:46 -1,2 °C 93 % 1025,3 hPa 0,0 mm 2,7 km/h (1 Bft) SW 219 ° 0 min 0,000 mm 0,0 UV-I 0 W/m² -2,2 °C -1,2 °C 4,8 km/h (1 Bft)
08.01.2019 01:47 -1,2 °C 93 % 1025,2 hPa 0,0 mm 2,0 km/h (1 Bft) S-SW 208 ° 0 min 0,000 mm 0,0 UV-I 0 W/m² -2,2 °C -1,2 °C 4,8 km/h (1 Bft)
08.01.2019 01:48 -1,2 °C 93 % 1025,2 hPa 0,0 mm 3,3 km/h (1 Bft) S 183 ° 0 min 0,000 mm 0,0 UV-I 0 W/m² -2,2 °C -1,2 °C 4,8 km/h (1 Bft)
08.01.2019 01:49 -1,2 °C 93 % 1025,2 hPa 0,0 mm 5,0 km/h (1 Bft) S-SW 200 ° 0 min 0,000 mm 0,0 UV-I 0 W/m² -2,2 °C -3,0 °C 8,0 km/h (2 Bft)
08.01.2019 01:50 -1,2 °C 93 % 1025,2 hPa 0,0 mm 6,4 km/h (2 Bft) S-SW 207 ° 0 min 0,000 mm 0,0 UV-I 0 W/m² -2,2 °C -3,6 °C 11,3 km/h (2 Bft)
08.01.2019 01:51 -1,2 °C 93 % 1025,2 hPa 0,0 mm 5,8 km/h (2 Bft) S-SW 202 ° 0 min 0,000 mm 0,0 UV-I 0 W/m² -2,2 °C -3,3 °C 8,0 km/h (2 Bft)
08.01.2019 01:52 -1,2 °C 93 % 1025,1 hPa 0,0 mm 5,6 km/h (1 Bft) SW 215 ° 0 min 0,000 mm 0,0 UV-I 0 W/m² -2,2 °C -3,2 °C 9,7 km/h (2 Bft)
08.01.2019 01:53 -1,2 °C 93 % 1025,1 hPa 0,0 mm 3,2 km/h (1 Bft) W-SW 241 ° 0 min 0,000 mm 0,0 UV-I 0 W/m² -2,2 °C -1,2 °C 6,4 km/h (2 Bft)
08.01.2019 01:54 -1,2 °C 93 % 1025,1 hPa 0,0 mm 3,5 km/h (1 Bft) S 178 ° 0 min 0,000 mm 0,0 UV-I 0 W/m² -2,2 °C -1,2 °C 6,4 km/h (2 Bft)
08.01.2019 01:55 -1,2 °C 93 % 1025,1 hPa 0,0 mm 1,6 km/h (1 Bft) W 273 ° 0 min 0,000 mm 0,0 UV-I 0 W/m² -2,2 °C -1,2 °C 4,8 km/h (1 Bft)
08.01.2019 01:56 -1,2 °C 93 % 1025,0 hPa 0,0 mm 4,7 km/h (1 Bft) W-SW 240 ° 0 min 0,000 mm 0,0 UV-I 0 W/m² -2,2 °C -2,8 °C 11,3 km/h (2 Bft)
08.01.2019 01:57 -1,2 °C 93 % 1025,0 hPa 0,0 mm 4,6 km/h (1 Bft) W-SW 257 ° 0 min 0,000 mm 0,0 UV-I 0 W/m² -2,2 °C -2,7 °C 6,4 km/h (2 Bft)
08.01.2019 01:58 -1,2 °C 93 % 1025,1 hPa 0,0 mm 2,9 km/h (1 Bft) W 276 ° 0 min 0,000 mm 0,0 UV-I 0 W/m² -2,2 °C -1,2 °C 4,8 km/h (1 Bft)
08.01.2019 01:59 -1,2 °C 93 % 1025,1 hPa 0,0 mm 0,0 km/h (0 Bft) W 276 ° 0 min 0,000 mm 0,0 UV-I 0 W/m² -2,2 °C -1,2 °C 0,0 km/h (0 Bft)
08.01.2019 02:00 -1,2 °C 93 % 1025,1 hPa 0,0 mm 0,0 km/h (0 Bft) W 276 ° 0 min 0,000 mm 0,0 UV-I 0 W/m² -2,2 °C -1,2 °C 0,0 km/h (0 Bft)
08.01.2019 02:01 -1,2 °C 93 % 1025,1 hPa 0,0 mm 0,9 km/h (0 Bft) W 276 ° 0 min 0,000 mm 0,0 UV-I 0 W/m² -2,2 °C -1,2 °C 1,6 km/h (1 Bft)
08.01.2019 02:02 -1,2 °C 93 % 1025,1 hPa 0,0 mm 0,0 km/h (0 Bft) W 276 ° 0 min 0,000 mm 0,0 UV-I 0 W/m² -2,2 °C -1,2 °C 0,0 km/h (0 Bft)
08.01.2019 02:03 -1,2 °C 93 % 1025,1 hPa 0,0 mm 0,0 km/h (0 Bft) W 276 ° 0 min 0,000 mm 0,0 UV-I 0 W/m² -2,2 °C -1,2 °C 0,0 km/h (0 Bft)
08.01.2019 02:04 -1,2 °C 93 % 1025,1 hPa 0,0 mm 0,0 km/h (0 Bft) W 276 ° 0 min 0,000 mm 0,0 UV-I 0 W/m² -2,2 °C -1,2 °C 0,0 km/h (0 Bft)
08.01.2019 02:05 -1,2 °C 93 % 1025,1 hPa 0,0 mm 0,0 km/h (0 Bft) W 276 ° 0 min 0,000 mm 0,0 UV-I 0 W/m² -2,2 °C -1,2 °C 0,0 km/h (0 Bft)
08.01.2019 02:06 -1,2 °C 93 % 1025,0 hPa 0,0 mm 0,0 km/h (0 Bft) W 276 ° 0 min 0,000 mm 0,0 UV-I 0 W/m² -2,2 °C -1,2 °C 0,0 km/h (0 Bft)
08.01.2019 02:07 -1,2 °C 93 % 1024,9 hPa 0,0 mm 0,0 km/h (0 Bft) W 276 ° 0 min 0,000 mm 0,0 UV-I 0 W/m² -2,2 °C -1,2 °C 0,0 km/h (0 Bft)
08.01.2019 02:08 -1,2 °C 93 % 1024,9 hPa 0,0 mm 0,4 km/h (0 Bft) W 276 ° 0 min 0,000 mm 0,0 UV-I 0 W/m² -2,2 °C -1,2 °C 1,6 km/h (1 Bft)
08.01.2019 02:09 -1,2 °C 93 % 1024,9 hPa 0,0 mm 0,0 km/h (0 Bft) W 276 ° 0 min 0,000 mm 0,0 UV-I 0 W/m² -2,2 °C -1,2 °C 0,0 km/h (0 Bft)
08.01.2019 02:10 -1,2 °C 93 % 1024,8 hPa 0,0 mm 0,0 km/h (0 Bft) W 276 ° 0 min 0,000 mm 0,0 UV-I 0 W/m² -2,2 °C -1,2 °C 0,0 km/h (0 Bft)
08.01.2019 02:11 -1,2 °C 93 % 1024,8 hPa 0,0 mm 0,5 km/h (0 Bft) W 276 ° 0 min 0,000 mm 0,0 UV-I 0 W/m² -2,2 °C -1,2 °C 3,2 km/h (1 Bft)
08.01.2019 02:12 -1,1 °C 93 % 1024,8 hPa 0,0 mm 0,4 km/h (0 Bft) W 276 ° 0 min 0,000 mm 0,0 UV-I 0 W/m² -2,1 °C -1,1 °C 1,6 km/h (1 Bft)
08.01.2019 02:13 -1,2 °C 93 % 1024,8 hPa 0,0 mm 0,0 km/h (0 Bft) W 276 ° 0 min 0,000 mm 0,0 UV-I 0 W/m² -2,2 °C -1,2 °C 0,0 km/h (0 Bft)
08.01.2019 02:14 -1,2 °C 93 % 1024,8 hPa 0,0 mm 0,0 km/h (0 Bft) W 276 ° 0 min 0,000 mm 0,0 UV-I 0 W/m² -2,2 °C -1,2 °C 0,0 km/h (0 Bft)
08.01.2019 02:15 -1,1 °C 93 % 1024,8 hPa 0,0 mm 0,0 km/h (0 Bft) W 276 ° 0 min 0,000 mm 0,0 UV-I 0 W/m² -2,1 °C -1,1 °C 0,0 km/h (0 Bft)
08.01.2019 02:16 -1,2 °C 93 % 1024,8 hPa 0,0 mm 0,0 km/h (0 Bft) W 276 ° 0 min 0,000 mm 0,0 UV-I 0 W/m² -2,2 °C -1,2 °C 0,0 km/h (0 Bft)
08.01.2019 02:17 -1,2 °C 93 % 1024,8 hPa 0,0 mm 0,0 km/h (0 Bft) W 276 ° 0 min 0,000 mm 0,0 UV-I 0 W/m² -2,2 °C -1,2 °C 0,0 km/h (0 Bft)
08.01.2019 02:18 -1,2 °C 93 % 1024,8 hPa 0,0 mm 0,0 km/h (0 Bft) W 276 ° 0 min 0,000 mm 0,0 UV-I 0 W/m² -2,2 °C -1,2 °C 0,0 km/h (0 Bft)
08.01.2019 02:19 -1,2 °C 93 % 1024,8 hPa 0,0 mm 0,0 km/h (0 Bft) W 276 ° 0 min 0,000 mm 0,0 UV-I 0 W/m² -2,2 °C -1,2 °C 0,0 km/h (0 Bft)
08.01.2019 02:20 -1,2 °C 93 % 1024,8 hPa 0,0 mm 0,0 km/h (0 Bft) W 276 ° 0 min 0,000 mm 0,0 UV-I 0 W/m² -2,2 °C -1,2 °C 0,0 km/h (0 Bft)
08.01.2019 02:21 -1,2 °C 93 % 1024,8 hPa 0,0 mm 0,0 km/h (0 Bft) W 276 ° 0 min 0,000 mm 0,0 UV-I 0 W/m² -2,2 °C -1,2 °C 0,0 km/h (0 Bft)
08.01.2019 02:22 -1,2 °C 93 % 1024,8 hPa 0,0 mm 0,0 km/h (0 Bft) W 276 ° 0 min 0,000 mm 0,0 UV-I 0 W/m² -2,2 °C -1,2 °C 0,0 km/h (0 Bft)
08.01.2019 02:23 -1,2 °C 93 % 1024,7 hPa 0,0 mm 0,4 km/h (0 Bft) S-SO 152 ° 0 min 0,000 mm 0,0 UV-I 0 W/m² -2,2 °C -1,2 °C 3,2 km/h (1 Bft)
08.01.2019 02:24 -1,2 °C 93 % 1024,7 hPa 0,0 mm 0,3 km/h (0 Bft) S-SO 153 ° 0 min 0,000 mm 0,0 UV-I 0 W/m² -2,2 °C -1,2 °C 1,6 km/h (1 Bft)
08.01.2019 02:25 -1,2 °C 93 % 1024,7 hPa 0,0 mm 0,0 km/h (0 Bft) S-SO 153 ° 0 min 0,000 mm 0,0 UV-I 0 W/m² -2,2 °C -1,2 °C 0,0 km/h (0 Bft)
08.01.2019 02:26 -1,2 °C 93 % 1024,7 hPa 0,0 mm 0,0 km/h (0 Bft) S-SO 165 ° 0 min 0,000 mm 0,0 UV-I 0 W/m² -2,2 °C -1,2 °C 0,0 km/h (0 Bft)
08.01.2019 02:27 -1,2 °C 93 % 1024,7 hPa 0,0 mm 0,0 km/h (0 Bft) S-SO 165 ° 0 min 0,000 mm 0,0 UV-I 0 W/m² -2,2 °C -1,2 °C 0,0 km/h (0 Bft)
08.01.2019 02:28 -1,2 °C 93 % 1024,7 hPa 0,0 mm 0,7 km/h (0 Bft) S-SO 168 ° 0 min 0,000 mm 0,0 UV-I 0 W/m² -2,2 °C -1,2 °C 3,2 km/h (1 Bft)
08.01.2019 02:29 -1,2 °C 93 % 1024,6 hPa 0,0 mm 3,5 km/h (1 Bft) S-SW 200 ° 0 min 0,000 mm 0,0 UV-I 0 W/m² -2,2 °C -1,2 °C 6,4 km/h (2 Bft)
08.01.2019 02:30 -1,2 °C 93 % 1024,7 hPa 0,0 mm 3,8 km/h (1 Bft) S-SW 205 ° 0 min 0,000 mm 0,0 UV-I 0 W/m² -2,2 °C -1,2 °C 6,4 km/h (2 Bft)
08.01.2019 02:31 -1,2 °C 93 % 1024,6 hPa 0,0 mm 1,4 km/h (1 Bft) S-SW 201 ° 0 min 0,000 mm 0,0 UV-I 0 W/m² -2,2 °C -1,2 °C 3,2 km/h (1 Bft)
08.01.2019 02:32 -1,2 °C 93 % 1024,6 hPa 0,0 mm 4,1 km/h (1 Bft) S-SW 205 ° 0 min 0,000 mm 0,0 UV-I 0 W/m² -2,2 °C -1,2 °C 9,7 km/h (2 Bft)
08.01.2019 02:33 -1,1 °C 93 % 1024,6 hPa 0,0 mm 4,0 km/h (1 Bft) S-SW 195 ° 0 min 0,000 mm 0,0 UV-I 0 W/m² -2,1 °C -1,1 °C 8,0 km/h (2 Bft)
08.01.2019 02:34 -1,2 °C 93 % 1024,6 hPa 0,0 mm 3,7 km/h (1 Bft) SW 234 ° 0 min 0,000 mm 0,0 UV-I 0 W/m² -2,2 °C -1,2 °C 6,4 km/h (2 Bft)
08.01.2019 02:35 -1,1 °C 93 % 1024,6 hPa 0,0 mm 3,8 km/h (1 Bft) S-SW 200 ° 0 min 0,000 mm 0,0 UV-I 0 W/m² -2,1 °C -1,1 °C 6,4 km/h (2 Bft)
08.01.2019 02:36 -1,1 °C 93 % 1024,6 hPa 0,0 mm 5,6 km/h (1 Bft) S-SW 197 ° 0 min 0,000 mm 0,0 UV-I 0 W/m² -2,1 °C -3,1 °C 6,4 km/h (2 Bft)
08.01.2019 02:37 -1,2 °C 93 % 1024,6 hPa 0,0 mm 3,7 km/h (1 Bft) S-SW 203 ° 0 min 0,000 mm 0,0 UV-I 0 W/m² -2,2 °C -1,2 °C 4,8 km/h (1 Bft)
08.01.2019 02:38 -1,1 °C 93 % 1024,5 hPa 0,0 mm 3,5 km/h (1 Bft) S-SW 212 ° 0 min 0,000 mm 0,0 UV-I 0 W/m² -2,1 °C -1,1 °C 4,8 km/h (1 Bft)
08.01.2019 02:39 -1,1 °C 93 % 1024,5 hPa 0,0 mm 0,9 km/h (0 Bft) S-SW 206 ° 0 min 0,000 mm 0,0 UV-I 0 W/m² -2,1 °C -1,1 °C 3,2 km/h (1 Bft)
08.01.2019 02:40 -1,1 °C 93 % 1024,5 hPa 0,0 mm 1,3 km/h (1 Bft) S-SW 206 ° 0 min 0,000 mm 0,0 UV-I 0 W/m² -2,1 °C -1,1 °C 4,8 km/h (1 Bft)
08.01.2019 02:41 -1,1 °C 93 % 1024,5 hPa 0,0 mm 0,0 km/h (0 Bft) S-SW 206 ° 0 min 0,000 mm 0,0 UV-I 0 W/m² -2,1 °C -1,1 °C 0,0 km/h (0 Bft)
08.01.2019 02:42 -1,1 °C 93 % 1024,5 hPa 0,0 mm 0,0 km/h (0 Bft) S-SW 206 ° 0 min 0,000 mm 0,0 UV-I 0 W/m² -2,1 °C -1,1 °C 0,0 km/h (0 Bft)
08.01.2019 02:43 -1,1 °C 93 % 1024,5 hPa 0,0 mm 1,4 km/h (1 Bft) S-SW 204 ° 0 min 0,000 mm 0,0 UV-I 0 W/m² -2,1 °C -1,1 °C 6,4 km/h (2 Bft)
08.01.2019 02:44 -1,1 °C 93 % 1024,5 hPa 0,0 mm 0,0 km/h (0 Bft) S-SW 204 ° 0 min 0,000 mm 0,0 UV-I 0 W/m² -2,1 °C -1,1 °C 0,0 km/h (0 Bft)
08.01.2019 02:45 -1,1 °C 93 % 1024,5 hPa 0,0 mm 2,7 km/h (1 Bft) W 265 ° 0 min 0,000 mm 0,0 UV-I 0 W/m² -2,1 °C -1,1 °C 4,8 km/h (1 Bft)
08.01.2019 02:46 -1,1 °C 93 % 1024,5 hPa 0,0 mm 0,0 km/h (0 Bft) W 265 ° 0 min 0,000 mm 0,0 UV-I 0 W/m² -2,1 °C -1,1 °C 0,0 km/h (0 Bft)
08.01.2019 02:47 -1,1 °C 93 % 1024,5 hPa 0,0 mm 0,0 km/h (0 Bft) W 265 ° 0 min 0,000 mm 0,0 UV-I 0 W/m² -2,1 °C -1,1 °C 0,0 km/h (0 Bft)
08.01.2019 02:48 -1,1 °C 93 % 1024,5 hPa 0,0 mm 0,0 km/h (0 Bft) W 265 ° 0 min 0,000 mm 0,0 UV-I 0 W/m² -2,1 °C -1,1 °C 0,0 km/h (0 Bft)
08.01.2019 02:49 -1,1 °C 93 % 1024,5 hPa 0,0 mm 0,2 km/h (0 Bft) W 265 ° 0 min 0,000 mm 0,0 UV-I 0 W/m² -2,1 °C -1,1 °C 1,6 km/h (1 Bft)
08.01.2019 02:50 -1,1 °C 93 % 1024,5 hPa 0,0 mm 0,0 km/h (0 Bft) W 265 ° 0 min 0,000 mm 0,0 UV-I 0 W/m² -2,1 °C -1,1 °C 0,0 km/h (0 Bft)
08.01.2019 02:51 -1,1 °C 93 % 1024,5 hPa 0,0 mm 0,0 km/h (0 Bft) W 266 ° 0 min 0,000 mm 0,0 UV-I 0 W/m² -2,1 °C -1,1 °C 0,0 km/h (0 Bft)
08.01.2019 02:52 -1,1 °C 93 % 1024,4 hPa 0,0 mm 0,0 km/h (0 Bft) W 266 ° 0 min 0,000 mm 0,0 UV-I 0 W/m² -2,1 °C -1,1 °C 0,0 km/h (0 Bft)
08.01.2019 02:53 -1,1 °C 93 % 1024,4 hPa 0,0 mm 4,4 km/h (1 Bft) W 281 ° 0 min 0,000 mm 0,0 UV-I 0 W/m² -2,1 °C -1,1 °C 9,7 km/h (2 Bft)
08.01.2019 02:54 -1,1 °C 93 % 1024,4 hPa 0,0 mm 3,9 km/h (1 Bft) W 260 ° 0 min 0,000 mm 0,0 UV-I 0 W/m² -2,1 °C -1,1 °C 6,4 km/h (2 Bft)
08.01.2019 02:55 -1,1 °C 93 % 1024,4 hPa 0,0 mm 4,8 km/h (1 Bft) W 270 ° 0 min 0,000 mm 0,0 UV-I 0 W/m² -2,1 °C -2,7 °C 9,7 km/h (2 Bft)
08.01.2019 02:56 -1,1 °C 93 % 1024,4 hPa 0,0 mm 4,2 km/h (1 Bft) W 267 ° 0 min 0,000 mm 0,0 UV-I 0 W/m² -2,1 °C -1,1 °C 6,4 km/h (2 Bft)
08.01.2019 02:57 -1,1 °C 93 % 1024,3 hPa 0,0 mm 1,8 km/h (1 Bft) W 266 ° 0 min 0,000 mm 0,0 UV-I 0 W/m² -2,1 °C -1,1 °C 4,8 km/h (1 Bft)
08.01.2019 02:58 -1,1 °C 93 % 1024,4 hPa 0,0 mm 3,8 km/h (1 Bft) W 270 ° 0 min 0,000 mm 0,0 UV-I 0 W/m² -2,1 °C -1,1 °C 6,4 km/h (2 Bft)
08.01.2019 02:59 -1,1 °C 93 % 1024,4 hPa 0,0 mm 4,3 km/h (1 Bft) W-NW 286 ° 0 min 0,000 mm 0,0 UV-I 0 W/m² -2,1 °C -1,1 °C 6,4 km/h (2 Bft)
08.01.2019 03:00 -1,1 °C 93 % 1024,4 hPa 0,0 mm 4,1 km/h (1 Bft) W 278 ° 0 min 0,000 mm 0,0 UV-I 0 W/m² -2,1 °C -1,1 °C 6,4 km/h (2 Bft)
08.01.2019 03:01 -1,1 °C 93 % 1024,4 hPa 0,0 mm 5,7 km/h (1 Bft) W 272 ° 0 min 0,000 mm 0,0 UV-I 0 W/m² -2,1 °C -3,2 °C 11,3 km/h (2 Bft)
08.01.2019 03:02 -1,1 °C 93 % 1024,4 hPa 0,0 mm 9,2 km/h (2 Bft) W-NW 287 ° 0 min 0,000 mm 0,0 UV-I 0 W/m² -2,1 °C -4,4 °C 11,3 km/h (2 Bft)
08.01.2019 03:03 -1,1 °C 93 % 1024,4 hPa 0,0 mm 9,1 km/h (2 Bft) W 278 ° 0 min 0,000 mm 0,0 UV-I 0 W/m² -2,1 °C -4,4 °C 16,1 km/h (3 Bft)
08.01.2019 03:04 -1,1 °C 93 % 1024,5 hPa 0,0 mm 8,5 km/h (2 Bft) W-SW 250 ° 0 min 0,000 mm 0,0 UV-I 0 W/m² -2,1 °C -4,2 °C 12,9 km/h (3 Bft)
08.01.2019 03:05 -1,1 °C 93 % 1024,4 hPa 0,0 mm 8,3 km/h (2 Bft) W 265 ° 0 min 0,000 mm 0,0 UV-I 0 W/m² -2,1 °C -4,1 °C 16,1 km/h (3 Bft)
08.01.2019 03:06 -1,1 °C 93 % 1024,4 hPa 0,0 mm 8,6 km/h (2 Bft) W 270 ° 0 min 0,000 mm 0,0 UV-I 0 W/m² -2,1 °C -4,2 °C 12,9 km/h (3 Bft)
08.01.2019 03:07 -1,1 °C 93 % 1024,4 hPa 0,0 mm 12,8 km/h (3 Bft) W-NW 283 ° 0 min 0,000 mm 0,0 UV-I 0 W/m² -2,1 °C -5,3 °C 19,3 km/h (3 Bft)
08.01.2019 03:08 -1,1 °C 93 % 1024,3 hPa 0,0 mm 9,2 km/h (2 Bft) W-SW 248 ° 0 min 0,000 mm 0,0 UV-I 0 W/m² -2,1 °C -4,4 °C 11,3 km/h (2 Bft)
08.01.2019 03:09 -1,1 °C 93 % 1024,3 hPa 0,0 mm 7,7 km/h (2 Bft) W 265 ° 0 min 0,000 mm 0,0 UV-I 0 W/m² -2,1 °C -3,9 °C 14,5 km/h (3 Bft)
08.01.2019 03:10 -1,1 °C 93 % 1024,3 hPa 0,0 mm 5,3 km/h (1 Bft) W-SW 254 ° 0 min 0,000 mm 0,0 UV-I 0 W/m² -2,1 °C -3,0 °C 6,4 km/h (2 Bft)
08.01.2019 03:11 -1,1 °C 93 % 1024,3 hPa 0,0 mm 4,5 km/h (1 Bft) W-SW 251 ° 0 min 0,000 mm 0,0 UV-I 0 W/m² -2,1 °C -1,1 °C 8,0 km/h (2 Bft)
08.01.2019 03:12 -1,1 °C 93 % 1024,3 hPa 0,0 mm 5,7 km/h (1 Bft) W-NW 292 ° 0 min 0,000 mm 0,0 UV-I 0 W/m² -2,1 °C -3,2 °C 9,7 km/h (2 Bft)
08.01.2019 03:13 -1,1 °C 93 % 1024,2 hPa 0,0 mm 6,8 km/h (2 Bft) W 278 ° 0 min 0,000 mm 0,0 UV-I 0 W/m² -2,1 °C -3,6 °C 9,7 km/h (2 Bft)
08.01.2019 03:14 -1,1 °C 93 % 1024,3 hPa 0,0 mm 4,7 km/h (1 Bft) W 266 ° 0 min 0,000 mm 0,0 UV-I 0 W/m² -2,1 °C -2,7 °C 6,4 km/h (2 Bft)
08.01.2019 03:15 -1,1 °C 93 % 1024,3 hPa 0,0 mm 5,1 km/h (1 Bft) NW 311 ° 0 min 0,000 mm 0,0 UV-I 0 W/m² -2,1 °C -2,9 °C 9,7 km/h (2 Bft)
08.01.2019 03:16 -1,2 °C 93 % 1024,2 hPa 0,0 mm 6,3 km/h (2 Bft) W 274 ° 0 min 0,000 mm 0,0 UV-I 0 W/m² -2,2 °C -3,5 °C 9,7 km/h (2 Bft)
08.01.2019 03:17 -1,2 °C 93 % 1024,2 hPa 0,0 mm 7,5 km/h (2 Bft) W 259 ° 0 min 0,000 mm 0,0 UV-I 0 W/m² -2,2 °C -4,0 °C 11,3 km/h (2 Bft)
08.01.2019 03:18 -1,2 °C 93 % 1024,2 hPa 0,0 mm 5,5 km/h (1 Bft) W 266 ° 0 min 0,000 mm 0,0 UV-I 0 W/m² -2,2 °C -3,2 °C 8,0 km/h (2 Bft)
08.01.2019 03:19 -1,2 °C 93 % 1024,2 hPa 0,0 mm 6,2 km/h (2 Bft) W-SW 257 ° 0 min 0,000 mm 0,0 UV-I 0 W/m² -2,2 °C -3,5 °C 11,3 km/h (2 Bft)
08.01.2019 03:20 -1,2 °C 93 % 1024,2 hPa 0,0 mm 8,6 km/h (2 Bft) W 274 ° 0 min 0,000 mm 0,0 UV-I 0 W/m² -2,2 °C -4,3 °C 14,5 km/h (3 Bft)
08.01.2019 03:21 -1,2 °C 93 % 1024,2 hPa 0,0 mm 5,1 km/h (1 Bft) W 271 ° 0 min 0,000 mm 0,0 UV-I 0 W/m² -2,2 °C -3,0 °C 9,7 km/h (2 Bft)
08.01.2019 03:22 -1,2 °C 93 % 1024,2 hPa 0,0 mm 6,6 km/h (2 Bft) W 277 ° 0 min 0,000 mm 0,0 UV-I 0 W/m² -2,2 °C -3,6 °C 11,3 km/h (2 Bft)
08.01.2019 03:23 -1,2 °C 93 % 1024,1 hPa 0,0 mm 6,8 km/h (2 Bft) SW 223 ° 0 min 0,000 mm 0,0 UV-I 0 W/m² -2,2 °C -3,7 °C 12,9 km/h (3 Bft)
08.01.2019 03:24 -1,2 °C 93 % 1024,1 hPa 0,0 mm 8,3 km/h (2 Bft) W-SW 257 ° 0 min 0,000 mm 0,0 UV-I 0 W/m² -2,2 °C -4,2 °C 17,7 km/h (3 Bft)
08.01.2019 03:25 -1,2 °C 93 % 1024,1 hPa 0,0 mm 7,0 km/h (2 Bft) W-SW 257 ° 0 min 0,000 mm 0,0 UV-I 0 W/m² -2,2 °C -3,8 °C 14,5 km/h (3 Bft)
08.01.2019 03:26 -1,2 °C 93 % 1024,1 hPa 0,0 mm 6,0 km/h (2 Bft) W-SW 241 ° 0 min 0,000 mm 0,0 UV-I 0 W/m² -2,2 °C -3,4 °C 11,3 km/h (2 Bft)
08.01.2019 03:27 -1,2 °C 93 % 1024,1 hPa 0,0 mm 9,7 km/h (2 Bft) W 278 ° 0 min 0,000 mm 0,0 UV-I 0 W/m² -2,2 °C -4,7 °C 14,5 km/h (3 Bft)
08.01.2019 03:28 -1,2 °C 93 % 1024,0 hPa 0,0 mm 4,2 km/h (1 Bft) W-SW 254 ° 0 min 0,000 mm 0,0 UV-I 0 W/m² -2,2 °C -1,2 °C 6,4 km/h (2 Bft)
08.01.2019 03:29 -1,2 °C 93 % 1024,0 hPa 0,0 mm 4,3 km/h (1 Bft) W 260 ° 0 min 0,000 mm 0,0 UV-I 0 W/m² -2,2 °C -1,2 °C 6,4 km/h (2 Bft)
08.01.2019 03:30 -1,2 °C 93 % 1024,0 hPa 0,0 mm 8,2 km/h (2 Bft) W 265 ° 0 min 0,000 mm 0,0 UV-I 0 W/m² -2,2 °C -4,2 °C 12,9 km/h (3 Bft)
08.01.2019 03:31 -1,2 °C 93 % 1024,0 hPa 0,0 mm 8,2 km/h (2 Bft) S-SW 211 ° 0 min 0,000 mm 0,0 UV-I 0 W/m² -2,2 °C -4,2 °C 12,9 km/h (3 Bft)
08.01.2019 03:32 -1,2 °C 93 % 1024,0 hPa 0,0 mm 4,7 km/h (1 Bft) S-SW 209 ° 0 min 0,000 mm 0,0 UV-I 0 W/m² -2,2 °C -2,8 °C 8,0 km/h (2 Bft)
08.01.2019 03:33 -1,2 °C 93 % 1024,0 hPa 0,0 mm 3,7 km/h (1 Bft) W-SW 256 ° 0 min 0,000 mm 0,0 UV-I 0 W/m² -2,2 °C -1,2 °C 9,7 km/h (2 Bft)
08.01.2019 03:34 -1,3 °C 93 % 1024,0 hPa 0,0 mm 6,7 km/h (2 Bft) W 267 ° 0 min 0,000 mm 0,0 UV-I 0 W/m² -2,3 °C -3,8 °C 11,3 km/h (2 Bft)
08.01.2019 03:35 -1,3 °C 93 % 1024,0 hPa 0,0 mm 4,5 km/h (1 Bft) W-SW 248 ° 0 min 0,000 mm 0,0 UV-I 0 W/m² -2,3 °C -1,3 °C 6,4 km/h (2 Bft)
08.01.2019 03:36 -1,3 °C 93 % 1024,0 hPa 0,0 mm 6,6 km/h (2 Bft) W 259 ° 0 min 0,000 mm 0,0 UV-I 0 W/m² -2,3 °C -3,8 °C 12,9 km/h (3 Bft)
08.01.2019 03:37 -1,3 °C 93 % 1023,9 hPa 0,0 mm 12,1 km/h (2 Bft) W 261 ° 0 min 0,000 mm 0,0 UV-I 0 W/m² -2,3 °C -5,4 °C 16,1 km/h (3 Bft)
08.01.2019 03:38 -1,3 °C 93 % 1023,9 hPa 0,0 mm 11,9 km/h (2 Bft) W-NW 294 ° 0 min 0,000 mm 0,0 UV-I 0 W/m² -2,3 °C -5,4 °C 16,1 km/h (3 Bft)
08.01.2019 03:39 -1,3 °C 93 % 1023,9 hPa 0,0 mm 6,9 km/h (2 Bft) W-SW 257 ° 0 min 0,000 mm 0,0 UV-I 0 W/m² -2,3 °C -3,9 °C 14,5 km/h (3 Bft)
08.01.2019 03:40 -1,3 °C 93 % 1023,8 hPa 0,0 mm 12,1 km/h (2 Bft) W 276 ° 0 min 0,000 mm 0,0 UV-I 0 W/m² -2,3 °C -5,4 °C 17,7 km/h (3 Bft)
08.01.2019 03:41 -1,3 °C 93 % 1023,8 hPa 0,0 mm 11,0 km/h (2 Bft) W-SW 256 ° 0 min 0,000 mm 0,0 UV-I 0 W/m² -2,3 °C -5,1 °C 14,5 km/h (3 Bft)
08.01.2019 03:42 -1,3 °C 93 % 1023,8 hPa 0,0 mm 2,9 km/h (1 Bft) W 275 ° 0 min 0,000 mm 0,0 UV-I 0 W/m² -2,3 °C -1,3 °C 6,4 km/h (2 Bft)
08.01.2019 03:43 -1,3 °C 93 % 1023,7 hPa 0,0 mm 5,5 km/h (1 Bft) W-SW 253 ° 0 min 0,000 mm 0,0 UV-I 0 W/m² -2,3 °C -3,3 °C 9,7 km/h (2 Bft)
08.01.2019 03:44 -1,3 °C 93 % 1023,7 hPa 0,0 mm 4,2 km/h (1 Bft) W-SW 252 ° 0 min 0,000 mm 0,0 UV-I 0 W/m² -2,3 °C -1,3 °C 6,4 km/h (2 Bft)
08.01.2019 03:45 -1,3 °C 93 % 1023,6 hPa 0,0 mm 3,6 km/h (1 Bft) W-SW 252 ° 0 min 0,000 mm 0,0 UV-I 0 W/m² -2,3 °C -1,3 °C 6,4 km/h (2 Bft)
08.01.2019 03:46 -1,3 °C 93 % 1023,6 hPa 0,0 mm 5,0 km/h (1 Bft) W-SW 258 ° 0 min 0,000 mm 0,0 UV-I 0 W/m² -2,3 °C -3,1 °C 14,5 km/h (3 Bft)
08.01.2019 03:47 -1,3 °C 93 % 1023,6 hPa 0,0 mm 7,8 km/h (2 Bft) W 262 ° 0 min 0,000 mm 0,0 UV-I 0 W/m² -2,3 °C -4,2 °C 14,5 km/h (3 Bft)
08.01.2019 03:48 -1,3 °C 93 % 1023,6 hPa 0,0 mm 6,4 km/h (2 Bft) W 271 ° 0 min 0,000 mm 0,0 UV-I 0 W/m² -2,3 °C -3,7 °C 11,3 km/h (2 Bft)
08.01.2019 03:49 -1,3 °C 93 % 1023,6 hPa 0,0 mm 9,2 km/h (2 Bft) W 277 ° 0 min 0,000 mm 0,0 UV-I 0 W/m² -2,3 °C -4,6 °C 12,9 km/h (3 Bft)
08.01.2019 03:50 -1,3 °C 93 % 1023,5 hPa 0,0 mm 4,0 km/h (1 Bft) W-SW 246 ° 0 min 0,000 mm 0,0 UV-I 0 W/m² -2,3 °C -1,3 °C 4,8 km/h (1 Bft)
08.01.2019 03:51 -1,3 °C 93 % 1023,4 hPa 0,0 mm 0,9 km/h (0 Bft) W-SW 246 ° 0 min 0,000 mm 0,0 UV-I 0 W/m² -2,3 °C -1,3 °C 3,2 km/h (1 Bft)
08.01.2019 03:52 -1,3 °C 93 % 1023,4 hPa 0,0 mm 1,1 km/h (1 Bft) W-SW 246 ° 0 min 0,000 mm 0,0 UV-I 0 W/m² -2,3 °C -1,3 °C 3,2 km/h (1 Bft)
08.01.2019 03:53 -1,3 °C 93 % 1023,4 hPa 0,0 mm 2,7 km/h (1 Bft) W 259 ° 0 min 0,000 mm 0,0 UV-I 0 W/m² -2,3 °C -1,3 °C 6,4 km/h (2 Bft)
08.01.2019 03:54 -1,3 °C 93 % 1023,4 hPa 0,0 mm 5,0 km/h (1 Bft) W 279 ° 0 min 0,000 mm 0,0 UV-I 0 W/m² -2,3 °C -3,1 °C 9,7 km/h (2 Bft)
08.01.2019 03:55 -1,3 °C 93 % 1023,3 hPa 0,0 mm 6,2 km/h (2 Bft) W 276 ° 0 min 0,000 mm 0,0 UV-I 0 W/m² -2,3 °C -3,6 °C 11,3 km/h (2 Bft)
08.01.2019 03:56 -1,3 °C 93 % 1023,3 hPa 0,0 mm 3,4 km/h (1 Bft) W 262 ° 0 min 0,000 mm 0,0 UV-I 0 W/m² -2,3 °C -1,3 °C 8,0 km/h (2 Bft)
08.01.2019 03:57 -1,3 °C 93 % 1023,3 hPa 0,0 mm 5,0 km/h (1 Bft) W-SW 250 ° 0 min 0,000 mm 0,0 UV-I 0 W/m² -2,3 °C -3,1 °C 9,7 km/h (2 Bft)
08.01.2019 03:58 -1,3 °C 93 % 1023,2 hPa 0,0 mm 1,2 km/h (1 Bft) W-SW 250 ° 0 min 0,000 mm 0,0 UV-I 0 W/m² -2,3 °C -1,3 °C 4,8 km/h (1 Bft)
08.01.2019 03:59 -1,3 °C 93 % 1023,2 hPa 0,0 mm 2,7 km/h (1 Bft) W 276 ° 0 min 0,000 mm 0,0 UV-I 0 W/m² -2,3 °C -1,3 °C 4,8 km/h (1 Bft)
08.01.2019 04:00 -1,3 °C 93 % 1023,1 hPa 0,0 mm 7,8 km/h (2 Bft) SW 234 ° 0 min 0,000 mm 0,0 UV-I 0 W/m² -2,3 °C -4,2 °C 9,7 km/h (2 Bft)
08.01.2019 04:01 -1,3 °C 93 % 1023,1 hPa 0,0 mm 3,0 km/h (1 Bft) W-SW 255 ° 0 min 0,000 mm 0,0 UV-I 0 W/m² -2,3 °C -1,3 °C 6,4 km/h (2 Bft)
08.01.2019 04:02 -1,3 °C 93 % 1023,1 hPa 0,0 mm 4,3 km/h (1 Bft) W 259 ° 0 min 0,000 mm 0,0 UV-I 0 W/m² -2,3 °C -1,3 °C 6,4 km/h (2 Bft)
08.01.2019 04:03 -1,3 °C 93 % 1023,1 hPa 0,0 mm 3,1 km/h (1 Bft) W-NW 296 ° 0 min 0,000 mm 0,0 UV-I 0 W/m² -2,3 °C -1,3 °C 4,8 km/h (1 Bft)
08.01.2019 04:04 -1,3 °C 93 % 1023,1 hPa 0,0 mm 9,7 km/h (2 Bft) W 268 ° 0 min 0,000 mm 0,0 UV-I 0 W/m² -2,3 °C -4,8 °C 19,3 km/h (3 Bft)
08.01.2019 04:05 -1,3 °C 93 % 1023,0 hPa 0,0 mm 9,9 km/h (2 Bft) W-SW 257 ° 0 min 0,000 mm 0,0 UV-I 0 W/m² -2,3 °C -4,8 °C 16,1 km/h (3 Bft)
08.01.2019 04:06 -1,3 °C 93 % 1023,0 hPa 0,0 mm 1,8 km/h (1 Bft) W 259 ° 0 min 0,000 mm 0,0 UV-I 0 W/m² -2,3 °C -1,3 °C 8,0 km/h (2 Bft)
08.01.2019 04:07 -1,3 °C 93 % 1023,0 hPa 0,0 mm 6,4 km/h (2 Bft) W-NW 283 ° 0 min 0,000 mm 0,0 UV-I 0 W/m² -2,3 °C -3,7 °C 11,3 km/h (2 Bft)
08.01.2019 04:08 -1,3 °C 93 % 1023,0 hPa 0,0 mm 6,0 km/h (2 Bft) W-SW 257 ° 0 min 0,000 mm 0,0 UV-I 0 W/m² -2,3 °C -3,5 °C 9,7 km/h (2 Bft)
08.01.2019 04:09 -1,3 °C 93 % 1022,9 hPa 0,0 mm 6,3 km/h (2 Bft) W-SW 248 ° 0 min 0,000 mm 0,0 UV-I 0 W/m² -2,3 °C -3,6 °C 11,3 km/h (2 Bft)
08.01.2019 04:10 -1,3 °C 93 % 1022,9 hPa 0,0 mm 5,8 km/h (2 Bft) W 264 ° 0 min 0,000 mm 0,0 UV-I 0 W/m² -2,3 °C -3,4 °C 11,3 km/h (2 Bft)
08.01.2019 04:11 -1,3 °C 93 % 1022,9 hPa 0,0 mm 6,8 km/h (2 Bft) W-SW 254 ° 0 min 0,000 mm 0,0 UV-I 0 W/m² -2,3 °C -3,8 °C 11,3 km/h (2 Bft)
08.01.2019 04:12 -1,3 °C 94 % 1022,8 hPa 0,0 mm 5,5 km/h (1 Bft) W 261 ° 0 min 0,000 mm 0,0 UV-I 0 W/m² -2,1 °C -3,3 °C 11,3 km/h (2 Bft)
08.01.2019 04:13 -1,3 °C 94 % 1022,8 hPa 0,0 mm 6,7 km/h (2 Bft) SW 232 ° 0 min 0,000 mm 0,0 UV-I 0 W/m² -2,1 °C -3,8 °C 9,7 km/h (2 Bft)
08.01.2019 04:14 -1,3 °C 94 % 1022,7 hPa 0,0 mm 8,9 km/h (2 Bft) W-SW 241 ° 0 min 0,000 mm 0,0 UV-I 0 W/m² -2,1 °C -4,6 °C 12,9 km/h (3 Bft)
08.01.2019 04:15 -1,3 °C 94 % 1022,7 hPa 0,0 mm 7,6 km/h (2 Bft) W-SW 255 ° 0 min 0,000 mm 0,0 UV-I 0 W/m² -2,1 °C -4,1 °C 12,9 km/h (3 Bft)
08.01.2019 04:16 -1,3 °C 94 % 1022,7 hPa 0,0 mm 10,2 km/h (2 Bft) W 259 ° 0 min 0,000 mm 0,0 UV-I 0 W/m² -2,1 °C -4,9 °C 14,5 km/h (3 Bft)
08.01.2019 04:17 -1,3 °C 94 % 1022,7 hPa 0,0 mm 5,9 km/h (2 Bft) W 267 ° 0 min 0,000 mm 0,0 UV-I 0 W/m² -2,1 °C -3,5 °C 11,3 km/h (2 Bft)
08.01.2019 04:18 -1,3 °C 94 % 1022,7 hPa 0,0 mm 10,0 km/h (2 Bft) SW 228 ° 0 min 0,000 mm 0,0 UV-I 0 W/m² -2,1 °C -4,9 °C 20,9 km/h (4 Bft)
08.01.2019 04:19 -1,3 °C 94 % 1022,6 hPa 0,0 mm 10,4 km/h (2 Bft) W-SW 255 ° 0 min 0,000 mm 0,0 UV-I 0 W/m² -2,1 °C -5,0 °C 16,1 km/h (3 Bft)
08.01.2019 04:20 -1,3 °C 94 % 1022,5 hPa 0,0 mm 8,1 km/h (2 Bft) W 259 ° 0 min 0,000 mm 0,0 UV-I 0 W/m² -2,1 °C -4,3 °C 11,3 km/h (2 Bft)
08.01.2019 04:21 -1,3 °C 94 % 1022,6 hPa 0,0 mm 6,2 km/h (2 Bft) S 188 ° 0 min 0,000 mm 0,0 UV-I 0 W/m² -2,1 °C -3,6 °C 11,3 km/h (2 Bft)
08.01.2019 04:22 -1,3 °C 94 % 1022,5 hPa 0,0 mm 1,4 km/h (1 Bft) W-SW 250 ° 0 min 0,000 mm 0,0 UV-I 0 W/m² -2,1 °C -1,3 °C 3,2 km/h (1 Bft)
08.01.2019 04:23 -1,3 °C 94 % 1022,5 hPa 0,0 mm 5,0 km/h (1 Bft) W-NW 288 ° 0 min 0,000 mm 0,0 UV-I 0 W/m² -2,1 °C -3,1 °C 8,0 km/h (2 Bft)
08.01.2019 04:24 -1,3 °C 94 % 1022,5 hPa 0,0 mm 4,0 km/h (1 Bft) W-SW 251 ° 0 min 0,000 mm 0,0 UV-I 0 W/m² -2,1 °C -1,3 °C 8,0 km/h (2 Bft)
08.01.2019 04:25 -1,3 °C 94 % 1022,4 hPa 0,0 mm 3,9 km/h (1 Bft) W-SW 249 ° 0 min 0,000 mm 0,0 UV-I 0 W/m² -2,1 °C -1,3 °C 4,8 km/h (1 Bft)
08.01.2019 04:26 -1,3 °C 94 % 1022,4 hPa 0,0 mm 3,2 km/h (1 Bft) W 280 ° 0 min 0,000 mm 0,0 UV-I 0 W/m² -2,1 °C -1,3 °C 9,7 km/h (2 Bft)
08.01.2019 04:27 -1,3 °C 94 % 1022,4 hPa 0,0 mm 4,8 km/h (1 Bft) W 260 ° 0 min 0,000 mm 0,0 UV-I 0 W/m² -2,1 °C -3,0 °C 6,4 km/h (2 Bft)
08.01.2019 04:28 -1,3 °C 94 % 1022,4 hPa 0,0 mm 8,6 km/h (2 Bft) SW 231 ° 0 min 0,000 mm 0,0 UV-I 0 W/m² -2,1 °C -4,5 °C 14,5 km/h (3 Bft)
08.01.2019 04:29 -1,3 °C 94 % 1022,3 hPa 0,0 mm 9,9 km/h (2 Bft) W-SW 256 ° 0 min 0,000 mm 0,0 UV-I 0 W/m² -2,1 °C -4,8 °C 14,5 km/h (3 Bft)
08.01.2019 04:30 -1,3 °C 94 % 1022,3 hPa 0,0 mm 6,9 km/h (2 Bft) S 186 ° 0 min 0,000 mm 0,0 UV-I 0 W/m² -2,1 °C -3,9 °C 14,5 km/h (3 Bft)
08.01.2019 04:31 -1,3 °C 94 % 1022,3 hPa 0,0 mm 6,0 km/h (2 Bft) W 264 ° 0 min 0,000 mm 0,0 UV-I 0 W/m² -2,1 °C -3,5 °C 9,7 km/h (2 Bft)
08.01.2019 04:32 -1,3 °C 94 % 1022,2 hPa 0,0 mm 6,5 km/h (2 Bft) W 263 ° 0 min 0,000 mm 0,0 UV-I 0 W/m² -2,1 °C -3,7 °C 11,3 km/h (2 Bft)
08.01.2019 04:33 -1,3 °C 94 % 1022,2 hPa 0,0 mm 8,1 km/h (2 Bft) W 259 ° 0 min 0,000 mm 0,0 UV-I 0 W/m² -2,1 °C -4,3 °C 12,9 km/h (3 Bft)
08.01.2019 04:34 -1,3 °C 94 % 1022,2 hPa 0,0 mm 7,1 km/h (2 Bft) W 262 ° 0 min 0,000 mm 0,0 UV-I 0 W/m² -2,1 °C -4,0 °C 12,9 km/h (3 Bft)
08.01.2019 04:35 -1,3 °C 94 % 1022,2 hPa 0,0 mm 8,6 km/h (2 Bft) W 264 ° 0 min 0,000 mm 0,0 UV-I 0 W/m² -2,1 °C -4,5 °C 12,9 km/h (3 Bft)
08.01.2019 04:36 -1,3 °C 94 % 1022,2 hPa 0,0 mm 10,1 km/h (2 Bft) W-SW 253 ° 0 min 0,000 mm 0,0 UV-I 0 W/m² -2,1 °C -4,9 °C 12,9 km/h (3 Bft)
08.01.2019 04:37 -1,3 °C 94 % 1022,2 hPa 0,0 mm 8,4 km/h (2 Bft) W-NW 282 ° 0 min 0,000 mm 0,0 UV-I 0 W/m² -2,1 °C -4,4 °C 16,1 km/h (3 Bft)
08.01.2019 04:38 -1,3 °C 94 % 1022,1 hPa 0,0 mm 6,1 km/h (2 Bft) W-SW 250 ° 0 min 0,000 mm 0,0 UV-I 0 W/m² -2,1 °C -3,6 °C 9,7 km/h (2 Bft)
08.01.2019 04:39 -1,3 °C 94 % 1022,1 hPa 0,0 mm 4,6 km/h (1 Bft) W 269 ° 0 min 0,000 mm 0,0 UV-I 0 W/m² -2,1 °C -2,9 °C 9,7 km/h (2 Bft)
08.01.2019 04:40 -1,3 °C 94 % 1022,1 hPa 0,0 mm 6,6 km/h (2 Bft) W 263 ° 0 min 0,000 mm 0,0 UV-I 0 W/m² -2,1 °C -3,8 °C 12,9 km/h (3 Bft)
08.01.2019 04:41 -1,2 °C 94 % 1022,0 hPa 0,0 mm 10,9 km/h (2 Bft) W-SW 244 ° 0 min 0,000 mm 0,0 UV-I 0 W/m² -2,0 °C -5,0 °C 19,3 km/h (3 Bft)
08.01.2019 04:42 -1,3 °C 94 % 1022,0 hPa 0,0 mm 11,1 km/h (2 Bft) W 269 ° 0 min 0,000 mm 0,0 UV-I 0 W/m² -2,1 °C -5,2 °C 14,5 km/h (3 Bft)
08.01.2019 04:43 -1,3 °C 94 % 1021,9 hPa 0,0 mm 7,4 km/h (2 Bft) W-SW 254 ° 0 min 0,000 mm 0,0 UV-I 0 W/m² -2,1 °C -4,1 °C 12,9 km/h (3 Bft)
08.01.2019 04:44 -1,3 °C 94 % 1021,9 hPa 0,0 mm 6,9 km/h (2 Bft) W-SW 248 ° 0 min 0,000 mm 0,0 UV-I 0 W/m² -2,1 °C -3,9 °C 14,5 km/h (3 Bft)
08.01.2019 04:45 -1,3 °C 94 % 1021,9 hPa 0,0 mm 6,0 km/h (2 Bft) SW 223 ° 0 min 0,000 mm 0,0 UV-I 0 W/m² -2,1 °C -3,5 °C 9,7 km/h (2 Bft)
08.01.2019 04:46 -1,2 °C 94 % 1021,8 hPa 0,0 mm 10,6 km/h (2 Bft) SW 231 ° 0 min 0,000 mm 0,0 UV-I 0 W/m² -2,0 °C -4,9 °C 16,1 km/h (3 Bft)
08.01.2019 04:47 -1,3 °C 94 % 1021,8 hPa 0,0 mm 3,6 km/h (1 Bft) SW 230 ° 0 min 0,000 mm 0,0 UV-I 0 W/m² -2,1 °C -1,3 °C 4,8 km/h (1 Bft)
08.01.2019 04:48 -1,2 °C 94 % 1021,8 hPa 0,0 mm 4,0 km/h (1 Bft) W 269 ° 0 min 0,000 mm 0,0 UV-I 0 W/m² -2,0 °C -1,2 °C 6,4 km/h (2 Bft)
08.01.2019 04:49 -1,3 °C 94 % 1021,7 hPa 0,0 mm 10,8 km/h (2 Bft) W 269 ° 0 min 0,000 mm 0,0 UV-I 0 W/m² -2,1 °C -5,1 °C 17,7 km/h (3 Bft)
08.01.2019 04:50 -1,2 °C 94 % 1021,7 hPa 0,0 mm 7,3 km/h (2 Bft) W 267 ° 0 min 0,000 mm 0,0 UV-I 0 W/m² -2,0 °C -3,9 °C 11,3 km/h (2 Bft)
08.01.2019 04:51 -1,2 °C 94 % 1021,7 hPa 0,0 mm 7,3 km/h (2 Bft) SW 235 ° 0 min 0,000 mm 0,0 UV-I 0 W/m² -2,0 °C -3,9 °C 12,9 km/h (3 Bft)
08.01.2019 04:52 -1,3 °C 94 % 1021,7 hPa 0,0 mm 7,2 km/h (2 Bft) W 274 ° 0 min 0,000 mm 0,0 UV-I 0 W/m² -2,1 °C -4,0 °C 9,7 km/h (2 Bft)
08.01.2019 04:53 -1,2 °C 94 % 1021,7 hPa 0,0 mm 6,1 km/h (2 Bft) W-SW 237 ° 0 min 0,000 mm 0,0 UV-I 0 W/m² -2,0 °C -3,4 °C 12,9 km/h (3 Bft)
08.01.2019 04:54 -1,2 °C 94 % 1021,7 hPa 0,0 mm 9,8 km/h (2 Bft) W-NW 300 ° 0 min 0,000 mm 0,0 UV-I 0 W/m² -2,0 °C -4,7 °C 17,7 km/h (3 Bft)
08.01.2019 04:55 -1,2 °C 94 % 1021,6 hPa 0,0 mm 12,7 km/h (3 Bft) W 277 ° 0 min 0,000 mm 0,0 UV-I 0 W/m² -2,0 °C -5,4 °C 16,1 km/h (3 Bft)
08.01.2019 04:56 -1,2 °C 94 % 1021,7 hPa 0,0 mm 11,3 km/h (2 Bft) W 267 ° 0 min 0,000 mm 0,0 UV-I 0 W/m² -2,0 °C -5,1 °C 17,7 km/h (3 Bft)
08.01.2019 04:57 -1,2 °C 94 % 1021,7 hPa 0,0 mm 11,1 km/h (2 Bft) W-NW 290 ° 0 min 0,000 mm 0,0 UV-I 0 W/m² -2,0 °C -5,0 °C 16,1 km/h (3 Bft)
08.01.2019 04:58 -1,2 °C 94 % 1021,7 hPa 0,0 mm 9,9 km/h (2 Bft) W-NW 298 ° 0 min 0,000 mm 0,0 UV-I 0 W/m² -2,0 °C -4,7 °C 17,7 km/h (3 Bft)
08.01.2019 04:59 -1,2 °C 94 % 1021,7 hPa 0,0 mm 8,3 km/h (2 Bft) W 263 ° 0 min 0,000 mm 0,0 UV-I 0 W/m² -2,0 °C -4,2 °C 12,9 km/h (3 Bft)
08.01.2019 05:00 -1,2 °C 94 % 1021,7 hPa 0,0 mm 11,5 km/h (2 Bft) W 270 ° 0 min 0,000 mm 0,0 UV-I 0 W/m² -2,0 °C -5,1 °C 16,1 km/h (3 Bft)
08.01.2019 05:01 -1,2 °C 94 % 1021,6 hPa 0,0 mm 8,7 km/h (2 Bft) W 267 ° 0 min 0,000 mm 0,0 UV-I 0 W/m² -2,0 °C -4,4 °C 17,7 km/h (3 Bft)
08.01.2019 05:02 -1,2 °C 94 % 1021,6 hPa 0,0 mm 12,0 km/h (2 Bft) W 275 ° 0 min 0,000 mm 0,0 UV-I 0 W/m² -2,0 °C -5,3 °C 16,1 km/h (3 Bft)
08.01.2019 05:03 -1,2 °C 94 % 1021,6 hPa 0,0 mm 10,7 km/h (2 Bft) W-SW 239 ° 0 min 0,000 mm 0,0 UV-I 0 W/m² -2,0 °C -4,9 °C 12,9 km/h (3 Bft)
08.01.2019 05:04 -1,2 °C 94 % 1021,6 hPa 0,0 mm 8,2 km/h (2 Bft) W 263 ° 0 min 0,000 mm 0,0 UV-I 0 W/m² -2,0 °C -4,2 °C 16,1 km/h (3 Bft)
08.01.2019 05:05 -1,2 °C 94 % 1021,5 hPa 0,0 mm 9,3 km/h (2 Bft) W 261 ° 0 min 0,000 mm 0,0 UV-I 0 W/m² -2,0 °C -4,6 °C 14,5 km/h (3 Bft)
08.01.2019 05:06 -1,2 °C 94 % 1021,5 hPa 0,0 mm 12,6 km/h (3 Bft) W-SW 248 ° 0 min 0,000 mm 0,0 UV-I 0 W/m² -2,0 °C -5,4 °C 17,7 km/h (3 Bft)
08.01.2019 05:07 -1,2 °C 94 % 1021,5 hPa 0,0 mm 6,8 km/h (2 Bft) S-SW 204 ° 0 min 0,000 mm 0,0 UV-I 0 W/m² -2,0 °C -3,7 °C 14,5 km/h (3 Bft)
08.01.2019 05:08 -1,2 °C 94 % 1021,4 hPa 0,0 mm 9,0 km/h (2 Bft) W-SW 248 ° 0 min 0,000 mm 0,0 UV-I 0 W/m² -2,0 °C -4,5 °C 14,5 km/h (3 Bft)
08.01.2019 05:09 -1,2 °C 94 % 1021,4 hPa 0,0 mm 10,2 km/h (2 Bft) S-SW 192 ° 0 min 0,000 mm 0,0 UV-I 0 W/m² -2,0 °C -4,8 °C 14,5 km/h (3 Bft)
08.01.2019 05:10 -1,2 °C 94 % 1021,3 hPa 0,0 mm 10,2 km/h (2 Bft) W 265 ° 0 min 0,000 mm 0,0 UV-I 0 W/m² -2,0 °C -4,8 °C 14,5 km/h (3 Bft)
08.01.2019 05:11 -1,2 °C 94 % 1021,3 hPa 0,0 mm 10,1 km/h (2 Bft) W 260 ° 0 min 0,000 mm 0,0 UV-I 0 W/m² -2,0 °C -4,8 °C 14,5 km/h (3 Bft)
08.01.2019 05:12 -1,2 °C 94 % 1021,3 hPa 0,0 mm 8,4 km/h (2 Bft) SW 215 ° 0 min 0,000 mm 0,0 UV-I 0 W/m² -2,0 °C -4,3 °C 16,1 km/h (3 Bft)
08.01.2019 05:13 -1,2 °C 94 % 1021,2 hPa 0,0 mm 14,0 km/h (3 Bft) SW 227 ° 0 min 0,000 mm 0,0 UV-I 0 W/m² -2,0 °C -5,7 °C 20,9 km/h (4 Bft)
08.01.2019 05:14 -1,2 °C 94 % 1021,2 hPa 0,0 mm 8,6 km/h (2 Bft) W 281 ° 0 min 0,000 mm 0,0 UV-I 0 W/m² -2,0 °C -4,3 °C 14,5 km/h (3 Bft)
08.01.2019 05:15 -1,2 °C 94 % 1021,1 hPa 0,0 mm 11,4 km/h (2 Bft) W 271 ° 0 min 0,000 mm 0,0 UV-I 0 W/m² -2,0 °C -5,1 °C 14,5 km/h (3 Bft)
08.01.2019 05:16 -1,2 °C 94 % 1021,1 hPa 0,0 mm 4,7 km/h (1 Bft) W-SW 251 ° 0 min 0,000 mm 0,0 UV-I 0 W/m² -2,0 °C -2,8 °C 9,7 km/h (2 Bft)
08.01.2019 05:17 -1,2 °C 94 % 1021,1 hPa 0,0 mm 6,2 km/h (2 Bft) W 259 ° 0 min 0,000 mm 0,0 UV-I 0 W/m² -2,0 °C -3,5 °C 11,3 km/h (2 Bft)
08.01.2019 05:18 -1,2 °C 94 % 1021,1 hPa 0,0 mm 9,6 km/h (2 Bft) W-NW 299 ° 0 min 0,000 mm 0,0 UV-I 0 W/m² -2,0 °C -4,6 °C 16,1 km/h (3 Bft)
08.01.2019 05:19 -1,1 °C 94 % 1021,0 hPa 0,0 mm 8,6 km/h (2 Bft) W-SW 244 ° 0 min 0,000 mm 0,0 UV-I 0 W/m² -1,9 °C -4,2 °C 17,7 km/h (3 Bft)
08.01.2019 05:20 -1,2 °C 94 % 1021,0 hPa 0,0 mm 8,9 km/h (2 Bft) W 275 ° 0 min 0,000 mm 0,0 UV-I 0 W/m² -2,0 °C -4,4 °C 14,5 km/h (3 Bft)
08.01.2019 05:21 -1,2 °C 94 % 1021,0 hPa 0,0 mm 10,1 km/h (2 Bft) S-SW 193 ° 0 min 0,000 mm 0,0 UV-I 0 W/m² -2,0 °C -4,8 °C 16,1 km/h (3 Bft)
08.01.2019 05:22 -1,2 °C 94 % 1021,0 hPa 0,0 mm 7,3 km/h (2 Bft) W-NW 297 ° 0 min 0,000 mm 0,0 UV-I 0 W/m² -2,0 °C -3,9 °C 12,9 km/h (3 Bft)
08.01.2019 05:23 -1,2 °C 94 % 1021,0 hPa 0,0 mm 7,7 km/h (2 Bft) W 264 ° 0 min 0,000 mm 0,0 UV-I 0 W/m² -2,0 °C -4,0 °C 9,7 km/h (2 Bft)
08.01.2019 05:24 -1,1 °C 94 % 1021,0 hPa 0,0 mm 10,7 km/h (2 Bft) W-SW 252 ° 0 min 0,000 mm 0,0 UV-I 0 W/m² -1,9 °C -4,8 °C 12,9 km/h (3 Bft)
08.01.2019 05:25 -1,2 °C 94 % 1020,9 hPa 0,0 mm 8,9 km/h (2 Bft) W 269 ° 0 min 0,000 mm 0,0 UV-I 0 W/m² -2,0 °C -4,4 °C 14,5 km/h (3 Bft)
08.01.2019 05:26 -1,2 °C 94 % 1020,9 hPa 0,0 mm 12,8 km/h (3 Bft) W 269 ° 0 min 0,000 mm 0,0 UV-I 0 W/m² -2,0 °C -5,4 °C 19,3 km/h (3 Bft)
08.01.2019 05:27 -1,1 °C 94 % 1020,7 hPa 0,0 mm 9,2 km/h (2 Bft) W-NW 288 ° 0 min 0,000 mm 0,0 UV-I 0 W/m² -1,9 °C -4,4 °C 14,5 km/h (3 Bft)
08.01.2019 05:28 -1,1 °C 94 % 1020,7 hPa 0,0 mm 10,6 km/h (2 Bft) W 265 ° 0 min 0,000 mm 0,0 UV-I 0 W/m² -1,9 °C -4,8 °C 17,7 km/h (3 Bft)
08.01.2019 05:29 -1,1 °C 94 % 1020,7 hPa 0,0 mm 11,9 km/h (2 Bft) W-SW 250 ° 0 min 0,000 mm 0,0 UV-I 0 W/m² -1,9 °C -5,1 °C 16,1 km/h (3 Bft)
08.01.2019 05:30 -1,1 °C 94 % 1020,7 hPa 0,0 mm 7,8 km/h (2 Bft) W 261 ° 0 min 0,000 mm 0,0 UV-I 0 W/m² -1,9 °C -4,0 °C 12,9 km/h (3 Bft)
08.01.2019 05:31 -1,1 °C 94 % 1020,7 hPa 0,0 mm 7,9 km/h (2 Bft) W 267 ° 0 min 0,000 mm 0,0 UV-I 0 W/m² -1,9 °C -4,0 °C 12,9 km/h (3 Bft)
08.01.2019 05:32 -1,2 °C 94 % 1020,7 hPa 0,0 mm 11,7 km/h (2 Bft) SW 233 ° 0 min 0,000 mm 0,0 UV-I 0 W/m² -2,0 °C -5,2 °C 22,5 km/h (4 Bft)
08.01.2019 05:33 -1,1 °C 94 % 1020,6 hPa 0,0 mm 9,7 km/h (2 Bft) W 267 ° 0 min 0,000 mm 0,0 UV-I 0 W/m² -1,9 °C -4,5 °C 16,1 km/h (3 Bft)
08.01.2019 05:34 -1,1 °C 94 % 1020,6 hPa 0,0 mm 7,4 km/h (2 Bft) W 267 ° 0 min 0,000 mm 0,0 UV-I 0 W/m² -1,9 °C -3,8 °C 11,3 km/h (2 Bft)
08.01.2019 05:35 -1,1 °C 94 % 1020,6 hPa 0,0 mm 11,0 km/h (2 Bft) W 267 ° 0 min 0,000 mm 0,0 UV-I 0 W/m² -1,9 °C -4,9 °C 16,1 km/h (3 Bft)
08.01.2019 05:36 -1,2 °C 94 % 1020,5 hPa 0,0 mm 5,7 km/h (1 Bft) W-SW 245 ° 0 min 0,000 mm 0,0 UV-I 0 W/m² -2,0 °C -3,3 °C 11,3 km/h (2 Bft)
08.01.2019 05:37 -1,1 °C 94 % 1020,5 hPa 0,0 mm 8,1 km/h (2 Bft) W 263 ° 0 min 0,000 mm 0,0 UV-I 0 W/m² -1,9 °C -4,1 °C 19,3 km/h (3 Bft)
08.01.2019 05:38 -1,1 °C 94 % 1020,5 hPa 0,0 mm 13,5 km/h (3 Bft) W-SW 251 ° 0 min 0,000 mm 0,0 UV-I 0 W/m² -1,9 °C -5,5 °C 17,7 km/h (3 Bft)
08.01.2019 05:39 -1,1 °C 94 % 1020,5 hPa 0,0 mm 16,3 km/h (3 Bft) W-SW 244 ° 0 min 0,000 mm 0,0 UV-I 0 W/m² -1,9 °C -6,0 °C 24,1 km/h (4 Bft)
08.01.2019 05:40 -1,1 °C 94 % 1020,4 hPa 0,0 mm 8,1 km/h (2 Bft) W 273 ° 0 min 0,000 mm 0,0 UV-I 0 W/m² -1,9 °C -4,1 °C 17,7 km/h (3 Bft)
08.01.2019 05:41 -1,1 °C 94 % 1020,4 hPa 0,0 mm 11,0 km/h (2 Bft) W-SW 253 ° 0 min 0,000 mm 0,0 UV-I 0 W/m² -1,9 °C -4,9 °C 20,9 km/h (4 Bft)
08.01.2019 05:42 -1,1 °C 94 % 1020,4 hPa 0,0 mm 6,2 km/h (2 Bft) W-SW 240 ° 0 min 0,000 mm 0,0 UV-I 0 W/m² -1,9 °C -3,4 °C 14,5 km/h (3 Bft)
08.01.2019 05:43 -1,1 °C 94 % 1020,4 hPa 0,0 mm 14,3 km/h (3 Bft) W 269 ° 0 min 0,000 mm 0,0 UV-I 0 W/m² -1,9 °C -5,6 °C 20,9 km/h (4 Bft)
08.01.2019 05:44 -1,1 °C 94 % 1020,4 hPa 0,0 mm 12,8 km/h (3 Bft) W 273 ° 0 min 0,000 mm 0,0 UV-I 0 W/m² -1,9 °C -5,3 °C 20,9 km/h (4 Bft)
08.01.2019 05:45 -1,1 °C 94 % 1020,3 hPa 0,0 mm 7,5 km/h (2 Bft) W-SW 246 ° 0 min 0,000 mm 0,0 UV-I 0 W/m² -1,9 °C -3,9 °C 16,1 km/h (3 Bft)
08.01.2019 05:46 -1,1 °C 94 % 1020,3 hPa 0,0 mm 12,3 km/h (3 Bft) W-SW 257 ° 0 min 0,000 mm 0,0 UV-I 0 W/m² -1,9 °C -5,2 °C 19,3 km/h (3 Bft)
08.01.2019 05:47 -1,1 °C 94 % 1020,3 hPa 0,0 mm 11,1 km/h (2 Bft) W-SW 244 ° 0 min 0,000 mm 0,0 UV-I 0 W/m² -1,9 °C -4,9 °C 17,7 km/h (3 Bft)
08.01.2019 05:48 -1,1 °C 94 % 1020,3 hPa 0,0 mm 12,1 km/h (2 Bft) S-SW 209 ° 0 min 0,000 mm 0,0 UV-I 0 W/m² -1,9 °C -5,2 °C 22,5 km/h (4 Bft)
08.01.2019 05:49 -1,1 °C 94 % 1020,3 hPa 0,0 mm 10,2 km/h (2 Bft) W 261 ° 0 min 0,000 mm 0,0 UV-I 0 W/m² -1,9 °C -4,7 °C 14,5 km/h (3 Bft)
08.01.2019 05:50 -1,1 °C 94 % 1020,2 hPa 0,0 mm 9,4 km/h (2 Bft) W-SW 254 ° 0 min 0,000 mm 0,0 UV-I 0 W/m² -1,9 °C -4,5 °C 16,1 km/h (3 Bft)
08.01.2019 05:51 -1,1 °C 94 % 1020,2 hPa 0,0 mm 10,9 km/h (2 Bft) W-SW 242 ° 0 min 0,000 mm 0,0 UV-I 0 W/m² -1,9 °C -4,9 °C 14,5 km/h (3 Bft)
08.01.2019 05:52 -1,1 °C 94 % 1020,2 hPa 0,0 mm 10,4 km/h (2 Bft) W 265 ° 0 min 0,000 mm 0,0 UV-I 0 W/m² -1,9 °C -4,7 °C 16,1 km/h (3 Bft)
08.01.2019 05:53 -1,1 °C 94 % 1020,2 hPa 0,0 mm 9,7 km/h (2 Bft) W-SW 248 ° 0 min 0,000 mm 0,0 UV-I 0 W/m² -1,9 °C -4,5 °C 14,5 km/h (3 Bft)
08.01.2019 05:54 -1,1 °C 94 % 1020,2 hPa 0,0 mm 9,9 km/h (2 Bft) W-SW 254 ° 0 min 0,000 mm 0,0 UV-I 0 W/m² -1,9 °C -4,6 °C 12,9 km/h (3 Bft)
08.01.2019 05:55 -1,1 °C 94 % 1020,3 hPa 0,0 mm 9,9 km/h (2 Bft) W 261 ° 0 min 0,000 mm 0,0 UV-I 0 W/m² -1,9 °C -4,6 °C 14,5 km/h (3 Bft)
08.01.2019 05:56 -1,1 °C 94 % 1020,2 hPa 0,0 mm 14,9 km/h (3 Bft) W-SW 247 ° 0 min 0,000 mm 0,0 UV-I 0 W/m² -1,9 °C -5,8 °C 20,9 km/h (4 Bft)
08.01.2019 05:57 -1,1 °C 94 % 1020,2 hPa 0,0 mm 13,7 km/h (3 Bft) W 263 ° 0 min 0,000 mm 0,0 UV-I 0 W/m² -1,9 °C -5,5 °C 17,7 km/h (3 Bft)
08.01.2019 05:58 -1,0 °C 94 % 1020,1 hPa 0,0 mm 11,5 km/h (2 Bft) W-SW 244 ° 0 min 0,000 mm 0,0 UV-I 0 W/m² -1,8 °C -4,9 °C 19,3 km/h (3 Bft)
08.01.2019 05:59 -1,0 °C 94 % 1020,0 hPa 0,0 mm 9,2 km/h (2 Bft) W 260 ° 0 min 0,000 mm 0,0 UV-I 0 W/m² -1,8 °C -4,3 °C 20,9 km/h (4 Bft)
08.01.2019 06:00 -0,9 °C 94 % 1019,9 hPa 0,0 mm 11,7 km/h (2 Bft) W 263 ° 0 min 0,000 mm 0,0 UV-I 0 W/m² -1,7 °C -4,8 °C 17,7 km/h (3 Bft)
08.01.2019 06:01 -0,9 °C 94 % 1019,9 hPa 0,0 mm 12,1 km/h (2 Bft) W 261 ° 0 min 0,000 mm 0,0 UV-I 0 W/m² -1,7 °C -4,9 °C 16,1 km/h (3 Bft)
08.01.2019 06:02 -0,9 °C 94 % 1019,8 hPa 0,0 mm 12,1 km/h (2 Bft) W-SW 252 ° 0 min 0,000 mm 0,0 UV-I 0 W/m² -1,7 °C -4,9 °C 20,9 km/h (4 Bft)
08.01.2019 06:03 -0,9 °C 94 % 1019,8 hPa 0,0 mm 13,5 km/h (3 Bft) W 264 ° 0 min 0,000 mm 0,0 UV-I 0 W/m² -1,7 °C -5,2 °C 16,1 km/h (3 Bft)
08.01.2019 06:04 -0,9 °C 94 % 1019,8 hPa 0,0 mm 12,5 km/h (3 Bft) W 272 ° 0 min 0,000 mm 0,0 UV-I 0 W/m² -1,7 °C -5,0 °C 16,1 km/h (3 Bft)
08.01.2019 06:05 -0,9 °C 94 % 1019,8 hPa 0,0 mm 11,5 km/h (2 Bft) W 265 ° 0 min 0,000 mm 0,0 UV-I 0 W/m² -1,7 °C -4,8 °C 16,1 km/h (3 Bft)
08.01.2019 06:06 -0,8 °C 94 % 1019,8 hPa 0,0 mm 12,0 km/h (2 Bft) W 270 ° 0 min 0,000 mm 0,0 UV-I 0 W/m² -1,6 °C -4,8 °C 16,1 km/h (3 Bft)
08.01.2019 06:07 -0,8 °C 94 % 1019,9 hPa 0,0 mm 10,0 km/h (2 Bft) W 268 ° 0 min 0,000 mm 0,0 UV-I 0 W/m² -1,6 °C -4,3 °C 16,1 km/h (3 Bft)
08.01.2019 06:08 -0,8 °C 94 % 1019,8 hPa 0,0 mm 10,2 km/h (2 Bft) W 260 ° 0 min 0,000 mm 0,0 UV-I 0 W/m² -1,6 °C -4,3 °C 17,7 km/h (3 Bft)
08.01.2019 06:09 -0,8 °C 94 % 1019,8 hPa 0,0 mm 9,1 km/h (2 Bft) W-SW 248 ° 0 min 0,000 mm 0,0 UV-I 0 W/m² -1,6 °C -4,0 °C 19,3 km/h (3 Bft)
08.01.2019 06:10 -0,8 °C 94 % 1019,9 hPa 0,0 mm 12,6 km/h (3 Bft) W 269 ° 0 min 0,000 mm 0,0 UV-I 0 W/m² -1,6 °C -4,9 °C 17,7 km/h (3 Bft)
08.01.2019 06:11 -0,8 °C 94 % 1019,8 hPa 0,0 mm 13,2 km/h (3 Bft) W 276 ° 0 min 0,000 mm 0,0 UV-I 0 W/m² -1,6 °C -5,0 °C 20,9 km/h (4 Bft)
08.01.2019 06:12 -0,7 °C 94 % 1019,7 hPa 0,0 mm 11,9 km/h (2 Bft) W-SW 257 ° 0 min 0,000 mm 0,0 UV-I 0 W/m² -1,5 °C -4,6 °C 19,3 km/h (3 Bft)
08.01.2019 06:13 -0,7 °C 94 % 1019,8 hPa 0,0 mm 12,2 km/h (2 Bft) W-SW 243 ° 0 min 0,000 mm 0,0 UV-I 0 W/m² -1,5 °C -4,7 °C 16,1 km/h (3 Bft)
08.01.2019 06:14 -0,6 °C 94 % 1019,8 hPa 0,0 mm 8,7 km/h (2 Bft) W-SW 253 ° 0 min 0,000 mm 0,0 UV-I 0 W/m² -1,4 °C -3,7 °C 14,5 km/h (3 Bft)
08.01.2019 06:15 -0,6 °C 94 % 1019,7 hPa 0,0 mm 12,7 km/h (3 Bft) W 259 ° 0 min 0,000 mm 0,0 UV-I 0 W/m² -1,4 °C -4,7 °C 27,4 km/h (4 Bft)
08.01.2019 06:16 -0,6 °C 94 % 1019,7 hPa 0,0 mm 22,3 km/h (4 Bft) W-SW 251 ° 0 min 0,000 mm 0,0 UV-I 0 W/m² -1,4 °C -6,3 °C 32,2 km/h (5 Bft)
08.01.2019 06:17 -0,4 °C 94 % 1019,7 hPa 0,0 mm 14,3 km/h (3 Bft) S-SW 213 ° 0 min 0,000 mm 0,0 UV-I 0 W/m² -1,2 °C -4,8 °C 24,1 km/h (4 Bft)
08.01.2019 06:18 -0,4 °C 94 % 1019,7 hPa 0,0 mm 13,9 km/h (3 Bft) W 281 ° 0 min 0,000 mm 0,0 UV-I 0 W/m² -1,2 °C -4,7 °C 17,7 km/h (3 Bft)
08.01.2019 06:19 -0,3 °C 94 % 1019,7 hPa 0,0 mm 14,6 km/h (3 Bft) SW 232 ° 0 min 0,000 mm 0,0 UV-I 0 W/m² -1,1 °C -4,7 °C 19,3 km/h (3 Bft)
08.01.2019 06:20 -0,3 °C 94 % 1019,7 hPa 0,0 mm 20,7 km/h (4 Bft) W 265 ° 0 min 0,000 mm 0,0 UV-I 0 W/m² -1,1 °C -5,7 °C 33,8 km/h (5 Bft)
08.01.2019 06:21 -0,2 °C 94 % 1019,7 hPa 0,0 mm 16,0 km/h (3 Bft) W-SW 251 ° 0 min 0,000 mm 0,0 UV-I 0 W/m² -1,0 °C -4,8 °C 24,1 km/h (4 Bft)
08.01.2019 06:22 -0,2 °C 94 % 1019,8 hPa 0,0 mm 14,0 km/h (3 Bft) W 265 ° 0 min 0,000 mm 0,0 UV-I 0 W/m² -1,0 °C -4,5 °C 24,1 km/h (4 Bft)
08.01.2019 06:23 -0,1 °C 94 % 1019,8 hPa 0,0 mm 16,8 km/h (3 Bft) W 271 ° 0 min 0,000 mm 0,0 UV-I 0 W/m² -0,9 °C -4,9 °C 22,5 km/h (4 Bft)
08.01.2019 06:24 -0,1 °C 94 % 1019,7 hPa 0,0 mm 15,2 km/h (3 Bft) W 263 ° 0 min 0,000 mm 0,0 UV-I 0 W/m² -0,9 °C -4,6 °C 20,9 km/h (4 Bft)
08.01.2019 06:25 0,0 °C 94 % 1019,7 hPa 0,0 mm 17,8 km/h (3 Bft) W 268 ° 0 min 0,000 mm 0,0 UV-I 0 W/m² -0,8 °C -4,9 °C 25,7 km/h (4 Bft)
08.01.2019 06:26 0,1 °C 94 % 1019,7 hPa 0,0 mm 20,8 km/h (4 Bft) W 267 ° 0 min 0,000 mm 0,0 UV-I 0 W/m² -0,7 °C -5,2 °C 29,0 km/h (5 Bft)
08.01.2019 06:27 0,1 °C 94 % 1019,7 hPa 0,0 mm 19,0 km/h (3 Bft) W 267 ° 0 min 0,000 mm 0,0 UV-I 0 W/m² -0,7 °C -5,0 °C 25,7 km/h (4 Bft)
08.01.2019 06:28 0,1 °C 94 % 1019,6 hPa 0,0 mm 17,2 km/h (3 Bft) W 266 ° 0 min 0,000 mm 0,0 UV-I 0 W/m² -0,7 °C -4,7 °C 24,1 km/h (4 Bft)
08.01.2019 06:29 0,2 °C 94 % 1019,8 hPa 0,0 mm 17,9 km/h (3 Bft) W 264 ° 0 min 0,000 mm 0,0 UV-I 0 W/m² -0,6 °C -4,7 °C 29,0 km/h (5 Bft)
08.01.2019 06:30 0,2 °C 94 % 1019,6 hPa 0,0 mm 25,2 km/h (4 Bft) W 260 ° 0 min 0,000 mm 0,0 UV-I 0 W/m² -0,6 °C -5,7 °C 45,1 km/h (6 Bft)
08.01.2019 06:31 0,2 °C 94 % 1019,6 hPa 0,0 mm 21,9 km/h (4 Bft) W-NW 286 ° 0 min 0,000 mm 0,0 UV-I 0 W/m² -0,6 °C -5,3 °C 40,2 km/h (6 Bft)
08.01.2019 06:32 0,2 °C 94 % 1019,6 hPa 0,0 mm 20,8 km/h (4 Bft) W-SW 240 ° 0 min 0,000 mm 0,0 UV-I 0 W/m² -0,6 °C -5,1 °C 30,6 km/h (5 Bft)
08.01.2019 06:33 0,3 °C 94 % 1019,6 hPa 0,0 mm 14,4 km/h (3 Bft) W 273 ° 0 min 0,000 mm 0,0 UV-I 0 W/m² -0,5 °C -3,9 °C 30,6 km/h (5 Bft)
08.01.2019 06:34 0,3 °C 94 % 1019,6 hPa 0,0 mm 21,4 km/h (4 Bft) W-SW 248 ° 0 min 0,000 mm 0,0 UV-I 0 W/m² -0,5 °C -5,1 °C 29,0 km/h (5 Bft)
08.01.2019 06:35 0,3 °C 94 % 1019,6 hPa 0,0 mm 18,4 km/h (3 Bft) W 269 ° 0 min 0,000 mm 0,0 UV-I 0 W/m² -0,5 °C -4,6 °C 27,4 km/h (4 Bft)
08.01.2019 06:36 0,3 °C 94 % 1019,5 hPa 0,0 mm 18,2 km/h (3 Bft) W 269 ° 0 min 0,000 mm 0,0 UV-I 0 W/m² -0,5 °C -4,6 °C 43,5 km/h (6 Bft)
08.01.2019 06:37 0,3 °C 94 % 1019,5 hPa 0,0 mm 15,4 km/h (3 Bft) W-NW 286 ° 0 min 0,000 mm 0,0 UV-I 0 W/m² -0,5 °C -4,1 °C 20,9 km/h (4 Bft)
08.01.2019 06:38 0,4 °C 94 % 1019,5 hPa 0,0 mm 19,6 km/h (3 Bft) W 278 ° 0 min 0,000 mm 0,0 UV-I 0 W/m² -0,5 °C -4,7 °C 27,4 km/h (4 Bft)
08.01.2019 06:39 0,4 °C 94 % 1019,5 hPa 0,0 mm 20,2 km/h (4 Bft) W 265 ° 0 min 0,000 mm 0,0 UV-I 0 W/m² -0,5 °C -4,8 °C 35,4 km/h (5 Bft)
08.01.2019 06:40 0,4 °C 94 % 1019,5 hPa 0,0 mm 21,9 km/h (4 Bft) W 277 ° 0 min 0,000 mm 0,0 UV-I 0 W/m² -0,5 °C -5,0 °C 29,0 km/h (5 Bft)
08.01.2019 06:41 0,4 °C 94 % 1019,4 hPa 0,0 mm 17,3 km/h (3 Bft) W 267 ° 0 min 0,000 mm 0,0 UV-I 0 W/m² -0,5 °C -4,3 °C 24,1 km/h (4 Bft)
08.01.2019 06:42 0,4 °C 94 % 1019,4 hPa 0,0 mm 17,1 km/h (3 Bft) W 260 ° 0 min 0,000 mm 0,0 UV-I 0 W/m² -0,5 °C -4,3 °C 24,1 km/h (4 Bft)
08.01.2019 06:43 0,4 °C 94 % 1019,4 hPa 0,0 mm 16,7 km/h (3 Bft) W-NW 288 ° 0 min 0,000 mm 0,0 UV-I 0 W/m² -0,5 °C -4,2 °C 20,9 km/h (4 Bft)
08.01.2019 06:44 0,4 °C 94 % 1019,5 hPa 0,0 mm 15,0 km/h (3 Bft) W 259 ° 0 min 0,000 mm 0,0 UV-I 0 W/m² -0,5 °C -3,9 °C 22,5 km/h (4 Bft)
08.01.2019 06:45 0,5 °C 94 % 1019,4 hPa 0,0 mm 20,5 km/h (4 Bft) W 271 ° 0 min 0,000 mm 0,0 UV-I 0 W/m² -0,4 °C -4,7 °C 25,7 km/h (4 Bft)
08.01.2019 06:46 0,5 °C 94 % 1019,4 hPa 0,0 mm 19,8 km/h (3 Bft) W-SW 258 ° 0 min 0,000 mm 0,0 UV-I 0 W/m² -0,4 °C -4,6 °C 25,7 km/h (4 Bft)
08.01.2019 06:47 0,5 °C 94 % 1019,4 hPa 0,0 mm 17,7 km/h (3 Bft) W 261 ° 0 min 0,000 mm 0,0 UV-I 0 W/m² -0,4 °C -4,3 °C 30,6 km/h (5 Bft)
08.01.2019 06:48 0,5 °C 94 % 1019,4 hPa 0,0 mm 13,1 km/h (3 Bft) W 265 ° 0 min 0,000 mm 0,0 UV-I 0 W/m² -0,4 °C -3,4 °C 19,3 km/h (3 Bft)
08.01.2019 06:49 0,5 °C 94 % 1019,3 hPa 0,0 mm 17,8 km/h (3 Bft) W-SW 253 ° 0 min 0,000 mm 0,0 UV-I 0 W/m² -0,4 °C -4,3 °C 25,7 km/h (4 Bft)
08.01.2019 06:50 0,6 °C 94 % 1019,3 hPa 0,0 mm 18,3 km/h (3 Bft) W 260 ° 0 min 0,000 mm 0,0 UV-I 0 W/m² -0,3 °C -4,2 °C 29,0 km/h (5 Bft)
08.01.2019 06:51 0,6 °C 94 % 1019,3 hPa 0,0 mm 16,5 km/h (3 Bft) W 280 ° 0 min 0,000 mm 0,0 UV-I 0 W/m² -0,3 °C -3,9 °C 20,9 km/h (4 Bft)
08.01.2019 06:52 0,6 °C 94 % 1019,2 hPa 0,0 mm 19,4 km/h (3 Bft) W 261 ° 0 min 0,000 mm 0,0 UV-I 0 W/m² -0,3 °C -4,4 °C 27,4 km/h (4 Bft)
08.01.2019 06:53 0,6 °C 94 % 1019,2 hPa 0,0 mm 15,7 km/h (3 Bft) W 267 ° 0 min 0,000 mm 0,0 UV-I 0 W/m² -0,3 °C -3,8 °C 20,9 km/h (4 Bft)
08.01.2019 06:54 0,6 °C 94 % 1019,2 hPa 0,0 mm 12,8 km/h (3 Bft) W-NW 292 ° 0 min 0,000 mm 0,0 UV-I 0 W/m² -0,3 °C -3,2 °C 19,3 km/h (3 Bft)
08.01.2019 06:55 0,6 °C 94 % 1019,1 hPa 0,0 mm 18,8 km/h (3 Bft) W-SW 243 ° 0 min 0,000 mm 0,0 UV-I 0 W/m² -0,3 °C -4,3 °C 25,7 km/h (4 Bft)
08.01.2019 06:56 0,6 °C 94 % 1019,1 hPa 0,0 mm 17,0 km/h (3 Bft) W-NW 300 ° 0 min 0,000 mm 0,0 UV-I 0 W/m² -0,3 °C -4,0 °C 25,7 km/h (4 Bft)
08.01.2019 06:57 0,6 °C 94 % 1019,2 hPa 0,0 mm 20,6 km/h (4 Bft) W 265 ° 0 min 0,000 mm 0,0 UV-I 0 W/m² -0,3 °C -4,6 °C 32,2 km/h (5 Bft)
08.01.2019 06:58 0,6 °C 94 % 1019,2 hPa 0,0 mm 19,6 km/h (3 Bft) W 271 ° 0 min 0,000 mm 0,0 UV-I 0 W/m² -0,3 °C -4,4 °C 27,4 km/h (4 Bft)
08.01.2019 06:59 0,6 °C 94 % 1019,2 hPa 0,0 mm 17,3 km/h (3 Bft) W 269 ° 0 min 0,000 mm 0,0 UV-I 0 W/m² -0,3 °C -4,1 °C 22,5 km/h (4 Bft)
08.01.2019 07:00 0,6 °C 94 % 1019,3 hPa 0,0 mm 16,8 km/h (3 Bft) W 263 ° 0 min 0,000 mm 0,0 UV-I 0 W/m² -0,3 °C -4,0 °C 24,1 km/h (4 Bft)
08.01.2019 07:01 0,6 °C 94 % 1019,3 hPa 0,0 mm 15,5 km/h (3 Bft) W-SW 254 ° 0 min 0,000 mm 0,0 UV-I 0 W/m² -0,3 °C -3,8 °C 19,3 km/h (3 Bft)
08.01.2019 07:02 0,6 °C 94 % 1019,2 hPa 0,0 mm 10,9 km/h (2 Bft) W 273 ° 0 min 0,000 mm 0,0 UV-I 0 W/m² -0,3 °C -2,8 °C 16,1 km/h (3 Bft)
08.01.2019 07:03 0,6 °C 94 % 1019,2 hPa 0,0 mm 19,7 km/h (3 Bft) W 261 ° 0 min 0,000 mm 0,0 UV-I 0 W/m² -0,3 °C -4,4 °C 32,2 km/h (5 Bft)
08.01.2019 07:04 0,6 °C 94 % 1019,2 hPa 0,0 mm 16,7 km/h (3 Bft) W-NW 303 ° 0 min 0,000 mm 0,0 UV-I 0 W/m² -0,3 °C -4,0 °C 25,7 km/h (4 Bft)
08.01.2019 07:05 0,6 °C 94 % 1019,1 hPa 0,0 mm 19,1 km/h (3 Bft) W 261 ° 0 min 0,000 mm 0,0 UV-I 0 W/m² -0,3 °C -4,4 °C 25,7 km/h (4 Bft)
08.01.2019 07:06 0,6 °C 94 % 1019,1 hPa 0,0 mm 16,7 km/h (3 Bft) W-SW 247 ° 0 min 0,000 mm 0,0 UV-I 0 W/m² -0,3 °C -4,0 °C 20,9 km/h (4 Bft)
08.01.2019 07:07 0,6 °C 94 % 1019,1 hPa 0,0 mm 16,0 km/h (3 Bft) W 268 ° 0 min 0,000 mm 0,0 UV-I 0 W/m² -0,3 °C -3,9 °C 22,5 km/h (4 Bft)
08.01.2019 07:08 0,6 °C 94 % 1019,0 hPa 0,0 mm 18,7 km/h (3 Bft) W-SW 257 ° 0 min 0,000 mm 0,0 UV-I 0 W/m² -0,3 °C -4,3 °C 27,4 km/h (4 Bft)
08.01.2019 07:09 0,6 °C 94 % 1019,1 hPa 0,0 mm 19,4 km/h (3 Bft) W-SW 258 ° 0 min 0,000 mm 0,0 UV-I 0 W/m² -0,3 °C -4,4 °C 29,0 km/h (5 Bft)
08.01.2019 07:10 0,6 °C 94 % 1019,0 hPa 0,0 mm 14,0 km/h (3 Bft) W-SW 252 ° 0 min 0,000 mm 0,0 UV-I 0 W/m² -0,3 °C -3,5 °C 16,1 km/h (3 Bft)
08.01.2019 07:11 0,6 °C 94 % 1019,1 hPa 0,0 mm 18,8 km/h (3 Bft) W 281 ° 0 min 0,000 mm 0,0 UV-I 0 W/m² -0,3 °C -4,3 °C 25,7 km/h (4 Bft)
08.01.2019 07:12 0,6 °C 94 % 1019,0 hPa 0,0 mm 15,0 km/h (3 Bft) W 265 ° 0 min 0,000 mm 0,0 UV-I 0 W/m² -0,3 °C -3,7 °C 24,1 km/h (4 Bft)
08.01.2019 07:13 0,6 °C 94 % 1019,0 hPa 0,0 mm 19,9 km/h (4 Bft) W 264 ° 0 min 0,000 mm 0,0 UV-I 0 W/m² -0,3 °C -4,5 °C 33,8 km/h (5 Bft)
08.01.2019 07:14 0,6 °C 94 % 1019,1 hPa 0,0 mm 18,6 km/h (3 Bft) W-SW 257 ° 0 min 0,000 mm 0,0 UV-I 0 W/m² -0,3 °C -4,3 °C 25,7 km/h (4 Bft)
08.01.2019 07:15 0,6 °C 94 % 1019,1 hPa 0,0 mm 19,7 km/h (3 Bft) W-SW 256 ° 0 min 0,000 mm 0,0 UV-I 0 W/m² -0,3 °C -4,4 °C 32,2 km/h (5 Bft)
08.01.2019 07:16 0,6 °C 94 % 1019,0 hPa 0,0 mm 15,4 km/h (3 Bft) W-SW 246 ° 0 min 0,000 mm 0,0 UV-I 0 W/m² -0,3 °C -3,7 °C 20,9 km/h (4 Bft)
08.01.2019 07:17 0,6 °C 94 % 1018,9 hPa 0,0 mm 13,0 km/h (3 Bft) W-SW 254 ° 0 min 0,000 mm 0,0 UV-I 0 W/m² -0,3 °C -3,3 °C 19,3 km/h (3 Bft)
08.01.2019 07:18 0,6 °C 94 % 1018,9 hPa 0,0 mm 19,7 km/h (3 Bft) W-SW 248 ° 0 min 0,000 mm 0,0 UV-I 0 W/m² -0,3 °C -4,4 °C 27,4 km/h (4 Bft)
08.01.2019 07:19 0,6 °C 94 % 1019,0 hPa 0,0 mm 17,1 km/h (3 Bft) W 262 ° 0 min 0,000 mm 0,0 UV-I 0 W/m² -0,3 °C -4,0 °C 25,7 km/h (4 Bft)
08.01.2019 07:20 0,6 °C 94 % 1019,0 hPa 0,0 mm 18,4 km/h (3 Bft) W-SW 246 ° 0 min 0,000 mm 0,0 UV-I 0 W/m² -0,3 °C -4,2 °C 29,0 km/h (5 Bft)
08.01.2019 07:21 0,6 °C 94 % 1019,0 hPa 0,0 mm 16,9 km/h (3 Bft) W 278 ° 0 min 0,000 mm 0,0 UV-I 0 W/m² -0,3 °C -4,0 °C 25,7 km/h (4 Bft)
08.01.2019 07:22 0,6 °C 94 % 1019,0 hPa 0,0 mm 13,9 km/h (3 Bft) W 279 ° 0 min 0,000 mm 0,0 UV-I 0 W/m² -0,3 °C -3,5 °C 16,1 km/h (3 Bft)
08.01.2019 07:23 0,6 °C 94 % 1019,0 hPa 0,0 mm 14,7 km/h (3 Bft) W 266 ° 0 min 0,000 mm 0,0 UV-I 0 W/m² -0,3 °C -3,6 °C 20,9 km/h (4 Bft)
08.01.2019 07:24 0,6 °C 94 % 1018,9 hPa 0,0 mm 13,9 km/h (3 Bft) W 259 ° 0 min 0,000 mm 0,0 UV-I 0 W/m² -0,3 °C -3,5 °C 20,9 km/h (4 Bft)
08.01.2019 07:25 0,6 °C 94 % 1018,9 hPa 0,0 mm 13,5 km/h (3 Bft) W 259 ° 0 min 0,000 mm 0,0 UV-I 0 W/m² -0,3 °C -3,4 °C 17,7 km/h (3 Bft)
08.01.2019 07:26 0,6 °C 94 % 1018,9 hPa 0,0 mm 20,5 km/h (4 Bft) W-NW 290 ° 0 min 0,000 mm 0,0 UV-I 0 W/m² -0,3 °C -4,6 °C 29,0 km/h (5 Bft)
08.01.2019 07:27 0,6 °C 94 % 1018,8 hPa 0,0 mm 17,4 km/h (3 Bft) SW 234 ° 0 min 0,000 mm 0,0 UV-I 0 W/m² -0,3 °C -4,1 °C 24,1 km/h (4 Bft)
08.01.2019 07:28 0,6 °C 94 % 1018,8 hPa 0,0 mm 21,9 km/h (4 Bft) W-SW 256 ° 0 min 0,000 mm 0,0 UV-I 0 W/m² -0,3 °C -4,7 °C 35,4 km/h (5 Bft)
08.01.2019 07:29 0,6 °C 94 % 1018,7 hPa 0,0 mm 20,1 km/h (4 Bft) W-SW 238 ° 0 min 0,000 mm 0,0 UV-I 0 W/m² -0,3 °C -4,5 °C 29,0 km/h (5 Bft)
08.01.2019 07:30 0,6 °C 94 % 1018,8 hPa 0,0 mm 23,8 km/h (4 Bft) W 259 ° 0 min 0,000 mm 0,0 UV-I 0 W/m² -0,3 °C -5,0 °C 33,8 km/h (5 Bft)
08.01.2019 07:31 0,6 °C 94 % 1018,8 hPa 0,0 mm 17,4 km/h (3 Bft) SW 220 ° 0 min 0,000 mm 0,0 UV-I 0 W/m² -0,3 °C -4,1 °C 22,5 km/h (4 Bft)
08.01.2019 07:32 0,7 °C 94 % 1018,8 hPa 0,0 mm 16,5 km/h (3 Bft) W 265 ° 0 min 0,000 mm 0,0 UV-I 0 W/m² -0,2 °C -3,8 °C 22,5 km/h (4 Bft)
08.01.2019 07:33 0,7 °C 94 % 1018,8 hPa 0,0 mm 14,7 km/h (3 Bft) W 262 ° 0 min 0,000 mm 0,0 UV-I 0 W/m² -0,2 °C -3,5 °C 22,5 km/h (4 Bft)
08.01.2019 07:34 0,7 °C 94 % 1018,9 hPa 0,0 mm 23,3 km/h (4 Bft) W-SW 242 ° 0 min 0,000 mm 0,0 UV-I 0 W/m² -0,2 °C -4,8 °C 32,2 km/h (5 Bft)
08.01.2019 07:35 0,7 °C 94 % 1018,8 hPa 0,0 mm 17,0 km/h (3 Bft) W-SW 255 ° 0 min 0,000 mm 0,0 UV-I 0 W/m² -0,2 °C -3,9 °C 27,4 km/h (4 Bft)
08.01.2019 07:36 0,7 °C 94 % 1018,8 hPa 0,0 mm 16,5 km/h (3 Bft) W 264 ° 0 min 0,000 mm 0,0 UV-I 0 W/m² -0,2 °C -3,8 °C 24,1 km/h (4 Bft)
08.01.2019 07:37 0,7 °C 94 % 1018,7 hPa 0,0 mm 18,3 km/h (3 Bft) W-NW 289 ° 0 min 0,000 mm 0,0 UV-I 0 W/m² -0,2 °C -4,1 °C 25,7 km/h (4 Bft)
08.01.2019 07:38 0,7 °C 94 % 1018,7 hPa 0,0 mm 21,1 km/h (4 Bft) W-NW 294 ° 0 min 0,000 mm 0,0 UV-I 0 W/m² -0,2 °C -4,5 °C 29,0 km/h (5 Bft)
08.01.2019 07:39 0,7 °C 94 % 1018,7 hPa 0,0 mm 20,2 km/h (4 Bft) W 266 ° 0 min 0,000 mm 0,0 UV-I 0 W/m² -0,2 °C -4,4 °C 27,4 km/h (4 Bft)
08.01.2019 07:40 0,7 °C 94 % 1018,8 hPa 0,0 mm 20,9 km/h (4 Bft) W-SW 250 ° 0 min 0,000 mm 0,0 UV-I 0 W/m² -0,2 °C -4,5 °C 29,0 km/h (5 Bft)
08.01.2019 07:41 0,7 °C 94 % 1018,7 hPa 0,0 mm 17,6 km/h (3 Bft) NW 312 ° 0 min 0,000 mm 0,0 UV-I 0 W/m² -0,2 °C -4,0 °C 25,7 km/h (4 Bft)
08.01.2019 07:42 0,7 °C 94 % 1018,8 hPa 0,0 mm 18,7 km/h (3 Bft) W 260 ° 0 min 0,000 mm 0,0 UV-I 0 W/m² -0,2 °C -4,2 °C 24,1 km/h (4 Bft)
08.01.2019 07:43 0,7 °C 94 % 1018,8 hPa 0,0 mm 20,4 km/h (4 Bft) W 273 ° 0 min 0,000 mm 0,0 UV-I 0 W/m² -0,2 °C -4,4 °C 33,8 km/h (5 Bft)
08.01.2019 07:44 0,7 °C 94 % 1018,8 hPa 0,0 mm 17,4 km/h (3 Bft) W 279 ° 0 min 0,000 mm 0,0 UV-I 0 W/m² -0,2 °C -4,0 °C 25,7 km/h (4 Bft)
08.01.2019 07:45 0,7 °C 94 % 1018,7 hPa 0,0 mm 18,0 km/h (3 Bft) W 261 ° 0 min 0,000 mm 0,0 UV-I 0 W/m² -0,2 °C -4,1 °C 27,4 km/h (4 Bft)
08.01.2019 07:46 0,7 °C 94 % 1018,7 hPa 0,0 mm 16,1 km/h (3 Bft) W 267 ° 0 min 0,000 mm 0,0 UV-I 0 W/m² -0,2 °C -3,7 °C 20,9 km/h (4 Bft)
08.01.2019 07:47 0,7 °C 94 % 1018,7 hPa 0,0 mm 19,8 km/h (3 Bft) W 269 ° 0 min 0,000 mm 0,0 UV-I 0 W/m² -0,2 °C -4,3 °C 25,7 km/h (4 Bft)
08.01.2019 07:48 0,7 °C 94 % 1018,7 hPa 0,0 mm 19,8 km/h (3 Bft) W-SW 242 ° 0 min 0,000 mm 0,0 UV-I 0 W/m² -0,2 °C -4,3 °C 25,7 km/h (4 Bft)
08.01.2019 07:49 0,7 °C 94 % 1018,7 hPa 0,0 mm 16,8 km/h (3 Bft) W 259 ° 0 min 0,000 mm 0,0 UV-I 0 W/m² -0,2 °C -3,9 °C 22,5 km/h (4 Bft)
08.01.2019 07:50 0,7 °C 94 % 1018,7 hPa 0,0 mm 20,9 km/h (4 Bft) W-SW 252 ° 0 min 0,000 mm 0,0 UV-I 0 W/m² -0,2 °C -4,5 °C 25,7 km/h (4 Bft)
08.01.2019 07:51 0,7 °C 94 % 1018,7 hPa 0,0 mm 16,5 km/h (3 Bft) W-NW 288 ° 0 min 0,000 mm 0,0 UV-I 0 W/m² -0,2 °C -3,8 °C 25,7 km/h (4 Bft)
08.01.2019 07:52 0,7 °C 94 % 1018,7 hPa 0,0 mm 16,8 km/h (3 Bft) W-NW 284 ° 0 min 0,000 mm 0,0 UV-I 0 W/m² -0,2 °C -3,9 °C 24,1 km/h (4 Bft)
08.01.2019 07:53 0,7 °C 94 % 1018,7 hPa 0,0 mm 16,7 km/h (3 Bft) W-SW 248 ° 0 min 0,000 mm 0,0 UV-I 0 W/m² -0,2 °C -3,8 °C 22,5 km/h (4 Bft)
08.01.2019 07:54 0,7 °C 94 % 1018,7 hPa 0,0 mm 15,4 km/h (3 Bft) W-SW 254 ° 0 min 0,000 mm 0,0 UV-I 0 W/m² -0,2 °C -3,6 °C 20,9 km/h (4 Bft)
08.01.2019 07:55 0,7 °C 94 % 1018,7 hPa 0,0 mm 10,9 km/h (2 Bft) W 280 ° 0 min 0,000 mm 0,0 UV-I 0 W/m² -0,2 °C -2,7 °C 20,9 km/h (4 Bft)
08.01.2019 07:56 0,7 °C 94 % 1018,7 hPa 0,0 mm 13,0 km/h (3 Bft) W 260 ° 0 min 0,000 mm 0,0 UV-I 0 W/m² -0,2 °C -3,2 °C 19,3 km/h (3 Bft)
08.01.2019 07:57 0,7 °C 94 % 1018,6 hPa 0,0 mm 17,7 km/h (3 Bft) W 276 ° 0 min 0,000 mm 0,0 UV-I 0 W/m² -0,2 °C -4,0 °C 20,9 km/h (4 Bft)
08.01.2019 07:58 0,7 °C 94 % 1018,6 hPa 0,0 mm 17,4 km/h (3 Bft) W-NW 286 ° 0 min 0,000 mm 0,0 UV-I 0 W/m² -0,2 °C -4,0 °C 22,5 km/h (4 Bft)
08.01.2019 07:59 0,7 °C 94 % 1018,6 hPa 0,0 mm 14,3 km/h (3 Bft) W 263 ° 0 min 0,000 mm 0,0 UV-I 0 W/m² -0,2 °C -3,4 °C 17,7 km/h (3 Bft)
08.01.2019 08:00 0,7 °C 94 % 1018,6 hPa 0,0 mm 16,7 km/h (3 Bft) W 267 ° 0 min 0,000 mm 0,0 UV-I 0 W/m² -0,2 °C -3,8 °C 19,3 km/h (3 Bft)
08.01.2019 08:01 0,7 °C 94 % 1018,6 hPa 0,0 mm 17,6 km/h (3 Bft) SW 232 ° 0 min 0,000 mm 0,0 UV-I 0 W/m² -0,2 °C -4,0 °C 22,5 km/h (4 Bft)
08.01.2019 08:02 0,7 °C 94 % 1018,6 hPa 0,0 mm 14,6 km/h (3 Bft) W 263 ° 0 min 0,000 mm 0,0 UV-I 0 W/m² -0,2 °C -3,5 °C 19,3 km/h (3 Bft)
08.01.2019 08:03 0,7 °C 94 % 1018,6 hPa 0,0 mm 11,7 km/h (2 Bft) W-SW 248 ° 0 min 0,000 mm 0,0 UV-I 0 W/m² -0,2 °C -2,9 °C 17,7 km/h (3 Bft)
08.01.2019 08:04 0,7 °C 94 % 1018,6 hPa 0,0 mm 16,3 km/h (3 Bft) W-SW 254 ° 0 min 0,000 mm 0,0 UV-I 0 W/m² -0,2 °C -3,8 °C 20,9 km/h (4 Bft)
08.01.2019 08:05 0,7 °C 94 % 1018,6 hPa 0,0 mm 18,0 km/h (3 Bft) W 264 ° 0 min 0,000 mm 0,0 UV-I 0 W/m² -0,2 °C -4,1 °C 24,1 km/h (4 Bft)
08.01.2019 08:06 0,7 °C 94 % 1018,6 hPa 0,0 mm 13,5 km/h (3 Bft) W 273 ° 0 min 0,000 mm 0,0 UV-I 0 W/m² -0,2 °C -3,3 °C 16,1 km/h (3 Bft)
08.01.2019 08:07 0,7 °C 94 % 1018,6 hPa 0,0 mm 13,6 km/h (3 Bft) W-SW 256 ° 0 min 0,000 mm 0,0 UV-I 0 W/m² -0,2 °C -3,3 °C 29,0 km/h (5 Bft)
08.01.2019 08:08 0,7 °C 94 % 1018,6 hPa 0,0 mm 16,2 km/h (3 Bft) W 268 ° 0 min 0,000 mm 0,0 UV-I 0 W/m² -0,2 °C -3,8 °C 25,7 km/h (4 Bft)
08.01.2019 08:09 0,7 °C 94 % 1018,7 hPa 0,0 mm 17,4 km/h (3 Bft) W-SW 254 ° 0 min 0,000 mm 0,0 UV-I 0 W/m² -0,2 °C -4,0 °C 25,7 km/h (4 Bft)
08.01.2019 08:10 0,7 °C 94 % 1018,7 hPa 0,0 mm 19,0 km/h (3 Bft) W-SW 245 ° 0 min 0,000 mm 0,0 UV-I 0 W/m² -0,2 °C -4,2 °C 27,4 km/h (4 Bft)
08.01.2019 08:11 0,7 °C 94 % 1018,6 hPa 0,0 mm 17,2 km/h (3 Bft) W 264 ° 0 min 0,000 mm 0,0 UV-I 0 W/m² -0,2 °C -3,9 °C 22,5 km/h (4 Bft)
08.01.2019 08:12 0,7 °C 94 % 1018,6 hPa 0,0 mm 13,5 km/h (3 Bft) W 274 ° 0 min 0,000 mm 0,0 UV-I 0 W/m² -0,2 °C -3,3 °C 19,3 km/h (3 Bft)
08.01.2019 08:13 0,7 °C 94 % 1018,6 hPa 0,0 mm 11,0 km/h (2 Bft) W-NW 283 ° 0 min 0,000 mm 0,0 UV-I 0 W/m² -0,2 °C -2,7 °C 16,1 km/h (3 Bft)
08.01.2019 08:14 0,7 °C 94 % 1018,6 hPa 0,0 mm 17,2 km/h (3 Bft) W-SW 247 ° 0 min 0,000 mm 0,0 UV-I 0 W/m² -0,2 °C -3,9 °C 24,1 km/h (4 Bft)
08.01.2019 08:15 0,7 °C 94 % 1018,5 hPa 0,0 mm 15,5 km/h (3 Bft) W 274 ° 0 min 0,000 mm 0,0 UV-I 0 W/m² -0,2 °C -3,6 °C 20,9 km/h (4 Bft)
08.01.2019 08:16 0,7 °C 94 % 1018,5 hPa 0,0 mm 13,6 km/h (3 Bft) W 262 ° 0 min 0,000 mm 0,0 UV-I 0 W/m² -0,2 °C -3,3 °C 19,3 km/h (3 Bft)
08.01.2019 08:17 0,7 °C 94 % 1018,5 hPa 0,0 mm 18,1 km/h (3 Bft) W 275 ° 0 min 0,000 mm 0,0 UV-I 0 W/m² -0,2 °C -4,1 °C 27,4 km/h (4 Bft)
08.01.2019 08:18 0,7 °C 94 % 1018,5 hPa 0,0 mm 14,5 km/h (3 Bft) W 260 ° 0 min 0,000 mm 0,0 UV-I 0 W/m² -0,2 °C -3,5 °C 19,3 km/h (3 Bft)
08.01.2019 08:19 0,7 °C 94 % 1018,5 hPa 0,0 mm 15,6 km/h (3 Bft) W-SW 250 ° 0 min 0,000 mm 0,0 UV-I 0 W/m² -0,2 °C -3,7 °C 22,5 km/h (4 Bft)
08.01.2019 08:20 0,7 °C 94 % 1018,5 hPa 0,0 mm 18,9 km/h (3 Bft) W 259 ° 0 min 0,000 mm 0,0 UV-I 0 W/m² -0,2 °C -4,2 °C 32,2 km/h (5 Bft)
08.01.2019 08:21 0,7 °C 94 % 1018,5 hPa 0,0 mm 14,7 km/h (3 Bft) W-SW 257 ° 0 min 0,000 mm 0,0 UV-I 0 W/m² -0,2 °C -3,5 °C 22,5 km/h (4 Bft)
08.01.2019 08:22 0,7 °C 94 % 1018,5 hPa 0,0 mm 13,6 km/h (3 Bft) W 260 ° 0 min 0,000 mm 0,0 UV-I 0 W/m² -0,2 °C -3,3 °C 20,9 km/h (4 Bft)
08.01.2019 08:23 0,7 °C 94 % 1018,5 hPa 0,0 mm 14,8 km/h (3 Bft) W-SW 256 ° 0 min 0,000 mm 0,0 UV-I 0 W/m² -0,2 °C -3,5 °C 17,7 km/h (3 Bft)
08.01.2019 08:24 0,7 °C 94 % 1018,5 hPa 0,0 mm 14,3 km/h (3 Bft) W-NW 284 ° 0 min 0,000 mm 0,0 UV-I 0 W/m² -0,2 °C -3,4 °C 19,3 km/h (3 Bft)
08.01.2019 08:25 0,7 °C 94 % 1018,5 hPa 0,0 mm 16,3 km/h (3 Bft) W 262 ° 0 min 0,000 mm 0,0 UV-I 0 W/m² -0,2 °C -3,8 °C 25,7 km/h (4 Bft)
08.01.2019 08:26 0,7 °C 94 % 1018,5 hPa 0,0 mm 12,3 km/h (3 Bft) W-SW 248 ° 0 min 0,000 mm 0,0 UV-I 0 W/m² -0,2 °C -3,0 °C 16,1 km/h (3 Bft)
08.01.2019 08:27 0,7 °C 94 % 1018,4 hPa 0,0 mm 17,0 km/h (3 Bft) W 278 ° 0 min 0,000 mm 0,0 UV-I 0 W/m² -0,2 °C -3,9 °C 25,7 km/h (4 Bft)
08.01.2019 08:28 0,7 °C 94 % 1018,4 hPa 0,0 mm 18,1 km/h (3 Bft) W-SW 242 ° 0 min 0,000 mm 0,0 UV-I 0 W/m² -0,2 °C -4,1 °C 25,7 km/h (4 Bft)
08.01.2019 08:29 0,7 °C 94 % 1018,4 hPa 0,0 mm 16,4 km/h (3 Bft) W 275 ° 0 min 0,000 mm 0,0 UV-I 0 W/m² -0,2 °C -3,8 °C 25,7 km/h (4 Bft)
08.01.2019 08:30 0,7 °C 94 % 1018,4 hPa 0,0 mm 17,0 km/h (3 Bft) W 267 ° 0 min 0,000 mm 0,0 UV-I 0 W/m² -0,2 °C -3,9 °C 22,5 km/h (4 Bft)
08.01.2019 08:31 0,7 °C 94 % 1018,4 hPa 0,0 mm 15,0 km/h (3 Bft) W 271 ° 0 min 0,000 mm 0,0 UV-I 0 W/m² -0,2 °C -3,6 °C 20,9 km/h (4 Bft)
08.01.2019 08:32 0,7 °C 94 % 1018,4 hPa 0,0 mm 17,3 km/h (3 Bft) W 281 ° 0 min 0,000 mm 0,0 UV-I 0 W/m² -0,2 °C -3,9 °C 22,5 km/h (4 Bft)
08.01.2019 08:33 0,7 °C 94 % 1018,3 hPa 0,0 mm 12,3 km/h (3 Bft) W-SW 255 ° 0 min 0,000 mm 0,0 UV-I 0 W/m² -0,2 °C -3,0 °C 16,1 km/h (3 Bft)
08.01.2019 08:34 0,7 °C 94 % 1018,4 hPa 0,0 mm 17,8 km/h (3 Bft) W 259 ° 0 min 0,000 mm 0,0 UV-I 0 W/m² -0,2 °C -4,0 °C 22,5 km/h (4 Bft)
08.01.2019 08:35 0,7 °C 94 % 1018,5 hPa 0,0 mm 16,3 km/h (3 Bft) W-NW 284 ° 0 min 0,000 mm 0,0 UV-I 0 W/m² -0,2 °C -3,8 °C 22,5 km/h (4 Bft)
08.01.2019 08:36 0,7 °C 94 % 1018,4 hPa 0,0 mm 12,7 km/h (3 Bft) W-SW 250 ° 0 min 0,000 mm 0,0 UV-I 0 W/m² -0,2 °C -3,1 °C 16,1 km/h (3 Bft)
08.01.2019 08:37 0,7 °C 94 % 1018,5 hPa 0,0 mm 16,9 km/h (3 Bft) W-SW 241 ° 0 min 0,000 mm 0,0 UV-I 5 W/m² -0,2 °C -3,9 °C 20,9 km/h (4 Bft)
08.01.2019 08:38 0,7 °C 94 % 1018,5 hPa 0,0 mm 15,8 km/h (3 Bft) W 265 ° 0 min 0,000 mm 0,0 UV-I 5 W/m² -0,2 °C -3,7 °C 20,9 km/h (4 Bft)
08.01.2019 08:39 0,7 °C 94 % 1018,4 hPa 0,0 mm 20,4 km/h (4 Bft) W 269 ° 0 min 0,000 mm 0,0 UV-I 5 W/m² -0,2 °C -4,4 °C 25,7 km/h (4 Bft)
08.01.2019 08:40 0,8 °C 94 % 1018,3 hPa 0,0 mm 14,2 km/h (3 Bft) W-SW 252 ° 0 min 0,000 mm 0,0 UV-I 5 W/m² -0,1 °C -3,3 °C 20,9 km/h (4 Bft)
08.01.2019 08:41 0,8 °C 94 % 1018,3 hPa 0,0 mm 19,6 km/h (3 Bft) W-SW 256 ° 0 min 0,000 mm 0,0 UV-I 5 W/m² -0,1 °C -4,2 °C 25,7 km/h (4 Bft)
08.01.2019 08:42 0,8 °C 94 % 1018,4 hPa 0,0 mm 18,3 km/h (3 Bft) W-SW 254 ° 0 min 0,000 mm 0,0 UV-I 5 W/m² -0,1 °C -4,0 °C 22,5 km/h (4 Bft)
08.01.2019 08:43 0,8 °C 94 % 1018,4 hPa 0,0 mm 23,3 km/h (4 Bft) W 271 ° 0 min 0,000 mm 0,0 UV-I 0 W/m² -0,1 °C -4,7 °C 29,0 km/h (5 Bft)
08.01.2019 08:44 0,8 °C 94 % 1018,4 hPa 0,0 mm 19,1 km/h (3 Bft) W 262 ° 0 min 0,000 mm 0,0 UV-I 0 W/m² -0,1 °C -4,1 °C 25,7 km/h (4 Bft)
08.01.2019 08:45 0,8 °C 94 % 1018,5 hPa 0,0 mm 19,0 km/h (3 Bft) W 263 ° 0 min 0,000 mm 0,0 UV-I 0 W/m² -0,1 °C -4,1 °C 27,4 km/h (4 Bft)
08.01.2019 08:46 0,8 °C 94 % 1018,4 hPa 0,0 mm 14,9 km/h (3 Bft) W-SW 257 ° 0 min 0,000 mm 0,0 UV-I 0 W/m² -0,1 °C -3,4 °C 20,9 km/h (4 Bft)
08.01.2019 08:47 0,8 °C 94 % 1018,4 hPa 0,0 mm 16,4 km/h (3 Bft) W 267 ° 0 min 0,000 mm 0,0 UV-I 0 W/m² -0,1 °C -3,7 °C 20,9 km/h (4 Bft)
08.01.2019 08:48 0,8 °C 94 % 1018,3 hPa 0,0 mm 16,1 km/h (3 Bft) SW 231 ° 0 min 0,000 mm 0,0 UV-I 0 W/m² -0,1 °C -3,6 °C 22,5 km/h (4 Bft)
08.01.2019 08:49 0,8 °C 94 % 1018,3 hPa 0,0 mm 17,8 km/h (3 Bft) W 265 ° 0 min 0,000 mm 0,0 UV-I 0 W/m² -0,1 °C -3,9 °C 35,4 km/h (5 Bft)
08.01.2019 08:50 0,8 °C 94 % 1018,3 hPa 0,0 mm 21,4 km/h (4 Bft) W-SW 244 ° 0 min 0,000 mm 0,0 UV-I 0 W/m² -0,1 °C -4,4 °C 37,0 km/h (5 Bft)
08.01.2019 08:51 0,8 °C 94 % 1018,4 hPa 0,0 mm 19,6 km/h (3 Bft) W-SW 244 ° 0 min 0,000 mm 0,0 UV-I 0 W/m² -0,1 °C -4,2 °C 29,0 km/h (5 Bft)
08.01.2019 08:52 0,8 °C 94 % 1018,3 hPa 0,0 mm 19,8 km/h (3 Bft) W-SW 252 ° 0 min 0,000 mm 0,0 UV-I 0 W/m² -0,1 °C -4,2 °C 27,4 km/h (4 Bft)
08.01.2019 08:53 0,8 °C 94 % 1018,3 hPa 0,0 mm 15,9 km/h (3 Bft) W 278 ° 0 min 0,000 mm 0,0 UV-I 0 W/m² -0,1 °C -3,6 °C 24,1 km/h (4 Bft)
08.01.2019 08:54 0,8 °C 94 % 1018,4 hPa 0,0 mm 20,7 km/h (4 Bft) W 266 ° 0 min 0,000 mm 0,0 UV-I 0 W/m² -0,1 °C -4,3 °C 33,8 km/h (5 Bft)
08.01.2019 08:55 0,8 °C 95 % 1018,4 hPa 0,0 mm 16,6 km/h (3 Bft) W 259 ° 0 min 0,000 mm 0,0 UV-I 0 W/m² 0,1 °C -3,7 °C 29,0 km/h (5 Bft)
08.01.2019 08:56 0,8 °C 94 % 1018,3 hPa 0,0 mm 15,2 km/h (3 Bft) W-SW 253 ° 0 min 0,000 mm 0,0 UV-I 0 W/m² -0,1 °C -3,5 °C 20,9 km/h (4 Bft)
08.01.2019 08:57 0,8 °C 94 % 1018,2 hPa 0,0 mm 17,8 km/h (3 Bft) W-SW 251 ° 0 min 0,000 mm 0,0 UV-I 0 W/m² -0,1 °C -3,9 °C 25,7 km/h (4 Bft)
08.01.2019 08:58 0,8 °C 94 % 1018,3 hPa 0,0 mm 13,5 km/h (3 Bft) W 265 ° 0 min 0,000 mm 0,0 UV-I 0 W/m² -0,1 °C -3,1 °C 19,3 km/h (3 Bft)
08.01.2019 08:59 0,8 °C 95 % 1018,3 hPa 0,0 mm 13,0 km/h (3 Bft) W 273 ° 0 min 0,000 mm 0,0 UV-I 0 W/m² 0,1 °C -3,0 °C 17,7 km/h (3 Bft)
08.01.2019 09:00 0,8 °C 94 % 1018,2 hPa 0,0 mm 18,8 km/h (3 Bft) W 270 ° 0 min 0,000 mm 0,0 UV-I 0 W/m² -0,1 °C -4,1 °C 30,6 km/h (5 Bft)
08.01.2019 09:01 0,8 °C 94 % 1018,2 hPa 0,0 mm 19,2 km/h (3 Bft) W-NW 300 ° 0 min 0,000 mm 0,0 UV-I 0 W/m² -0,1 °C -4,1 °C 29,0 km/h (5 Bft)
08.01.2019 09:02 0,8 °C 95 % 1018,2 hPa 0,0 mm 24,3 km/h (4 Bft) W 261 ° 0 min 0,000 mm 0,0 UV-I 0 W/m² 0,1 °C -4,8 °C 30,6 km/h (5 Bft)
08.01.2019 09:03 0,8 °C 94 % 1018,1 hPa 0,0 mm 19,2 km/h (3 Bft) W-SW 254 ° 0 min 0,000 mm 0,0 UV-I 0 W/m² -0,1 °C -4,1 °C 25,7 km/h (4 Bft)
08.01.2019 09:04 0,8 °C 94 % 1018,2 hPa 0,0 mm 14,3 km/h (3 Bft) W-SW 257 ° 0 min 0,000 mm 0,0 UV-I 0 W/m² -0,1 °C -3,3 °C 20,9 km/h (4 Bft)
08.01.2019 09:05 0,8 °C 94 % 1018,3 hPa 0,0 mm 13,0 km/h (3 Bft) W 262 ° 0 min 0,000 mm 0,0 UV-I 0 W/m² -0,1 °C -3,0 °C 22,5 km/h (4 Bft)
08.01.2019 09:06 0,8 °C 94 % 1018,3 hPa 0,0 mm 13,1 km/h (3 Bft) W 269 ° 0 min 0,000 mm 0,0 UV-I 0 W/m² -0,1 °C -3,1 °C 19,3 km/h (3 Bft)
08.01.2019 09:07 0,8 °C 94 % 1018,3 hPa 0,0 mm 17,8 km/h (3 Bft) W 259 ° 0 min 0,000 mm 0,0 UV-I 0 W/m² -0,1 °C -3,9 °C 25,7 km/h (4 Bft)
08.01.2019 09:08 0,8 °C 94 % 1018,3 hPa 0,0 mm 16,4 km/h (3 Bft) W 279 ° 0 min 0,000 mm 0,0 UV-I 5 W/m² -0,1 °C -3,7 °C 22,5 km/h (4 Bft)
08.01.2019 09:09 0,8 °C 94 % 1018,4 hPa 0,0 mm 20,3 km/h (4 Bft) W 270 ° 0 min 0,000 mm 0,0 UV-I 5 W/m² -0,1 °C -4,3 °C 29,0 km/h (5 Bft)
08.01.2019 09:10 0,8 °C 95 % 1018,2 hPa 0,0 mm 20,6 km/h (4 Bft) W 259 ° 0 min 0,000 mm 0,0 UV-I 5 W/m² 0,1 °C -4,3 °C 29,0 km/h (5 Bft)
08.01.2019 09:11 0,8 °C 95 % 1018,2 hPa 0,0 mm 17,2 km/h (3 Bft) W 269 ° 0 min 0,000 mm 0,0 UV-I 7 W/m² 0,1 °C -3,8 °C 27,4 km/h (4 Bft)
08.01.2019 09:12 0,8 °C 95 % 1018,3 hPa 0,0 mm 18,2 km/h (3 Bft) W 262 ° 0 min 0,000 mm 0,0 UV-I 7 W/m² 0,1 °C -4,0 °C 24,1 km/h (4 Bft)
08.01.2019 09:13 0,8 °C 95 % 1018,2 hPa 0,0 mm 17,8 km/h (3 Bft) W-SW 254 ° 0 min 0,000 mm 0,0 UV-I 7 W/m² 0,1 °C -3,9 °C 29,0 km/h (5 Bft)
08.01.2019 09:14 0,8 °C 95 % 1018,4 hPa 0,0 mm 10,6 km/h (2 Bft) W 275 ° 0 min 0,000 mm 0,0 UV-I 7 W/m² 0,1 °C -2,5 °C 16,1 km/h (3 Bft)
08.01.2019 09:15 0,8 °C 95 % 1018,2 hPa 0,0 mm 12,9 km/h (3 Bft) NW 304 ° 0 min 0,000 mm 0,0 UV-I 7 W/m² 0,1 °C -3,0 °C 20,9 km/h (4 Bft)
08.01.2019 09:16 0,8 °C 95 % 1018,2 hPa 0,0 mm 20,2 km/h (4 Bft) W-NW 284 ° 0 min 0,000 mm 0,0 UV-I 9 W/m² 0,1 °C -4,3 °C 25,7 km/h (4 Bft)
08.01.2019 09:17 0,9 °C 95 % 1018,3 hPa 0,0 mm 21,1 km/h (4 Bft) W 265 ° 0 min 0,000 mm 0,0 UV-I 9 W/m² 0,2 °C -4,3 °C 29,0 km/h (5 Bft)
08.01.2019 09:18 0,9 °C 95 % 1018,2 hPa 0,0 mm 23,0 km/h (4 Bft) W-SW 248 ° 0 min 0,000 mm 0,0 UV-I 11 W/m² 0,2 °C -4,5 °C 33,8 km/h (5 Bft)
08.01.2019 09:19 0,9 °C 95 % 1018,2 hPa 0,0 mm 23,9 km/h (4 Bft) W-NW 298 ° 0 min 0,000 mm 0,0 UV-I 11 W/m² 0,2 °C -4,6 °C 32,2 km/h (5 Bft)
08.01.2019 09:20 0,9 °C 95 % 1018,2 hPa 0,0 mm 22,2 km/h (4 Bft) W 279 ° 0 min 0,000 mm 0,0 UV-I 11 W/m² 0,2 °C -4,4 °C 38,6 km/h (5 Bft)
08.01.2019 09:21 0,9 °C 95 % 1018,3 hPa 0,0 mm 18,4 km/h (3 Bft) W-SW 250 ° 0 min 0,000 mm 0,0 UV-I 9 W/m² 0,2 °C -3,9 °C 25,7 km/h (4 Bft)
08.01.2019 09:22 0,9 °C 95 % 1018,4 hPa 0,0 mm 13,8 km/h (3 Bft) W 273 ° 0 min 0,000 mm 0,0 UV-I 7 W/m² 0,2 °C -3,1 °C 20,9 km/h (4 Bft)
08.01.2019 09:23 0,9 °C 95 % 1018,2 hPa 0,0 mm 14,5 km/h (3 Bft) W 277 ° 0 min 0,000 mm 0,0 UV-I 7 W/m² 0,2 °C -3,2 °C 20,9 km/h (4 Bft)
08.01.2019 09:24 0,9 °C 95 % 1018,2 hPa 0,0 mm 13,9 km/h (3 Bft) SW 225 ° 0 min 0,000 mm 0,0 UV-I 7 W/m² 0,2 °C -3,1 °C 27,4 km/h (4 Bft)
08.01.2019 09:25 0,9 °C 95 % 1018,4 hPa 0,0 mm 21,2 km/h (4 Bft) W 273 ° 0 min 0,000 mm 0,0 UV-I 5 W/m² 0,2 °C -4,3 °C 30,6 km/h (5 Bft)
08.01.2019 09:26 0,9 °C 95 % 1018,3 hPa 0,0 mm 20,7 km/h (4 Bft) W 277 ° 0 min 0,000 mm 0,0 UV-I 7 W/m² 0,2 °C -4,2 °C 30,6 km/h (5 Bft)
08.01.2019 09:27 0,9 °C 95 % 1018,3 hPa 0,0 mm 18,9 km/h (3 Bft) SW 232 ° 0 min 0,000 mm 0,0 UV-I 7 W/m² 0,2 °C -3,9 °C 27,4 km/h (4 Bft)
08.01.2019 09:28 0,9 °C 94 % 1018,3 hPa 0,0 mm 19,6 km/h (3 Bft) W 278 ° 0 min 0,000 mm 0,0 UV-I 7 W/m² 0,0 °C -4,0 °C 30,6 km/h (5 Bft)
08.01.2019 09:29 0,9 °C 95 % 1018,3 hPa 0,0 mm 22,2 km/h (4 Bft) W-SW 252 ° 0 min 0,000 mm 0,0 UV-I 9 W/m² 0,2 °C -4,4 °C 33,8 km/h (5 Bft)
08.01.2019 09:30 0,9 °C 95 % 1018,1 hPa 0,0 mm 21,8 km/h (4 Bft) W-SW 247 ° 0 min 0,000 mm 0,0 UV-I 9 W/m² 0,2 °C -4,4 °C 30,6 km/h (5 Bft)
08.01.2019 09:31 0,9 °C 95 % 1018,3 hPa 0,0 mm 20,8 km/h (4 Bft) W-SW 250 ° 0 min 0,000 mm 0,0 UV-I 7 W/m² 0,2 °C -4,2 °C 25,7 km/h (4 Bft)
08.01.2019 09:32 0,9 °C 94 % 1018,3 hPa 0,0 mm 19,8 km/h (3 Bft) W-SW 255 ° 0 min 0,000 mm 0,0 UV-I 9 W/m² 0,0 °C -4,1 °C 30,6 km/h (5 Bft)
08.01.2019 09:33 0,9 °C 94 % 1018,4 hPa 0,0 mm 18,1 km/h (3 Bft) W-SW 252 ° 0 min 0,000 mm 0,0 UV-I 9 W/m² 0,0 °C -3,8 °C 30,6 km/h (5 Bft)
08.01.2019 09:34 0,9 °C 94 % 1018,4 hPa 0,0 mm 18,8 km/h (3 Bft) NW 316 ° 0 min 0,000 mm 0,0 UV-I 9 W/m² 0,0 °C -3,9 °C 27,4 km/h (4 Bft)
08.01.2019 09:35 0,9 °C 94 % 1018,2 hPa 0,0 mm 26,5 km/h (4 Bft) W-NW 292 ° 0 min 0,000 mm 0,0 UV-I 9 W/m² 0,0 °C -4,9 °C 41,8 km/h (6 Bft)
08.01.2019 09:36 0,9 °C 94 % 1018,4 hPa 0,0 mm 21,1 km/h (4 Bft) W-SW 258 ° 0 min 0,000 mm 0,0 UV-I 9 W/m² 0,0 °C -4,3 °C 29,0 km/h (5 Bft)
08.01.2019 09:37 0,9 °C 95 % 1018,4 hPa 0,0 mm 18,9 km/h (3 Bft) W 267 ° 0 min 0,000 mm 0,0 UV-I 9 W/m² 0,2 °C -3,9 °C 27,4 km/h (4 Bft)
08.01.2019 09:38 1,0 °C 94 % 1018,3 hPa 0,0 mm 24,2 km/h (4 Bft) W-NW 298 ° 0 min 0,000 mm 0,0 UV-I 9 W/m² 0,1 °C -4,5 °C 33,8 km/h (5 Bft)
08.01.2019 09:39 1,0 °C 94 % 1018,3 hPa 0,0 mm 14,9 km/h (3 Bft) W-NW 300 ° 0 min 0,000 mm 0,0 UV-I 7 W/m² 0,1 °C -3,2 °C 20,9 km/h (4 Bft)
08.01.2019 09:40 1,0 °C 94 % 1018,3 hPa 0,0 mm 13,1 km/h (3 Bft) W 259 ° 0 min 0,000 mm 0,0 UV-I 7 W/m² 0,1 °C -2,8 °C 20,9 km/h (4 Bft)
08.01.2019 09:41 1,0 °C 94 % 1018,3 hPa 0,0 mm 21,8 km/h (4 Bft) W-SW 250 ° 0 min 0,000 mm 0,0 UV-I 7 W/m² 0,1 °C -4,2 °C 29,0 km/h (5 Bft)
08.01.2019 09:42 1,0 °C 94 % 1018,3 hPa 0,0 mm 16,7 km/h (3 Bft) W 269 ° 0 min 0,000 mm 0,0 UV-I 7 W/m² 0,1 °C -3,5 °C 25,7 km/h (4 Bft)
08.01.2019 09:43 0,9 °C 94 % 1018,4 hPa 0,0 mm 19,1 km/h (3 Bft) W 266 ° 0 min 0,000 mm 0,0 UV-I 9 W/m² 0,0 °C -4,0 °C 22,5 km/h (4 Bft)
08.01.2019 09:44 1,0 °C 94 % 1018,5 hPa 0,0 mm 19,0 km/h (3 Bft) W 273 ° 0 min 0,000 mm 0,0 UV-I 9 W/m² 0,1 °C -3,8 °C 24,1 km/h (4 Bft)
08.01.2019 09:45 1,0 °C 94 % 1018,5 hPa 0,0 mm 19,0 km/h (3 Bft) W-SW 252 ° 0 min 0,000 mm 0,0 UV-I 9 W/m² 0,1 °C -3,8 °C 25,7 km/h (4 Bft)
08.01.2019 09:46 1,0 °C 94 % 1018,5 hPa 0,0 mm 20,0 km/h (4 Bft) W 264 ° 0 min 0,000 mm 0,0 UV-I 9 W/m² 0,1 °C -4,0 °C 29,0 km/h (5 Bft)
08.01.2019 09:47 1,0 °C 94 % 1018,4 hPa 0,0 mm 17,1 km/h (3 Bft) W-NW 299 ° 0 min 0,000 mm 0,0 UV-I 9 W/m² 0,1 °C -3,5 °C 30,6 km/h (5 Bft)
08.01.2019 09:48 1,0 °C 94 % 1018,5 hPa 0,0 mm 18,6 km/h (3 Bft) W-NW 290 ° 0 min 0,000 mm 0,0 UV-I 9 W/m² 0,1 °C -3,8 °C 25,7 km/h (4 Bft)
08.01.2019 09:49 1,0 °C 94 % 1018,4 hPa 0,0 mm 16,7 km/h (3 Bft) W-NW 287 ° 0 min 0,000 mm 0,0 UV-I 7 W/m² 0,1 °C -3,5 °C 20,9 km/h (4 Bft)
08.01.2019 09:50 1,0 °C 94 % 1018,5 hPa 0,0 mm 14,9 km/h (3 Bft) W 265 ° 0 min 0,000 mm 0,0 UV-I 9 W/m² 0,1 °C -3,2 °C 22,5 km/h (4 Bft)
08.01.2019 09:51 1,0 °C 94 % 1018,4 hPa 0,0 mm 13,8 km/h (3 Bft) W-SW 243 ° 0 min 0,000 mm 0,0 UV-I 9 W/m² 0,1 °C -3,0 °C 20,9 km/h (4 Bft)
08.01.2019 09:52 1,0 °C 94 % 1018,5 hPa 0,0 mm 17,4 km/h (3 Bft) W 267 ° 0 min 0,000 mm 0,0 UV-I 9 W/m² 0,1 °C -3,6 °C 22,5 km/h (4 Bft)
08.01.2019 09:53 1,0 °C 94 % 1018,5 hPa 0,0 mm 21,1 km/h (4 Bft) W 271 ° 0 min 0,000 mm 0,0 UV-I 9 W/m² 0,1 °C -4,1 °C 33,8 km/h (5 Bft)
08.01.2019 09:54 1,0 °C 94 % 1018,4 hPa 0,0 mm 14,2 km/h (3 Bft) NW 314 ° 0 min 0,000 mm 0,0 UV-I 9 W/m² 0,1 °C -3,0 °C 20,9 km/h (4 Bft)
08.01.2019 09:55 1,0 °C 94 % 1018,5 hPa 0,0 mm 19,8 km/h (3 Bft) W-SW 257 ° 0 min 0,000 mm 0,0 UV-I 9 W/m² 0,1 °C -4,0 °C 29,0 km/h (5 Bft)
08.01.2019 09:56 1,0 °C 94 % 1018,4 hPa 0,0 mm 22,1 km/h (4 Bft) W 267 ° 0 min 0,000 mm 0,0 UV-I 9 W/m² 0,1 °C -4,3 °C 30,6 km/h (5 Bft)
08.01.2019 09:57 1,0 °C 94 % 1018,4 hPa 0,0 mm 18,6 km/h (3 Bft) NW 304 ° 0 min 0,000 mm 0,0 UV-I 9 W/m² 0,1 °C -3,8 °C 24,1 km/h (4 Bft)
08.01.2019 09:58 1,0 °C 94 % 1018,5 hPa 0,0 mm 15,9 km/h (3 Bft) W-SW 257 ° 0 min 0,000 mm 0,0 UV-I 9 W/m² 0,1 °C -3,3 °C 20,9 km/h (4 Bft)
08.01.2019 09:59 1,0 °C 94 % 1018,5 hPa 0,0 mm 16,2 km/h (3 Bft) W 278 ° 0 min 0,000 mm 0,0 UV-I 9 W/m² 0,1 °C -3,4 °C 24,1 km/h (4 Bft)
08.01.2019 10:00 1,0 °C 94 % 1018,4 hPa 0,0 mm 17,0 km/h (3 Bft) W-SW 254 ° 0 min 0,000 mm 0,0 UV-I 11 W/m² 0,1 °C -3,5 °C 25,7 km/h (4 Bft)
08.01.2019 10:01 1,0 °C 94 % 1018,5 hPa 0,0 mm 23,4 km/h (4 Bft) W-NW 283 ° 0 min 0,000 mm 0,0 UV-I 11 W/m² 0,1 °C -4,4 °C 29,0 km/h (5 Bft)
08.01.2019 10:02 1,0 °C 94 % 1018,5 hPa 0,0 mm 17,8 km/h (3 Bft) W 265 ° 0 min 0,000 mm 0,0 UV-I 11 W/m² 0,1 °C -3,7 °C 27,4 km/h (4 Bft)
08.01.2019 10:03 0,9 °C 94 % 1018,3 hPa 0,0 mm 21,6 km/h (4 Bft) W 261 ° 0 min 0,000 mm 0,0 UV-I 9 W/m² 0,0 °C -4,3 °C 25,7 km/h (4 Bft)
08.01.2019 10:04 0,9 °C 94 % 1018,5 hPa 0,0 mm 23,2 km/h (4 Bft) W 273 ° 0 min 0,000 mm 0,0 UV-I 9 W/m² 0,0 °C -4,5 °C 37,0 km/h (5 Bft)
08.01.2019 10:05 0,9 °C 94 % 1018,4 hPa 0,0 mm 19,8 km/h (3 Bft) W 263 ° 0 min 0,000 mm 0,0 UV-I 9 W/m² 0,0 °C -4,1 °C 24,1 km/h (4 Bft)
08.01.2019 10:06 0,9 °C 94 % 1018,4 hPa 0,0 mm 17,5 km/h (3 Bft) W-SW 239 ° 0 min 0,000 mm 0,0 UV-I 7 W/m² 0,0 °C -3,7 °C 24,1 km/h (4 Bft)
08.01.2019 10:07 0,9 °C 94 % 1018,5 hPa 0,0 mm 19,8 km/h (3 Bft) W-SW 254 ° 0 min 0,000 mm 0,0 UV-I 7 W/m² 0,0 °C -4,1 °C 32,2 km/h (5 Bft)
08.01.2019 10:08 0,9 °C 94 % 1018,5 hPa 0,0 mm 19,5 km/h (3 Bft) W-SW 250 ° 0 min 0,000 mm 0,0 UV-I 7 W/m² 0,0 °C -4,0 °C 27,4 km/h (4 Bft)
08.01.2019 10:09 0,9 °C 94 % 1018,5 hPa 0,0 mm 20,1 km/h (4 Bft) W 273 ° 0 min 0,000 mm 0,0 UV-I 7 W/m² 0,0 °C -4,1 °C 24,1 km/h (4 Bft)
08.01.2019 10:10 0,9 °C 94 % 1018,5 hPa 0,0 mm 18,3 km/h (3 Bft) W 273 ° 0 min 0,000 mm 0,0 UV-I 7 W/m² 0,0 °C -3,9 °C 27,4 km/h (4 Bft)
08.01.2019 10:11 0,9 °C 94 % 1018,5 hPa 0,0 mm 17,2 km/h (3 Bft) W 267 ° 0 min 0,000 mm 0,0 UV-I 7 W/m² 0,0 °C -3,7 °C 20,9 km/h (4 Bft)
08.01.2019 10:12 0,9 °C 94 % 1018,4 hPa 0,0 mm 16,2 km/h (3 Bft) W-NW 299 ° 0 min 0,000 mm 0,0 UV-I 9 W/m² 0,0 °C -3,5 °C 25,7 km/h (4 Bft)
08.01.2019 10:13 0,9 °C 94 % 1018,4 hPa 0,0 mm 16,6 km/h (3 Bft) W 267 ° 0 min 0,000 mm 0,0 UV-I 7 W/m² 0,0 °C -3,6 °C 22,5 km/h (4 Bft)
08.01.2019 10:14 0,9 °C 94 % 1018,4 hPa 0,0 mm 17,4 km/h (3 Bft) W 262 ° 0 min 0,000 mm 0,0 UV-I 9 W/m² 0,0 °C -3,7 °C 22,5 km/h (4 Bft)
08.01.2019 10:15 0,9 °C 94 % 1018,3 hPa 0,0 mm 15,8 km/h (3 Bft) W 263 ° 0 min 0,000 mm 0,0 UV-I 9 W/m² 0,0 °C -3,4 °C 24,1 km/h (4 Bft)
08.01.2019 10:16 0,9 °C 94 % 1018,3 hPa 0,0 mm 11,8 km/h (2 Bft) W-NW 299 ° 0 min 0,000 mm 0,0 UV-I 11 W/m² 0,0 °C -2,7 °C 17,7 km/h (3 Bft)
08.01.2019 10:17 0,9 °C 94 % 1018,3 hPa 0,0 mm 18,7 km/h (3 Bft) W-SW 249 ° 0 min 0,000 mm 0,0 UV-I 11 W/m² 0,0 °C -3,9 °C 25,7 km/h (4 Bft)
08.01.2019 10:18 0,9 °C 94 % 1018,3 hPa 0,0 mm 22,5 km/h (4 Bft) W 271 ° 0 min 0,000 mm 0,0 UV-I 11 W/m² 0,0 °C -4,4 °C 30,6 km/h (5 Bft)
08.01.2019 10:19 0,9 °C 94 % 1018,4 hPa 0,0 mm 25,1 km/h (4 Bft) SW 236 ° 0 min 0,000 mm 0,0 UV-I 11 W/m² 0,0 °C -4,8 °C 35,4 km/h (5 Bft)
08.01.2019 10:20 0,9 °C 94 % 1018,3 hPa 0,0 mm 11,1 km/h (2 Bft) W-NW 299 ° 0 min 0,000 mm 0,0 UV-I 11 W/m² 0,0 °C -2,5 °C 19,3 km/h (3 Bft)
08.01.2019 10:21 0,9 °C 94 % 1018,4 hPa 0,0 mm 18,5 km/h (3 Bft) W-SW 251 ° 0 min 0,000 mm 0,0 UV-I 11 W/m² 0,0 °C -3,9 °C 24,1 km/h (4 Bft)
08.01.2019 10:22 1,0 °C 94 % 1018,4 hPa 0,0 mm 23,0 km/h (4 Bft) W-NW 286 ° 0 min 0,000 mm 0,0 UV-I 12 W/m² 0,1 °C -4,4 °C 38,6 km/h (5 Bft)
08.01.2019 10:23 0,9 °C 94 % 1018,3 hPa 0,0 mm 17,7 km/h (3 Bft) W 263 ° 0 min 0,000 mm 0,0 UV-I 11 W/m² 0,0 °C -3,8 °C 22,5 km/h (4 Bft)
08.01.2019 10:24 0,9 °C 94 % 1018,4 hPa 0,0 mm 16,4 km/h (3 Bft) W 263 ° 0 min 0,000 mm 0,0 UV-I 11 W/m² 0,0 °C -3,6 °C 20,9 km/h (4 Bft)
08.01.2019 10:25 1,0 °C 94 % 1018,3 hPa 0,0 mm 26,8 km/h (4 Bft) W 269 ° 0 min 0,000 mm 0,0 UV-I 12 W/m² 0,1 °C -4,8 °C 40,2 km/h (6 Bft)
08.01.2019 10:26 1,0 °C 94 % 1018,3 hPa 0,0 mm 20,9 km/h (4 Bft) W 271 ° 0 min 0,000 mm 0,0 UV-I 12 W/m² 0,1 °C -4,1 °C 32,2 km/h (5 Bft)
08.01.2019 10:27 1,0 °C 94 % 1018,4 hPa 0,0 mm 17,1 km/h (3 Bft) W 272 ° 0 min 0,000 mm 0,0 UV-I 12 W/m² 0,1 °C -3,5 °C 22,5 km/h (4 Bft)
08.01.2019 10:28 1,0 °C 94 % 1018,5 hPa 0,0 mm 20,0 km/h (4 Bft) W-NW 293 ° 0 min 0,000 mm 0,0 UV-I 11 W/m² 0,1 °C -4,0 °C 30,6 km/h (5 Bft)
08.01.2019 10:29 1,0 °C 94 % 1018,4 hPa 0,0 mm 16,6 km/h (3 Bft) W 259 ° 0 min 0,000 mm 0,0 UV-I 11 W/m² 0,1 °C -3,5 °C 24,1 km/h (4 Bft)
08.01.2019 10:30 1,0 °C 94 % 1018,4 hPa 0,0 mm 17,2 km/h (3 Bft) W 277 ° 0 min 0,000 mm 0,0 UV-I 11 W/m² 0,1 °C -3,6 °C 27,4 km/h (4 Bft)
08.01.2019 10:31 1,0 °C 94 % 1018,5 hPa 0,0 mm 26,5 km/h (4 Bft) W-SW 256 ° 0 min 0,000 mm 0,0 UV-I 11 W/m² 0,1 °C -4,8 °C 40,2 km/h (6 Bft)
08.01.2019 10:32 1,0 °C 94 % 1018,4 hPa 0,0 mm 20,6 km/h (4 Bft) W 270 ° 0 min 0,000 mm 0,0 UV-I 11 W/m² 0,1 °C -4,1 °C 29,0 km/h (5 Bft)
08.01.2019 10:33 1,0 °C 94 % 1018,4 hPa 0,0 mm 21,2 km/h (4 Bft) W 267 ° 0 min 0,000 mm 0,0 UV-I 11 W/m² 0,1 °C -4,1 °C 29,0 km/h (5 Bft)
08.01.2019 10:34 1,1 °C 94 % 1018,5 hPa 0,0 mm 22,7 km/h (4 Bft) W 276 ° 0 min 0,000 mm 0,0 UV-I 9 W/m² 0,2 °C -4,2 °C 30,6 km/h (5 Bft)
08.01.2019 10:35 1,1 °C 94 % 1018,5 hPa 0,0 mm 32,6 km/h (5 Bft) W 267 ° 0 min 0,000 mm 0,0 UV-I 9 W/m² 0,2 °C -5,3 °C 46,7 km/h (6 Bft)
08.01.2019 10:36 1,0 °C 94 % 1018,4 hPa 0,0 mm 26,3 km/h (4 Bft) W 266 ° 0 min 0,000 mm 0,0 UV-I 9 W/m² 0,1 °C -4,8 °C 45,1 km/h (6 Bft)
08.01.2019 10:37 1,1 °C 94 % 1018,4 hPa 0,0 mm 20,9 km/h (4 Bft) NW 308 ° 0 min 0,000 mm 0,0 UV-I 9 W/m² 0,2 °C -4,0 °C 27,4 km/h (4 Bft)
08.01.2019 10:38 1,0 °C 94 % 1018,3 hPa 0,0 mm 17,9 km/h (3 Bft) W-SW 245 ° 0 min 0,000 mm 0,0 UV-I 9 W/m² 0,1 °C -3,7 °C 25,7 km/h (4 Bft)
08.01.2019 10:39 1,0 °C 94 % 1018,5 hPa 0,0 mm 21,6 km/h (4 Bft) W-SW 254 ° 0 min 0,000 mm 0,0 UV-I 9 W/m² 0,1 °C -4,2 °C 32,2 km/h (5 Bft)
08.01.2019 10:40 1,0 °C 94 % 1018,3 hPa 0,0 mm 15,2 km/h (3 Bft) W-NW 294 ° 0 min 0,000 mm 0,0 UV-I 11 W/m² 0,1 °C -3,2 °C 24,1 km/h (4 Bft)
08.01.2019 10:41 1,0 °C 94 % 1018,4 hPa 0,0 mm 22,1 km/h (4 Bft) W-NW 292 ° 0 min 0,000 mm 0,0 UV-I 12 W/m² 0,1 °C -4,3 °C 27,4 km/h (4 Bft)
08.01.2019 10:42 1,0 °C 94 % 1018,3 hPa 0,0 mm 17,5 km/h (3 Bft) W 260 ° 0 min 0,000 mm 0,0 UV-I 11 W/m² 0,1 °C -3,6 °C 25,7 km/h (4 Bft)
08.01.2019 10:43 1,0 °C 94 % 1018,3 hPa 0,0 mm 17,3 km/h (3 Bft) W 265 ° 0 min 0,000 mm 0,0 UV-I 11 W/m² 0,1 °C -3,6 °C 25,7 km/h (4 Bft)
08.01.2019 10:44 1,1 °C 94 % 1018,3 hPa 0,0 mm 19,7 km/h (3 Bft) W 265 ° 0 min 0,000 mm 0,0 UV-I 11 W/m² 0,2 °C -3,8 °C 20,9 km/h (4 Bft)
08.01.2019 10:45 1,0 °C 94 % 1018,3 hPa 0,0 mm 23,2 km/h (4 Bft) W 259 ° 0 min 0,000 mm 0,0 UV-I 11 W/m² 0,1 °C -4,4 °C 30,6 km/h (5 Bft)
08.01.2019 10:46 1,1 °C 94 % 1018,3 hPa 0,0 mm 26,5 km/h (4 Bft) W 275 ° 0 min 0,000 mm 0,0 UV-I 11 W/m² 0,2 °C -4,7 °C 41,8 km/h (6 Bft)
08.01.2019 10:47 1,1 °C 94 % 1018,4 hPa 0,0 mm 17,4 km/h (3 Bft) W 262 ° 0 min 0,000 mm 0,0 UV-I 11 W/m² 0,2 °C -3,5 °C 20,9 km/h (4 Bft)
08.01.2019 10:48 1,1 °C 94 % 1018,3 hPa 0,0 mm 13,7 km/h (3 Bft) W 261 ° 0 min 0,000 mm 0,0 UV-I 12 W/m² 0,2 °C -2,8 °C 19,3 km/h (3 Bft)
08.01.2019 10:49 1,1 °C 94 % 1018,3 hPa 0,0 mm 13,9 km/h (3 Bft) W-NW 282 ° 0 min 0,000 mm 0,0 UV-I 11 W/m² 0,2 °C -2,9 °C 20,9 km/h (4 Bft)
08.01.2019 10:50 1,1 °C 94 % 1018,3 hPa 0,0 mm 14,6 km/h (3 Bft) W-NW 296 ° 0 min 0,000 mm 0,0 UV-I 12 W/m² 0,2 °C -3,0 °C 17,7 km/h (3 Bft)
08.01.2019 10:51 1,1 °C 94 % 1018,3 hPa 0,0 mm 20,7 km/h (4 Bft) W-SW 256 ° 0 min 0,000 mm 0,0 UV-I 12 W/m² 0,2 °C -4,0 °C 27,4 km/h (4 Bft)
08.01.2019 10:53 1,1 °C 94 % 1018,3 hPa 0,0 mm 18,5 km/h (3 Bft) W 265 ° 0 min 0,000 mm 0,0 UV-I 9 W/m² 0,2 °C -3,6 °C 29,0 km/h (5 Bft)
08.01.2019 10:54 1,0 °C 94 % 1018,3 hPa 0,0 mm 28,6 km/h (4 Bft) W 279 ° 0 min 0,000 mm 0,0 UV-I 7 W/m² 0,1 °C -5,0 °C 37,0 km/h (5 Bft)
08.01.2019 10:55 1,1 °C 94 % 1018,3 hPa 0,0 mm 22,3 km/h (4 Bft) W 259 ° 0 min 0,000 mm 0,0 UV-I 5 W/m² 0,2 °C -4,2 °C 30,6 km/h (5 Bft)
08.01.2019 10:56 1,1 °C 94 % 1018,3 hPa 0,0 mm 14,1 km/h (3 Bft) W 274 ° 0 min 0,000 mm 0,0 UV-I 5 W/m² 0,2 °C -2,9 °C 22,5 km/h (4 Bft)
08.01.2019 10:57 1,0 °C 94 % 1018,2 hPa 0,0 mm 15,3 km/h (3 Bft) W 271 ° 0 min 0,000 mm 0,0 UV-I 5 W/m² 0,1 °C -3,2 °C 24,1 km/h (4 Bft)
08.01.2019 10:58 1,0 °C 94 % 1018,2 hPa 0,0 mm 15,0 km/h (3 Bft) W 261 ° 0 min 0,000 mm 0,0 UV-I 5 W/m² 0,1 °C -3,2 °C 17,7 km/h (3 Bft)
08.01.2019 10:59 1,0 °C 94 % 1018,3 hPa 0,0 mm 22,0 km/h (4 Bft) W-NW 282 ° 0 min 0,000 mm 0,0 UV-I 7 W/m² 0,1 °C -4,3 °C 32,2 km/h (5 Bft)
08.01.2019 11:00 1,0 °C 94 % 1018,3 hPa 0,0 mm 19,7 km/h (3 Bft) W 280 ° 0 min 0,000 mm 0,0 UV-I 7 W/m² 0,1 °C -3,9 °C 25,7 km/h (4 Bft)
08.01.2019 11:01 1,0 °C 94 % 1018,3 hPa 0,0 mm 20,2 km/h (4 Bft) W-SW 249 ° 0 min 0,000 mm 0,0 UV-I 9 W/m² 0,1 °C -4,0 °C 35,4 km/h (5 Bft)
08.01.2019 11:02 1,0 °C 94 % 1018,3 hPa 0,0 mm 19,5 km/h (3 Bft) W-SW 248 ° 0 min 0,000 mm 0,0 UV-I 9 W/m² 0,1 °C -3,9 °C 30,6 km/h (5 Bft)
08.01.2019 11:03 1,0 °C 94 % 1018,3 hPa 0,0 mm 24,1 km/h (4 Bft) W 270 ° 0 min 0,000 mm 0,0 UV-I 11 W/m² 0,1 °C -4,5 °C 32,2 km/h (5 Bft)
08.01.2019 11:04 1,0 °C 94 % 1018,2 hPa 0,0 mm 25,3 km/h (4 Bft) W-NW 285 ° 0 min 0,000 mm 0,0 UV-I 11 W/m² 0,1 °C -4,7 °C 32,2 km/h (5 Bft)
08.01.2019 11:05 1,0 °C 94 % 1018,1 hPa 0,0 mm 20,3 km/h (4 Bft) W 271 ° 0 min 0,000 mm 0,0 UV-I 12 W/m² 0,1 °C -4,0 °C 27,4 km/h (4 Bft)
08.01.2019 11:06 1,0 °C 94 % 1018,1 hPa 0,0 mm 20,1 km/h (4 Bft) NW 306 ° 0 min 0,000 mm 0,0 UV-I 12 W/m² 0,1 °C -4,0 °C 30,6 km/h (5 Bft)
08.01.2019 11:07 1,0 °C 94 % 1018,1 hPa 0,0 mm 17,3 km/h (3 Bft) SW 219 ° 0 min 0,000 mm 0,0 UV-I 14 W/m² 0,1 °C -3,6 °C 20,9 km/h (4 Bft)
08.01.2019 11:08 1,0 °C 94 % 1018,1 hPa 0,0 mm 18,6 km/h (3 Bft) W-NW 288 ° 0 min 0,000 mm 0,0 UV-I 16 W/m² 0,1 °C -3,8 °C 29,0 km/h (5 Bft)
08.01.2019 11:09 1,1 °C 94 % 1018,2 hPa 0,0 mm 21,6 km/h (4 Bft) W-NW 296 ° 0 min 0,000 mm 0,0 UV-I 18 W/m² 0,2 °C -4,1 °C 32,2 km/h (5 Bft)
08.01.2019 11:10 1,0 °C 94 % 1018,0 hPa 0,0 mm 20,0 km/h (4 Bft) W-NW 286 ° 0 min 0,000 mm 0,0 UV-I 19 W/m² 0,1 °C -4,0 °C 29,0 km/h (5 Bft)
08.01.2019 11:11 1,1 °C 94 % 1018,1 hPa 0,0 mm 31,2 km/h (5 Bft) W 276 ° 0 min 0,000 mm 0,0 UV-I 19 W/m² 0,2 °C -5,2 °C 46,7 km/h (6 Bft)
08.01.2019 11:12 1,1 °C 94 % 1017,9 hPa 0,0 mm 22,6 km/h (4 Bft) W-NW 291 ° 0 min 0,000 mm 0,0 UV-I 19 W/m² 0,2 °C -4,2 °C 33,8 km/h (5 Bft)
08.01.2019 11:13 1,1 °C 94 % 1017,9 hPa 0,0 mm 16,7 km/h (3 Bft) W 269 ° 0 min 0,000 mm 0,0 UV-I 21 W/m² 0,2 °C -3,4 °C 24,1 km/h (4 Bft)
08.01.2019 11:14 1,1 °C 94 % 1017,8 hPa 0,0 mm 21,9 km/h (4 Bft) W 271 ° 0 min 0,000 mm 0,0 UV-I 23 W/m² 0,2 °C -4,1 °C 29,0 km/h (5 Bft)
08.01.2019 11:15 1,1 °C 94 % 1017,9 hPa 0,0 mm 27,0 km/h (4 Bft) NW 325 ° 0 min 0,000 mm 0,0 UV-I 25 W/m² 0,2 °C -4,7 °C 51,5 km/h (7 Bft)
08.01.2019 11:16 1,1 °C 94 % 1017,9 hPa 0,0 mm 18,8 km/h (3 Bft) W 262 ° 0 min 0,000 mm 0,0 UV-I 28 W/m² 0,2 °C -3,7 °C 30,6 km/h (5 Bft)
08.01.2019 11:17 1,1 °C 94 % 1017,9 hPa 0,0 mm 16,7 km/h (3 Bft) W-SW 248 ° 0 min 0,000 mm 0,0 UV-I 30 W/m² 0,2 °C -3,4 °C 20,9 km/h (4 Bft)
08.01.2019 11:18 1,1 °C 94 % 1017,8 hPa 0,0 mm 20,9 km/h (4 Bft) W 279 ° 0 min 0,000 mm 0,0 UV-I 30 W/m² 0,2 °C -4,0 °C 27,4 km/h (4 Bft)
08.01.2019 11:19 1,1 °C 94 % 1017,9 hPa 0,0 mm 16,7 km/h (3 Bft) W-SW 250 ° 0 min 0,000 mm 0,0 UV-I 30 W/m² 0,2 °C -3,4 °C 24,1 km/h (4 Bft)
08.01.2019 11:20 1,1 °C 94 % 1017,8 hPa 0,0 mm 18,7 km/h (3 Bft) W-SW 240 ° 0 min 0,000 mm 0,0 UV-I 28 W/m² 0,2 °C -3,7 °C 27,4 km/h (4 Bft)
08.01.2019 11:21 1,1 °C 94 % 1017,8 hPa 0,0 mm 20,5 km/h (4 Bft) W-SW 258 ° 0 min 0,000 mm 0,0 UV-I 30 W/m² 0,2 °C -3,9 °C 35,4 km/h (5 Bft)
08.01.2019 11:22 1,1 °C 94 % 1017,8 hPa 0,0 mm 22,7 km/h (4 Bft) W 261 ° 0 min 0,000 mm 0,0 UV-I 30 W/m² 0,2 °C -4,2 °C 30,6 km/h (5 Bft)
08.01.2019 11:23 1,2 °C 94 % 1017,8 hPa 0,0 mm 19,9 km/h (4 Bft) W 275 ° 0 min 0,000 mm 0,0 UV-I 37 W/m² 0,3 °C -3,7 °C 25,7 km/h (4 Bft)
08.01.2019 11:24 1,2 °C 94 % 1017,8 hPa 0,0 mm 17,4 km/h (3 Bft) W-NW 300 ° 0 min 0,000 mm 0,0 UV-I 44 W/m² 0,3 °C -3,3 °C 24,1 km/h (4 Bft)
08.01.2019 11:25 1,2 °C 94 % 1017,9 hPa 0,0 mm 22,3 km/h (4 Bft) W-SW 256 ° 0 min 0,000 mm 0,0 UV-I 47 W/m² 0,3 °C -4,0 °C 32,2 km/h (5 Bft)
08.01.2019 11:26 1,3 °C 94 % 1017,9 hPa 0,0 mm 17,4 km/h (3 Bft) W-SW 252 ° 0 min 0,000 mm 0,0 UV-I 51 W/m² 0,4 °C -3,2 °C 27,4 km/h (4 Bft)
08.01.2019 11:27 1,3 °C 94 % 1017,8 hPa 0,0 mm 16,4 km/h (3 Bft) W 271 ° 0 min 0,000 mm 0,0 UV-I 51 W/m² 0,4 °C -3,1 °C 29,0 km/h (5 Bft)
08.01.2019 11:28 1,3 °C 93 % 1017,8 hPa 0,0 mm 16,4 km/h (3 Bft) W 261 ° 0 min 0,000 mm 0,0 UV-I 40 W/m² 0,3 °C -3,1 °C 27,4 km/h (4 Bft)
08.01.2019 11:29 1,3 °C 93 % 1017,7 hPa 0,0 mm 20,6 km/h (4 Bft) W 266 ° 0 min 0,000 mm 0,0 UV-I 37 W/m² 0,3 °C -3,7 °C 29,0 km/h (5 Bft)
08.01.2019 11:30 1,3 °C 93 % 1017,8 hPa 0,0 mm 15,2 km/h (3 Bft) W 263 ° 0 min 0,000 mm 0,0 UV-I 32 W/m² 0,3 °C -2,8 °C 24,1 km/h (4 Bft)
08.01.2019 11:31 1,3 °C 93 % 1017,8 hPa 0,0 mm 21,9 km/h (4 Bft) W 269 ° 0 min 0,000 mm 0,0 UV-I 25 W/m² 0,3 °C -3,9 °C 25,7 km/h (4 Bft)
08.01.2019 11:32 1,3 °C 93 % 1017,7 hPa 0,0 mm 22,4 km/h (4 Bft) W 266 ° 0 min 0,000 mm 0,0 UV-I 19 W/m² 0,3 °C -3,9 °C 30,6 km/h (5 Bft)
08.01.2019 11:33 1,3 °C 93 % 1017,7 hPa 0,0 mm 20,3 km/h (4 Bft) W-NW 288 ° 0 min 0,000 mm 0,0 UV-I 18 W/m² 0,3 °C -3,6 °C 27,4 km/h (4 Bft)
08.01.2019 11:34 1,3 °C 93 % 1017,7 hPa 0,2 mm 16,3 km/h (3 Bft) W-SW 250 ° 0 min 0,000 mm 0,0 UV-I 14 W/m² 0,3 °C -3,0 °C 24,1 km/h (4 Bft)
08.01.2019 11:35 1,3 °C 93 % 1017,7 hPa 0,0 mm 15,8 km/h (3 Bft) NW 312 ° 0 min 0,000 mm 0,0 UV-I 14 W/m² 0,3 °C -3,0 °C 25,7 km/h (4 Bft)
08.01.2019 11:36 1,3 °C 93 % 1017,7 hPa 0,0 mm 19,8 km/h (3 Bft) W 266 ° 0 min 0,000 mm 0,0 UV-I 14 W/m² 0,3 °C -3,6 °C 27,4 km/h (4 Bft)
08.01.2019 11:37 1,3 °C 93 % 1017,7 hPa 0,0 mm 15,0 km/h (3 Bft) W 280 ° 0 min 0,000 mm 0,0 UV-I 14 W/m² 0,3 °C -2,8 °C 19,3 km/h (3 Bft)
08.01.2019 11:38 1,3 °C 93 % 1017,7 hPa 0,0 mm 16,4 km/h (3 Bft) W-SW 243 ° 0 min 0,000 mm 0,0 UV-I 16 W/m² 0,3 °C -3,1 °C 25,7 km/h (4 Bft)
08.01.2019 11:39 1,3 °C 93 % 1017,6 hPa 0,0 mm 16,2 km/h (3 Bft) W-NW 294 ° 0 min 0,000 mm 0,0 UV-I 16 W/m² 0,3 °C -3,0 °C 22,5 km/h (4 Bft)
08.01.2019 11:40 1,3 °C 93 % 1017,7 hPa 0,0 mm 14,5 km/h (3 Bft) W 267 ° 0 min 0,000 mm 0,0 UV-I 16 W/m² 0,3 °C -2,7 °C 22,5 km/h (4 Bft)
08.01.2019 11:41 1,2 °C 93 % 1017,7 hPa 0,0 mm 17,6 km/h (3 Bft) W-SW 250 ° 0 min 0,000 mm 0,0 UV-I 16 W/m² 0,2 °C -3,4 °C 27,4 km/h (4 Bft)
08.01.2019 11:42 1,3 °C 93 % 1017,6 hPa 0,0 mm 20,0 km/h (4 Bft) W 279 ° 0 min 0,000 mm 0,0 UV-I 18 W/m² 0,3 °C -3,6 °C 25,7 km/h (4 Bft)
08.01.2019 11:43 1,3 °C 93 % 1017,7 hPa 0,0 mm 23,3 km/h (4 Bft) W-SW 243 ° 0 min 0,000 mm 0,0 UV-I 19 W/m² 0,3 °C -4,0 °C 49,9 km/h (6 Bft)
08.01.2019 11:44 1,2 °C 93 % 1017,6 hPa 0,0 mm 21,2 km/h (4 Bft) W-NW 297 ° 0 min 0,000 mm 0,0 UV-I 21 W/m² 0,2 °C -3,9 °C 27,4 km/h (4 Bft)
08.01.2019 11:45 1,2 °C 93 % 1017,6 hPa 0,2 mm 23,9 km/h (4 Bft) W 264 ° 0 min 0,000 mm 0,0 UV-I 30 W/m² 0,2 °C -4,2 °C 29,0 km/h (5 Bft)
08.01.2019 11:46 1,2 °C 93 % 1017,6 hPa 0,0 mm 19,6 km/h (3 Bft) W-SW 244 ° 0 min 0,000 mm 0,0 UV-I 32 W/m² 0,2 °C -3,7 °C 27,4 km/h (4 Bft)
08.01.2019 11:47 1,2 °C 93 % 1017,6 hPa 0,0 mm 15,0 km/h (3 Bft) W-NW 283 ° 0 min 0,000 mm 0,0 UV-I 30 W/m² 0,2 °C -2,9 °C 20,9 km/h (4 Bft)
08.01.2019 11:48 1,3 °C 93 % 1017,5 hPa 0,0 mm 17,0 km/h (3 Bft) W 269 ° 0 min 0,000 mm 0,0 UV-I 26 W/m² 0,3 °C -3,2 °C 27,4 km/h (4 Bft)
08.01.2019 11:49 1,3 °C 93 % 1017,6 hPa 0,0 mm 20,8 km/h (4 Bft) W 261 ° 0 min 0,000 mm 0,0 UV-I 25 W/m² 0,3 °C -3,7 °C 29,0 km/h (5 Bft)
08.01.2019 11:50 1,3 °C 93 % 1017,6 hPa 0,0 mm 19,3 km/h (3 Bft) NW 323 ° 0 min 0,000 mm 0,0 UV-I 25 W/m² 0,3 °C -3,5 °C 30,6 km/h (5 Bft)
08.01.2019 11:51 1,3 °C 93 % 1017,4 hPa 0,0 mm 22,9 km/h (4 Bft) W 263 ° 0 min 0,000 mm 0,0 UV-I 23 W/m² 0,3 °C -4,0 °C 32,2 km/h (5 Bft)
08.01.2019 11:52 1,3 °C 93 % 1017,6 hPa 0,0 mm 18,7 km/h (3 Bft) NW 319 ° 0 min 0,000 mm 0,0 UV-I 21 W/m² 0,3 °C -3,4 °C 25,7 km/h (4 Bft)
08.01.2019 11:53 1,3 °C 93 % 1017,5 hPa 0,2 mm 16,9 km/h (3 Bft) W 264 ° 0 min 0,000 mm 0,0 UV-I 21 W/m² 0,3 °C -3,1 °C 22,5 km/h (4 Bft)
08.01.2019 11:54 1,3 °C 93 % 1017,6 hPa 0,0 mm 22,4 km/h (4 Bft) W 266 ° 0 min 0,000 mm 0,0 UV-I 23 W/m² 0,3 °C -3,9 °C 29,0 km/h (5 Bft)
08.01.2019 11:55 1,3 °C 93 % 1017,6 hPa 0,2 mm 18,9 km/h (3 Bft) W 271 ° 0 min 0,000 mm 0,0 UV-I 21 W/m² 0,3 °C -3,4 °C 25,7 km/h (4 Bft)
08.01.2019 11:56 1,3 °C 93 % 1017,5 hPa 0,0 mm 19,8 km/h (3 Bft) W 271 ° 0 min 0,000 mm 0,0 UV-I 19 W/m² 0,3 °C -3,6 °C 29,0 km/h (5 Bft)
08.01.2019 11:57 1,3 °C 93 % 1017,5 hPa 0,0 mm 23,2 km/h (4 Bft) W-NW 284 ° 0 min 0,000 mm 0,0 UV-I 18 W/m² 0,3 °C -4,0 °C 37,0 km/h (5 Bft)
08.01.2019 11:58 1,3 °C 93 % 1017,5 hPa 0,2 mm 14,1 km/h (3 Bft) W-SW 244 ° 0 min 0,000 mm 0,0 UV-I 16 W/m² 0,3 °C -2,6 °C 17,7 km/h (3 Bft)
08.01.2019 11:59 1,2 °C 93 % 1017,4 hPa 0,0 mm 18,6 km/h (3 Bft) W 261 ° 0 min 0,000 mm 0,0 UV-I 16 W/m² 0,2 °C -3,5 °C 32,2 km/h (5 Bft)
08.01.2019 12:00 1,3 °C 93 % 1017,4 hPa 0,2 mm 23,9 km/h (4 Bft) W 269 ° 0 min 0,000 mm 0,0 UV-I 16 W/m² 0,3 °C -4,1 °C 30,6 km/h (5 Bft)
08.01.2019 12:01 1,3 °C 93 % 1017,4 hPa 0,0 mm 16,0 km/h (3 Bft) W-SW 251 ° 0 min 0,025 mm 0,0 UV-I 16 W/m² 0,3 °C -3,0 °C 27,4 km/h (4 Bft)
08.01.2019 12:02 1,3 °C 93 % 1017,4 hPa 0,2 mm 13,7 km/h (3 Bft) W-SW 245 ° 0 min 0,000 mm 0,0 UV-I 18 W/m² 0,3 °C -2,6 °C 17,7 km/h (3 Bft)
08.01.2019 12:03 1,3 °C 93 % 1017,4 hPa 0,0 mm 18,3 km/h (3 Bft) W-SW 240 ° 0 min 0,000 mm 0,0 UV-I 16 W/m² 0,3 °C -3,4 °C 30,6 km/h (5 Bft)
08.01.2019 12:04 1,2 °C 93 % 1017,4 hPa 0,2 mm 17,7 km/h (3 Bft) W-NW 292 ° 0 min 0,000 mm 0,0 UV-I 14 W/m² 0,2 °C -3,4 °C 25,7 km/h (4 Bft)
08.01.2019 12:05 1,2 °C 93 % 1017,6 hPa 0,0 mm 18,8 km/h (3 Bft) W-SW 240 ° 0 min 0,000 mm 0,0 UV-I 14 W/m² 0,2 °C -3,6 °C 24,1 km/h (4 Bft)
08.01.2019 12:06 1,2 °C 93 % 1017,4 hPa 0,0 mm 16,7 km/h (3 Bft) W-SW 257 ° 0 min 0,000 mm 0,0 UV-I 16 W/m² 0,2 °C -3,2 °C 27,4 km/h (4 Bft)
08.01.2019 12:07 1,2 °C 93 % 1017,4 hPa 0,0 mm 18,7 km/h (3 Bft) W 277 ° 0 min 0,000 mm 0,0 UV-I 18 W/m² 0,2 °C -3,5 °C 24,1 km/h (4 Bft)
08.01.2019 12:08 1,2 °C 92 % 1017,4 hPa 0,0 mm 13,8 km/h (3 Bft) W 265 ° 0 min 0,000 mm 0,0 UV-I 18 W/m² 0,0 °C -2,7 °C 20,9 km/h (4 Bft)
08.01.2019 12:09 1,3 °C 93 % 1017,4 hPa 0,2 mm 21,5 km/h (4 Bft) W-NW 286 ° 0 min 0,000 mm 0,0 UV-I 19 W/m² 0,3 °C -3,8 °C 30,6 km/h (5 Bft)
08.01.2019 12:10 1,2 °C 93 % 1017,3 hPa 0,0 mm 20,3 km/h (4 Bft) W 270 ° 0 min 0,000 mm 0,0 UV-I 19 W/m² 0,2 °C -3,8 °C 27,4 km/h (4 Bft)
08.01.2019 12:11 1,3 °C 93 % 1017,3 hPa 0,0 mm 21,9 km/h (4 Bft) W-SW 257 ° 0 min 0,000 mm 0,0 UV-I 21 W/m² 0,3 °C -3,9 °C 27,4 km/h (4 Bft)
08.01.2019 12:12 1,3 °C 92 % 1017,3 hPa 0,0 mm 13,5 km/h (3 Bft) W-SW 257 ° 0 min 0,000 mm 0,0 UV-I 23 W/m² 0,1 °C -2,5 °C 20,9 km/h (4 Bft)
08.01.2019 12:13 1,3 °C 92 % 1017,3 hPa 0,0 mm 17,7 km/h (3 Bft) W 271 ° 0 min 0,000 mm 0,0 UV-I 26 W/m² 0,1 °C -3,3 °C 30,6 km/h (5 Bft)
08.01.2019 12:14 1,3 °C 93 % 1017,3 hPa 0,0 mm 20,1 km/h (4 Bft) W-NW 282 ° 0 min 0,000 mm 0,0 UV-I 23 W/m² 0,3 °C -3,6 °C 24,1 km/h (4 Bft)
08.01.2019 12:15 1,3 °C 93 % 1017,3 hPa 0,0 mm 17,5 km/h (3 Bft) W 262 ° 0 min 0,000 mm 0,0 UV-I 18 W/m² 0,3 °C -3,2 °C 24,1 km/h (4 Bft)
08.01.2019 12:16 1,3 °C 93 % 1017,2 hPa 0,0 mm 12,1 km/h (2 Bft) W 268 ° 0 min 0,000 mm 0,0 UV-I 16 W/m² 0,3 °C -2,2 °C 14,5 km/h (3 Bft)
08.01.2019 12:17 1,3 °C 93 % 1017,2 hPa 0,0 mm 19,2 km/h (3 Bft) W 271 ° 0 min 0,000 mm 0,0 UV-I 16 W/m² 0,3 °C -3,5 °C 24,1 km/h (4 Bft)
08.01.2019 12:18 1,3 °C 93 % 1017,3 hPa 0,0 mm 19,2 km/h (3 Bft) SW 235 ° 0 min 0,000 mm 0,0 UV-I 16 W/m² 0,3 °C -3,5 °C 25,7 km/h (4 Bft)
08.01.2019 12:19 1,3 °C 93 % 1017,2 hPa 0,0 mm 20,4 km/h (4 Bft) W 279 ° 0 min 0,000 mm 0,0 UV-I 16 W/m² 0,3 °C -3,7 °C 33,8 km/h (5 Bft)
08.01.2019 12:20 1,3 °C 93 % 1017,2 hPa 0,0 mm 15,8 km/h (3 Bft) W 281 ° 0 min 0,000 mm 0,0 UV-I 19 W/m² 0,3 °C -3,0 °C 22,5 km/h (4 Bft)
08.01.2019 12:21 1,3 °C 93 % 1017,1 hPa 0,0 mm 14,8 km/h (3 Bft) NW 309 ° 0 min 0,000 mm 0,0 UV-I 14 W/m² 0,3 °C -2,8 °C 19,3 km/h (3 Bft)
08.01.2019 12:22 1,3 °C 93 % 1017,1 hPa 0,2 mm 24,5 km/h (4 Bft) W 263 ° 0 min 0,000 mm 0,0 UV-I 12 W/m² 0,3 °C -4,2 °C 30,6 km/h (5 Bft)
08.01.2019 12:23 1,3 °C 93 % 1017,1 hPa 0,0 mm 15,9 km/h (3 Bft) W-SW 249 ° 0 min 0,000 mm 0,0 UV-I 12 W/m² 0,3 °C -3,0 °C 20,9 km/h (4 Bft)
08.01.2019 12:24 1,3 °C 92 % 1017,2 hPa 0,0 mm 11,9 km/h (2 Bft) W 259 ° 0 min 0,000 mm 0,0 UV-I 12 W/m² 0,1 °C -2,2 °C 20,9 km/h (4 Bft)
08.01.2019 12:25 1,3 °C 92 % 1017,1 hPa 0,0 mm 18,8 km/h (3 Bft) W 261 ° 0 min 0,000 mm 0,0 UV-I 12 W/m² 0,1 °C -3,4 °C 25,7 km/h (4 Bft)
08.01.2019 12:26 1,3 °C 92 % 1017,1 hPa 0,0 mm 21,3 km/h (4 Bft) W 262 ° 0 min 0,000 mm 0,0 UV-I 14 W/m² 0,1 °C -3,8 °C 27,4 km/h (4 Bft)
08.01.2019 12:27 1,3 °C 92 % 1017,1 hPa 0,0 mm 19,6 km/h (3 Bft) W 271 ° 0 min 0,000 mm 0,0 UV-I 19 W/m² 0,1 °C -3,5 °C 25,7 km/h (4 Bft)
08.01.2019 12:28 1,3 °C 92 % 1017,1 hPa 0,0 mm 20,3 km/h (4 Bft) W-SW 254 ° 0 min 0,000 mm 0,0 UV-I 23 W/m² 0,1 °C -3,6 °C 30,6 km/h (5 Bft)
08.01.2019 12:29 1,3 °C 92 % 1017,1 hPa 0,0 mm 15,3 km/h (3 Bft) W 268 ° 0 min 0,000 mm 0,0 UV-I 23 W/m² 0,1 °C -2,9 °C 24,1 km/h (4 Bft)
08.01.2019 12:30 1,3 °C 92 % 1017,1 hPa 0,0 mm 19,2 km/h (3 Bft) W 270 ° 0 min 0,000 mm 0,0 UV-I 21 W/m² 0,1 °C -3,5 °C 24,1 km/h (4 Bft)
08.01.2019 12:31 1,3 °C 92 % 1017,1 hPa 0,0 mm 21,4 km/h (4 Bft) W 270 ° 0 min 0,000 mm 0,0 UV-I 21 W/m² 0,1 °C -3,8 °C 38,6 km/h (5 Bft)
08.01.2019 12:32 1,3 °C 92 % 1017,0 hPa 0,0 mm 20,0 km/h (4 Bft) W-SW 257 ° 0 min 0,000 mm 0,0 UV-I 18 W/m² 0,1 °C -3,6 °C 27,4 km/h (4 Bft)
08.01.2019 12:33 1,3 °C 92 % 1017,0 hPa 0,0 mm 19,8 km/h (3 Bft) W 270 ° 0 min 0,000 mm 0,0 UV-I 12 W/m² 0,1 °C -3,6 °C 25,7 km/h (4 Bft)
08.01.2019 12:34 1,3 °C 92 % 1017,0 hPa 0,0 mm 18,2 km/h (3 Bft) W 275 ° 0 min 0,000 mm 0,0 UV-I 12 W/m² 0,1 °C -3,3 °C 27,4 km/h (4 Bft)
08.01.2019 12:35 1,3 °C 92 % 1017,1 hPa 0,2 mm 15,1 km/h (3 Bft) W-SW 250 ° 0 min 0,000 mm 0,0 UV-I 14 W/m² 0,1 °C -2,8 °C 22,5 km/h (4 Bft)
08.01.2019 12:36 1,3 °C 92 % 1016,9 hPa 0,0 mm 14,5 km/h (3 Bft) W 261 ° 0 min 0,000 mm 0,0 UV-I 18 W/m² 0,1 °C -2,7 °C 25,7 km/h (4 Bft)
08.01.2019 12:37 1,3 °C 92 % 1016,9 hPa 0,0 mm 15,7 km/h (3 Bft) W-SW 248 ° 0 min 0,000 mm 0,0 UV-I 19 W/m² 0,1 °C -2,9 °C 22,5 km/h (4 Bft)
08.01.2019 12:38 1,3 °C 92 % 1017,0 hPa 0,0 mm 23,7 km/h (4 Bft) W 273 ° 0 min 0,000 mm 0,0 UV-I 19 W/m² 0,1 °C -4,1 °C 32,2 km/h (5 Bft)
08.01.2019 12:39 1,3 °C 92 % 1017,0 hPa 0,0 mm 17,7 km/h (3 Bft) W 268 ° 0 min 0,000 mm 0,0 UV-I 19 W/m² 0,1 °C -3,3 °C 30,6 km/h (5 Bft)
08.01.2019 12:40 1,3 °C 92 % 1017,0 hPa 0,0 mm 17,3 km/h (3 Bft) W-SW 237 ° 0 min 0,000 mm 0,0 UV-I 19 W/m² 0,1 °C -3,2 °C 27,4 km/h (4 Bft)
08.01.2019 12:41 1,3 °C 92 % 1017,0 hPa 0,0 mm 20,4 km/h (4 Bft) W 278 ° 0 min 0,000 mm 0,0 UV-I 18 W/m² 0,1 °C -3,7 °C 29,0 km/h (5 Bft)
08.01.2019 12:42 1,3 °C 92 % 1017,0 hPa 0,0 mm 12,7 km/h (3 Bft) W 262 ° 0 min 0,000 mm 0,0 UV-I 19 W/m² 0,1 °C -2,4 °C 19,3 km/h (3 Bft)
08.01.2019 12:43 1,3 °C 92 % 1016,9 hPa 0,0 mm 15,1 km/h (3 Bft) W 274 ° 0 min 0,000 mm 0,0 UV-I 19 W/m² 0,1 °C -2,8 °C 29,0 km/h (5 Bft)
08.01.2019 12:44 1,3 °C 92 % 1016,9 hPa 0,0 mm 15,4 km/h (3 Bft) W-SW 245 ° 0 min 0,000 mm 0,0 UV-I 18 W/m² 0,1 °C -2,9 °C 24,1 km/h (4 Bft)
08.01.2019 12:45 1,3 °C 92 % 1017,0 hPa 0,2 mm 25,0 km/h (4 Bft) W 272 ° 0 min 0,000 mm 0,0 UV-I 19 W/m² 0,1 °C -4,2 °C 37,0 km/h (5 Bft)
08.01.2019 12:46 1,3 °C 92 % 1016,9 hPa 0,0 mm 16,5 km/h (3 Bft) W-SW 257 ° 0 min 0,000 mm 0,0 UV-I 18 W/m² 0,1 °C -3,1 °C 27,4 km/h (4 Bft)
08.01.2019 12:47 1,3 °C 92 % 1016,9 hPa 0,0 mm 24,4 km/h (4 Bft) W-NW 293 ° 0 min 0,000 mm 0,0 UV-I 16 W/m² 0,1 °C -4,2 °C 32,2 km/h (5 Bft)
08.01.2019 12:48 1,2 °C 92 % 1016,9 hPa 0,0 mm 17,7 km/h (3 Bft) W-NW 290 ° 0 min 0,000 mm 0,0 UV-I 18 W/m² 0,0 °C -3,4 °C 27,4 km/h (4 Bft)
08.01.2019 12:49 1,2 °C 92 % 1016,9 hPa 0,0 mm 14,3 km/h (3 Bft) W 279 ° 0 min 0,000 mm 0,0 UV-I 18 W/m² 0,0 °C -2,8 °C 17,7 km/h (3 Bft)
08.01.2019 12:50 1,3 °C 92 % 1016,9 hPa 0,0 mm 11,0 km/h (2 Bft) W 271 ° 0 min 0,000 mm 0,0 UV-I 21 W/m² 0,1 °C -2,0 °C 14,5 km/h (3 Bft)
08.01.2019 12:51 1,2 °C 92 % 1016,9 hPa 0,0 mm 12,3 km/h (3 Bft) W-NW 287 ° 0 min 0,000 mm 0,0 UV-I 19 W/m² 0,0 °C -2,4 °C 17,7 km/h (3 Bft)
08.01.2019 12:52 1,2 °C 92 % 1016,9 hPa 0,0 mm 16,1 km/h (3 Bft) W-SW 244 ° 0 min 0,000 mm 0,0 UV-I 19 W/m² 0,0 °C -3,1 °C 20,9 km/h (4 Bft)
08.01.2019 12:53 1,2 °C 93 % 1016,8 hPa 0,0 mm 16,2 km/h (3 Bft) W 269 ° 0 min 0,000 mm 0,0 UV-I 19 W/m² 0,2 °C -3,1 °C 24,1 km/h (4 Bft)
08.01.2019 12:54 1,2 °C 92 % 1016,9 hPa 0,0 mm 23,7 km/h (4 Bft) NW 315 ° 0 min 0,000 mm 0,0 UV-I 18 W/m² 0,0 °C -4,2 °C 35,4 km/h (5 Bft)
08.01.2019 12:55 1,2 °C 92 % 1016,8 hPa 0,0 mm 20,6 km/h (4 Bft) W-NW 284 ° 0 min 0,000 mm 0,0 UV-I 18 W/m² 0,0 °C -3,8 °C 30,6 km/h (5 Bft)
08.01.2019 12:56 1,2 °C 92 % 1016,9 hPa 0,0 mm 23,3 km/h (4 Bft) W 265 ° 0 min 0,000 mm 0,0 UV-I 18 W/m² 0,0 °C -4,2 °C 30,6 km/h (5 Bft)
08.01.2019 12:57 1,2 °C 92 % 1016,9 hPa 0,2 mm 19,3 km/h (3 Bft) W-SW 247 ° 0 min 0,000 mm 0,0 UV-I 16 W/m² 0,0 °C -3,6 °C 25,7 km/h (4 Bft)
08.01.2019 12:58 1,2 °C 92 % 1016,9 hPa 0,0 mm 11,8 km/h (2 Bft) W-SW 254 ° 0 min 0,000 mm 0,0 UV-I 14 W/m² 0,0 °C -2,3 °C 19,3 km/h (3 Bft)
08.01.2019 12:59 1,2 °C 92 % 1016,9 hPa 0,0 mm 18,0 km/h (3 Bft) S-SW 206 ° 0 min 0,000 mm 0,0 UV-I 12 W/m² 0,0 °C -3,4 °C 30,6 km/h (5 Bft)
08.01.2019 13:00 1,2 °C 92 % 1016,9 hPa 0,0 mm 23,4 km/h (4 Bft) W-SW 258 ° 0 min 0,000 mm 0,0 UV-I 12 W/m² 0,0 °C -4,2 °C 35,4 km/h (5 Bft)
08.01.2019 13:01 1,2 °C 92 % 1016,9 hPa 0,0 mm 20,6 km/h (4 Bft) W 267 ° 0 min 0,026 mm 0,0 UV-I 12 W/m² 0,0 °C -3,8 °C 25,7 km/h (4 Bft)
08.01.2019 13:02 1,2 °C 92 % 1016,7 hPa 0,0 mm 16,4 km/h (3 Bft) W 270 ° 0 min 0,000 mm 0,0 UV-I 11 W/m² 0,0 °C -3,2 °C 22,5 km/h (4 Bft)
08.01.2019 13:03 1,2 °C 92 % 1016,9 hPa 0,0 mm 16,1 km/h (3 Bft) W-SW 247 ° 0 min 0,000 mm 0,0 UV-I 12 W/m² 0,0 °C -3,1 °C 20,9 km/h (4 Bft)
08.01.2019 13:04 1,2 °C 92 % 1016,8 hPa 0,0 mm 12,6 km/h (3 Bft) W-SW 257 ° 0 min 0,000 mm 0,0 UV-I 16 W/m² 0,0 °C -2,5 °C 17,7 km/h (3 Bft)
08.01.2019 13:05 1,2 °C 92 % 1016,8 hPa 0,0 mm 17,8 km/h (3 Bft) W 269 ° 0 min 0,000 mm 0,0 UV-I 18 W/m² 0,0 °C -3,4 °C 22,5 km/h (4 Bft)
08.01.2019 13:06 1,2 °C 92 % 1016,8 hPa 0,2 mm 19,0 km/h (3 Bft) W-SW 238 ° 0 min 0,000 mm 0,0 UV-I 14 W/m² 0,0 °C -3,6 °C 29,0 km/h (5 Bft)
08.01.2019 13:07 1,1 °C 92 % 1016,8 hPa 0,0 mm 12,5 km/h (3 Bft) W-SW 252 ° 0 min 0,000 mm 0,0 UV-I 14 W/m² -0,1 °C -2,6 °C 19,3 km/h (3 Bft)
08.01.2019 13:08 1,1 °C 92 % 1016,8 hPa 0,0 mm 15,3 km/h (3 Bft) W-SW 258 ° 0 min 0,000 mm 0,0 UV-I 16 W/m² -0,1 °C -3,1 °C 17,7 km/h (3 Bft)
08.01.2019 13:09 1,2 °C 92 % 1016,8 hPa 0,0 mm 13,4 km/h (3 Bft) W-SW 246 ° 0 min 0,000 mm 0,0 UV-I 18 W/m² 0,0 °C -2,6 °C 22,5 km/h (4 Bft)
08.01.2019 13:10 1,1 °C 92 % 1016,7 hPa 0,0 mm 16,1 km/h (3 Bft) W 281 ° 0 min 0,000 mm 0,0 UV-I 19 W/m² -0,1 °C -3,3 °C 22,5 km/h (4 Bft)
08.01.2019 13:11 1,1 °C 92 % 1016,7 hPa 0,0 mm 15,3 km/h (3 Bft) W 270 ° 0 min 0,000 mm 0,0 UV-I 19 W/m² -0,1 °C -3,1 °C 20,9 km/h (4 Bft)
08.01.2019 13:12 1,1 °C 92 % 1016,7 hPa 0,0 mm 16,0 km/h (3 Bft) W 268 ° 0 min 0,000 mm 0,0 UV-I 19 W/m² -0,1 °C -3,2 °C 22,5 km/h (4 Bft)
08.01.2019 13:13 1,1 °C 92 % 1016,6 hPa 0,0 mm 16,7 km/h (3 Bft) W 265 ° 0 min 0,000 mm 0,0 UV-I 21 W/m² -0,1 °C -3,4 °C 22,5 km/h (4 Bft)
08.01.2019 13:14 1,1 °C 92 % 1016,6 hPa 0,0 mm 24,9 km/h (4 Bft) W 279 ° 0 min 0,000 mm 0,0 UV-I 18 W/m² -0,1 °C -4,5 °C 32,2 km/h (5 Bft)
08.01.2019 13:15 1,1 °C 93 % 1016,6 hPa 0,0 mm 15,9 km/h (3 Bft) W 281 ° 0 min 0,000 mm 0,0 UV-I 18 W/m² 0,1 °C -3,2 °C 27,4 km/h (4 Bft)
08.01.2019 13:16 1,1 °C 92 % 1016,5 hPa 0,0 mm 13,9 km/h (3 Bft) W 265 ° 0 min 0,000 mm 0,0 UV-I 19 W/m² -0,1 °C -2,9 °C 22,5 km/h (4 Bft)
08.01.2019 13:17 1,1 °C 93 % 1016,6 hPa 0,2 mm 15,0 km/h (3 Bft) W-SW 254 ° 0 min 0,000 mm 0,0 UV-I 21 W/m² 0,1 °C -3,1 °C 22,5 km/h (4 Bft)
08.01.2019 13:18 1,1 °C 93 % 1016,5 hPa 0,0 mm 14,1 km/h (3 Bft) W-NW 288 ° 0 min 0,000 mm 0,0 UV-I 23 W/m² 0,1 °C -2,9 °C 29,0 km/h (5 Bft)
08.01.2019 13:19 1,1 °C 93 % 1016,5 hPa 0,0 mm 19,7 km/h (3 Bft) W-SW 251 ° 0 min 0,000 mm 0,0 UV-I 18 W/m² 0,1 °C -3,8 °C 32,2 km/h (5 Bft)
08.01.2019 13:20 1,1 °C 93 % 1016,6 hPa 0,0 mm 13,5 km/h (3 Bft) W 264 ° 0 min 0,000 mm 0,0 UV-I 16 W/m² 0,1 °C -2,8 °C 22,5 km/h (4 Bft)
08.01.2019 13:21 1,1 °C 93 % 1016,5 hPa 0,0 mm 19,2 km/h (3 Bft) W 264 ° 0 min 0,000 mm 0,0 UV-I 16 W/m² 0,1 °C -3,7 °C 24,1 km/h (4 Bft)
08.01.2019 13:22 1,1 °C 93 % 1016,5 hPa 0,0 mm 16,7 km/h (3 Bft) W 273 ° 0 min 0,000 mm 0,0 UV-I 18 W/m² 0,1 °C -3,4 °C 22,5 km/h (4 Bft)
08.01.2019 13:23 1,1 °C 93 % 1016,5 hPa 0,0 mm 11,7 km/h (2 Bft) W-SW 250 ° 0 min 0,000 mm 0,0 UV-I 21 W/m² 0,1 °C -2,4 °C 19,3 km/h (3 Bft)
08.01.2019 13:24 1,1 °C 93 % 1016,6 hPa 0,0 mm 17,6 km/h (3 Bft) W-NW 294 ° 0 min 0,000 mm 0,0 UV-I 19 W/m² 0,1 °C -3,5 °C 33,8 km/h (5 Bft)
08.01.2019 13:25 1,1 °C 93 % 1016,5 hPa 0,0 mm 19,5 km/h (3 Bft) W 259 ° 0 min 0,000 mm 0,0 UV-I 18 W/m² 0,1 °C -3,8 °C 27,4 km/h (4 Bft)
08.01.2019 13:26 1,1 °C 93 % 1016,5 hPa 0,0 mm 19,1 km/h (3 Bft) W 280 ° 0 min 0,000 mm 0,0 UV-I 19 W/m² 0,1 °C -3,7 °C 25,7 km/h (4 Bft)
08.01.2019 13:27 1,1 °C 93 % 1016,4 hPa 0,2 mm 19,9 km/h (4 Bft) W-SW 258 ° 0 min 0,000 mm 0,0 UV-I 18 W/m² 0,1 °C -3,8 °C 25,7 km/h (4 Bft)
08.01.2019 13:28 1,1 °C 93 % 1016,5 hPa 0,0 mm 13,5 km/h (3 Bft) SW 221 ° 0 min 0,000 mm 0,0 UV-I 19 W/m² 0,1 °C -2,8 °C 20,9 km/h (4 Bft)
08.01.2019 13:29 1,1 °C 93 % 1016,4 hPa 0,0 mm 21,6 km/h (4 Bft) W 277 ° 0 min 0,000 mm 0,0 UV-I 28 W/m² 0,1 °C -4,1 °C 25,7 km/h (4 Bft)
08.01.2019 13:30 1,1 °C 93 % 1016,3 hPa 0,0 mm 20,1 km/h (4 Bft) N-NW 329 ° 0 min 0,000 mm 0,0 UV-I 46 W/m² 0,1 °C -3,9 °C 30,6 km/h (5 Bft)
08.01.2019 13:31 1,1 °C 93 % 1016,4 hPa 0,0 mm 17,3 km/h (3 Bft) W 279 ° 0 min 0,000 mm 0,0 UV-I 33 W/m² 0,1 °C -3,4 °C 25,7 km/h (4 Bft)
08.01.2019 13:32 1,1 °C 93 % 1016,4 hPa 0,0 mm 13,1 km/h (3 Bft) W 281 ° 0 min 0,000 mm 0,0 UV-I 30 W/m² 0,1 °C -2,7 °C 20,9 km/h (4 Bft)
08.01.2019 13:33 1,1 °C 93 % 1016,4 hPa 0,0 mm 17,3 km/h (3 Bft) NW 306 ° 0 min 0,000 mm 0,0 UV-I 30 W/m² 0,1 °C -3,4 °C 20,9 km/h (4 Bft)
08.01.2019 13:34 1,1 °C 93 % 1016,3 hPa 0,0 mm 20,4 km/h (4 Bft) W-NW 288 ° 0 min 0,000 mm 0,0 UV-I 33 W/m² 0,1 °C -3,9 °C 30,6 km/h (5 Bft)
08.01.2019 13:35 1,1 °C 93 % 1016,4 hPa 0,2 mm 22,3 km/h (4 Bft) W-NW 291 ° 0 min 0,000 mm 0,0 UV-I 28 W/m² 0,1 °C -4,2 °C 38,6 km/h (5 Bft)
08.01.2019 13:36 1,1 °C 93 % 1016,3 hPa 0,0 mm 25,2 km/h (4 Bft) W-NW 288 ° 0 min 0,000 mm 0,0 UV-I 28 W/m² 0,1 °C -4,5 °C 40,2 km/h (6 Bft)
08.01.2019 13:37 1,1 °C 93 % 1016,2 hPa 0,0 mm 17,7 km/h (3 Bft) W-SW 244 ° 0 min 0,000 mm 0,0 UV-I 44 W/m² 0,1 °C -3,5 °C 33,8 km/h (5 Bft)
08.01.2019 13:38 1,1 °C 93 % 1016,3 hPa 0,0 mm 19,7 km/h (3 Bft) W-NW 288 ° 0 min 0,000 mm 0,0 UV-I 47 W/m² 0,1 °C -3,8 °C 43,5 km/h (6 Bft)
08.01.2019 13:39 1,2 °C 93 % 1016,2 hPa 0,0 mm 22,7 km/h (4 Bft) W 273 ° 0 min 0,000 mm 0,0 UV-I 42 W/m² 0,2 °C -4,1 °C 32,2 km/h (5 Bft)
08.01.2019 13:40 1,2 °C 93 % 1016,2 hPa 0,0 mm 28,5 km/h (4 Bft) W-SW 242 ° 0 min 0,000 mm 0,0 UV-I 42 W/m² 0,2 °C -4,8 °C 40,2 km/h (6 Bft)
08.01.2019 13:41 1,2 °C 93 % 1016,2 hPa 0,0 mm 27,3 km/h (4 Bft) W 269 ° 0 min 0,000 mm 0,0 UV-I 30 W/m² 0,2 °C -4,6 °C 37,0 km/h (5 Bft)
08.01.2019 13:42 1,2 °C 93 % 1016,2 hPa 0,2 mm 31,7 km/h (5 Bft) W 273 ° 0 min 0,000 mm 0,0 UV-I 21 W/m² 0,2 °C -5,1 °C 43,5 km/h (6 Bft)
08.01.2019 13:43 1,2 °C 93 % 1016,3 hPa 0,0 mm 27,7 km/h (4 Bft) W-NW 293 ° 0 min 0,000 mm 0,0 UV-I 30 W/m² 0,2 °C -4,7 °C 32,2 km/h (5 Bft)
08.01.2019 13:44 1,2 °C 93 % 1016,2 hPa 0,0 mm 22,3 km/h (4 Bft) W 281 ° 0 min 0,000 mm 0,0 UV-I 26 W/m² 0,2 °C -4,0 °C 32,2 km/h (5 Bft)
08.01.2019 13:45 1,2 °C 93 % 1016,3 hPa 0,0 mm 26,7 km/h (4 Bft) W 259 ° 0 min 0,000 mm 0,0 UV-I 30 W/m² 0,2 °C -4,6 °C 38,6 km/h (5 Bft)
08.01.2019 13:46 1,2 °C 93 % 1016,2 hPa 0,0 mm 18,8 km/h (3 Bft) W-SW 244 ° 0 min 0,000 mm 0,0 UV-I 37 W/m² 0,2 °C -3,6 °C 27,4 km/h (4 Bft)
08.01.2019 13:47 1,2 °C 93 % 1016,2 hPa 0,0 mm 16,8 km/h (3 Bft) W-SW 258 ° 0 min 0,000 mm 0,0 UV-I 35 W/m² 0,2 °C -3,2 °C 22,5 km/h (4 Bft)
08.01.2019 13:48 1,2 °C 93 % 1016,1 hPa 0,0 mm 16,9 km/h (3 Bft) W-NW 298 ° 0 min 0,000 mm 0,0 UV-I 40 W/m² 0,2 °C -3,3 °C 24,1 km/h (4 Bft)
08.01.2019 13:49 1,2 °C 93 % 1016,1 hPa 0,2 mm 15,6 km/h (3 Bft) W-NW 284 ° 0 min 0,000 mm 0,0 UV-I 46 W/m² 0,2 °C -3,0 °C 20,9 km/h (4 Bft)
08.01.2019 13:50 1,2 °C 93 % 1016,1 hPa 0,0 mm 16,2 km/h (3 Bft) W 275 ° 0 min 0,000 mm 0,0 UV-I 37 W/m² 0,2 °C -3,1 °C 25,7 km/h (4 Bft)
08.01.2019 13:51 1,2 °C 93 % 1016,1 hPa 0,0 mm 19,9 km/h (4 Bft) W 263 ° 0 min 0,000 mm 0,0 UV-I 37 W/m² 0,2 °C -3,7 °C 27,4 km/h (4 Bft)
08.01.2019 13:52 1,2 °C 93 % 1016,1 hPa 0,0 mm 22,6 km/h (4 Bft) W 268 ° 0 min 0,000 mm 0,0 UV-I 40 W/m² 0,2 °C -4,1 °C 30,6 km/h (5 Bft)
08.01.2019 13:53 1,2 °C 93 % 1016,1 hPa 0,0 mm 18,3 km/h (3 Bft) SW 219 ° 0 min 0,000 mm 0,0 UV-I 40 W/m² 0,2 °C -3,5 °C 24,1 km/h (4 Bft)
08.01.2019 13:54 1,2 °C 93 % 1016,1 hPa 0,2 mm 23,9 km/h (4 Bft) W 263 ° 0 min 0,000 mm 0,0 UV-I 42 W/m² 0,2 °C -4,2 °C 37,0 km/h (5 Bft)
08.01.2019 13:55 1,2 °C 93 % 1015,9 hPa 0,0 mm 20,8 km/h (4 Bft) W 265 ° 0 min 0,000 mm 0,0 UV-I 46 W/m² 0,2 °C -3,8 °C 27,4 km/h (4 Bft)
08.01.2019 13:56 1,2 °C 93 % 1016,1 hPa 0,0 mm 22,5 km/h (4 Bft) W 266 ° 0 min 0,000 mm 0,0 UV-I 46 W/m² 0,2 °C -4,1 °C 37,0 km/h (5 Bft)
08.01.2019 13:57 1,2 °C 93 % 1016,0 hPa 0,0 mm 24,1 km/h (4 Bft) W 263 ° 0 min 0,000 mm 0,0 UV-I 46 W/m² 0,2 °C -4,3 °C 40,2 km/h (6 Bft)
08.01.2019 13:58 1,2 °C 93 % 1016,1 hPa 0,0 mm 21,5 km/h (4 Bft) W-NW 284 ° 0 min 0,000 mm 0,0 UV-I 42 W/m² 0,2 °C -3,9 °C 30,6 km/h (5 Bft)
08.01.2019 13:59 1,2 °C 92 % 1016,1 hPa 0,2 mm 22,9 km/h (4 Bft) W-NW 283 ° 0 min 0,000 mm 0,0 UV-I 37 W/m² 0,0 °C -4,1 °C 38,6 km/h (5 Bft)
08.01.2019 14:00 1,2 °C 92 % 1016,0 hPa 0,0 mm 22,0 km/h (4 Bft) W 265 ° 0 min 0,000 mm 0,0 UV-I 40 W/m² 0,0 °C -4,0 °C 27,4 km/h (4 Bft)
08.01.2019 14:01 1,2 °C 92 % 1016,1 hPa 0,0 mm 21,3 km/h (4 Bft) W-SW 254 ° 0 min 0,025 mm 0,0 UV-I 39 W/m² 0,0 °C -3,9 °C 27,4 km/h (4 Bft)
08.01.2019 14:02 1,2 °C 92 % 1016,2 hPa 0,0 mm 19,6 km/h (3 Bft) W-NW 283 ° 0 min 0,000 mm 0,0 UV-I 39 W/m² 0,0 °C -3,7 °C 24,1 km/h (4 Bft)
08.01.2019 14:03 1,2 °C 92 % 1016,1 hPa 0,0 mm 20,4 km/h (4 Bft) W-SW 256 ° 0 min 0,000 mm 0,0 UV-I 44 W/m² 0,0 °C -3,8 °C 25,7 km/h (4 Bft)
08.01.2019 14:04 1,2 °C 92 % 1016,1 hPa 0,2 mm 26,6 km/h (4 Bft) W-NW 298 ° 0 min 0,000 mm 0,0 UV-I 47 W/m² 0,0 °C -4,5 °C 32,2 km/h (5 Bft)
08.01.2019 14:05 1,2 °C 92 % 1016,1 hPa 0,0 mm 20,2 km/h (4 Bft) W-NW 288 ° 0 min 0,000 mm 0,0 UV-I 51 W/m² 0,0 °C -3,8 °C 27,4 km/h (4 Bft)
08.01.2019 14:06 1,2 °C 92 % 1016,1 hPa 0,0 mm 22,7 km/h (4 Bft) W 266 ° 0 min 0,000 mm 0,0 UV-I 42 W/m² 0,0 °C -4,1 °C 32,2 km/h (5 Bft)
08.01.2019 14:07 1,2 °C 92 % 1016,2 hPa 0,0 mm 23,1 km/h (4 Bft) W-SW 257 ° 0 min 0,000 mm 0,0 UV-I 39 W/m² 0,0 °C -4,1 °C 32,2 km/h (5 Bft)
08.01.2019 14:08 1,2 °C 92 % 1016,2 hPa 0,0 mm 19,4 km/h (3 Bft) W 273 ° 0 min 0,000 mm 0,0 UV-I 44 W/m² 0,0 °C -3,6 °C 25,7 km/h (4 Bft)
08.01.2019 14:09 1,2 °C 92 % 1016,3 hPa 0,2 mm 22,8 km/h (4 Bft) W 265 ° 0 min 0,000 mm 0,0 UV-I 39 W/m² 0,0 °C -4,1 °C 32,2 km/h (5 Bft)
08.01.2019 14:10 1,2 °C 93 % 1016,3 hPa 0,0 mm 16,2 km/h (3 Bft) W 267 ° 0 min 0,000 mm 0,0 UV-I 39 W/m² 0,2 °C -3,1 °C 24,1 km/h (4 Bft)
08.01.2019 14:11 1,1 °C 93 % 1016,3 hPa 0,0 mm 26,8 km/h (4 Bft) NW 317 ° 0 min 0,000 mm 0,0 UV-I 28 W/m² 0,1 °C -4,7 °C 38,6 km/h (5 Bft)
08.01.2019 14:12 1,1 °C 93 % 1016,4 hPa 0,0 mm 25,8 km/h (4 Bft) W 271 ° 0 min 0,000 mm 0,0 UV-I 39 W/m² 0,1 °C -4,6 °C 38,6 km/h (5 Bft)
08.01.2019 14:13 1,1 °C 93 % 1016,4 hPa 0,0 mm 17,2 km/h (3 Bft) W 271 ° 0 min 0,000 mm 0,0 UV-I 35 W/m² 0,1 °C -3,4 °C 30,6 km/h (5 Bft)
08.01.2019 14:14 1,1 °C 93 % 1016,4 hPa 0,2 mm 20,5 km/h (4 Bft) W-NW 287 ° 0 min 0,000 mm 0,0 UV-I 33 W/m² 0,1 °C -3,9 °C 37,0 km/h (5 Bft)
08.01.2019 14:15 1,1 °C 92 % 1016,3 hPa 0,0 mm 25,3 km/h (4 Bft) W-NW 294 ° 0 min 0,000 mm 0,0 UV-I 32 W/m² -0,1 °C -4,5 °C 40,2 km/h (6 Bft)
08.01.2019 14:16 1,1 °C 92 % 1016,5 hPa 0,0 mm 25,2 km/h (4 Bft) W 260 ° 0 min 0,000 mm 0,0 UV-I 26 W/m² -0,1 °C -4,5 °C 35,4 km/h (5 Bft)
08.01.2019 14:17 1,1 °C 92 % 1016,5 hPa 0,0 mm 26,4 km/h (4 Bft) W 263 ° 0 min 0,000 mm 0,0 UV-I 21 W/m² -0,1 °C -4,7 °C 43,5 km/h (6 Bft)
08.01.2019 14:18 1,1 °C 92 % 1016,4 hPa 0,0 mm 15,5 km/h (3 Bft) W 259 ° 0 min 0,000 mm 0,0 UV-I 21 W/m² -0,1 °C -3,1 °C 20,9 km/h (4 Bft)
08.01.2019 14:19 1,1 °C 92 % 1016,5 hPa 0,2 mm 23,2 km/h (4 Bft) W 267 ° 0 min 0,000 mm 0,0 UV-I 19 W/m² -0,1 °C -4,3 °C 33,8 km/h (5 Bft)
08.01.2019 14:20 1,1 °C 92 % 1016,5 hPa 0,0 mm 23,7 km/h (4 Bft) W-SW 257 ° 0 min 0,000 mm 0,0 UV-I 19 W/m² -0,1 °C -4,3 °C 32,2 km/h (5 Bft)
08.01.2019 14:21 1,1 °C 92 % 1016,4 hPa 0,0 mm 29,0 km/h (5 Bft) W-NW 285 ° 0 min 0,000 mm 0,0 UV-I 21 W/m² -0,1 °C -4,9 °C 41,8 km/h (6 Bft)
08.01.2019 14:22 1,1 °C 92 % 1016,5 hPa 0,0 mm 18,5 km/h (3 Bft) W-NW 288 ° 0 min 0,000 mm 0,0 UV-I 25 W/m² -0,1 °C -3,6 °C 24,1 km/h (4 Bft)
08.01.2019 14:23 1,1 °C 92 % 1016,6 hPa 0,0 mm 26,9 km/h (4 Bft) W 261 ° 0 min 0,000 mm 0,0 UV-I 32 W/m² -0,1 °C -4,7 °C 41,8 km/h (6 Bft)
08.01.2019 14:24 1,1 °C 92 % 1016,5 hPa 0,0 mm 23,6 km/h (4 Bft) W 263 ° 0 min 0,000 mm 0,0 UV-I 32 W/m² -0,1 °C -4,3 °C 30,6 km/h (5 Bft)
08.01.2019 14:25 1,0 °C 92 % 1016,6 hPa 0,0 mm 20,8 km/h (4 Bft) W 262 ° 0 min 0,000 mm 0,0 UV-I 33 W/m² -0,2 °C -4,1 °C 27,4 km/h (4 Bft)
08.01.2019 14:26 1,1 °C 92 % 1016,5 hPa 0,2 mm 18,9 km/h (3 Bft) W 260 ° 0 min 0,000 mm 0,0 UV-I 35 W/m² -0,1 °C -3,7 °C 32,2 km/h (5 Bft)
08.01.2019 14:27 1,1 °C 92 % 1016,6 hPa 0,0 mm 18,8 km/h (3 Bft) W 268 ° 0 min 0,000 mm 0,0 UV-I 37 W/m² -0,1 °C -3,7 °C 24,1 km/h (4 Bft)
08.01.2019 14:28 1,1 °C 92 % 1016,6 hPa 0,0 mm 24,4 km/h (4 Bft) W 264 ° 0 min 0,000 mm 0,0 UV-I 37 W/m² -0,1 °C -4,4 °C 32,2 km/h (5 Bft)
08.01.2019 14:29 1,1 °C 92 % 1016,5 hPa 0,0 mm 19,9 km/h (4 Bft) W-SW 238 ° 0 min 0,000 mm 0,0 UV-I 39 W/m² -0,1 °C -3,8 °C 27,4 km/h (4 Bft)
08.01.2019 14:30 1,1 °C 92 % 1016,5 hPa 0,0 mm 20,1 km/h (4 Bft) W 264 ° 0 min 0,000 mm 0,0 UV-I 47 W/m² -0,1 °C -3,9 °C 30,6 km/h (5 Bft)
08.01.2019 14:31 1,1 °C 92 % 1016,5 hPa 0,0 mm 21,3 km/h (4 Bft) NW 310 ° 0 min 0,000 mm 0,0 UV-I 42 W/m² -0,1 °C -4,0 °C 32,2 km/h (5 Bft)
08.01.2019 14:32 1,1 °C 92 % 1016,5 hPa 0,0 mm 18,0 km/h (3 Bft) W 259 ° 0 min 0,000 mm 0,0 UV-I 33 W/m² -0,1 °C -3,6 °C 29,0 km/h (5 Bft)
08.01.2019 14:33 1,1 °C 92 % 1016,4 hPa 0,0 mm 13,2 km/h (3 Bft) W 272 ° 0 min 0,000 mm 0,0 UV-I 28 W/m² -0,1 °C -2,7 °C 20,9 km/h (4 Bft)
08.01.2019 14:34 1,1 °C 92 % 1016,4 hPa 0,2 mm 14,4 km/h (3 Bft) W-SW 258 ° 0 min 0,000 mm 0,0 UV-I 26 W/m² -0,1 °C -3,0 °C 17,7 km/h (3 Bft)
08.01.2019 14:35 1,0 °C 92 % 1016,4 hPa 0,0 mm 24,4 km/h (4 Bft) W-NW 289 ° 0 min 0,000 mm 0,0 UV-I 26 W/m² -0,2 °C -4,6 °C 35,4 km/h (5 Bft)
08.01.2019 14:36 1,0 °C 92 % 1016,4 hPa 0,0 mm 17,6 km/h (3 Bft) W-NW 286 ° 0 min 0,000 mm 0,0 UV-I 26 W/m² -0,2 °C -3,6 °C 25,7 km/h (4 Bft)
08.01.2019 14:37 1,1 °C 92 % 1016,5 hPa 0,0 mm 13,9 km/h (3 Bft) W-SW 257 ° 0 min 0,000 mm 0,0 UV-I 28 W/m² -0,1 °C -2,9 °C 19,3 km/h (3 Bft)
08.01.2019 14:38 1,1 °C 92 % 1016,5 hPa 0,0 mm 18,6 km/h (3 Bft) W 265 ° 0 min 0,000 mm 0,0 UV-I 30 W/m² -0,1 °C -3,7 °C 24,1 km/h (4 Bft)
08.01.2019 14:39 1,1 °C 91 % 1016,4 hPa 0,0 mm 17,2 km/h (3 Bft) W 261 ° 0 min 0,000 mm 0,0 UV-I 30 W/m² -0,2 °C -3,4 °C 22,5 km/h (4 Bft)
08.01.2019 14:40 1,1 °C 91 % 1016,5 hPa 0,0 mm 11,7 km/h (2 Bft) W 279 ° 0 min 0,000 mm 0,0 UV-I 23 W/m² -0,2 °C -2,4 °C 17,7 km/h (3 Bft)
08.01.2019 14:41 1,1 °C 91 % 1016,4 hPa 0,0 mm 16,2 km/h (3 Bft) W 278 ° 0 min 0,000 mm 0,0 UV-I 25 W/m² -0,2 °C -3,3 °C 24,1 km/h (4 Bft)
08.01.2019 14:42 1,1 °C 91 % 1016,4 hPa 0,2 mm 18,1 km/h (3 Bft) W-NW 291 ° 0 min 0,000 mm 0,0 UV-I 30 W/m² -0,2 °C -3,6 °C 20,9 km/h (4 Bft)
08.01.2019 14:43 1,1 °C 91 % 1016,4 hPa 0,0 mm 12,5 km/h (3 Bft) W 275 ° 0 min 0,000 mm 0,0 UV-I 26 W/m² -0,2 °C -2,6 °C 16,1 km/h (3 Bft)
08.01.2019 14:44 1,1 °C 91 % 1016,4 hPa 0,0 mm 17,8 km/h (3 Bft) NW 306 ° 0 min 0,000 mm 0,0 UV-I 26 W/m² -0,2 °C -3,5 °C 22,5 km/h (4 Bft)
08.01.2019 14:45 1,1 °C 91 % 1016,4 hPa 0,0 mm 18,9 km/h (3 Bft) SW 234 ° 0 min 0,000 mm 0,0 UV-I 21 W/m² -0,2 °C -3,7 °C 24,1 km/h (4 Bft)
08.01.2019 14:46 1,1 °C 91 % 1016,5 hPa 0,0 mm 21,1 km/h (4 Bft) W 281 ° 0 min 0,000 mm 0,0 UV-I 21 W/m² -0,2 °C -4,0 °C 29,0 km/h (5 Bft)
08.01.2019 14:47 1,1 °C 91 % 1016,5 hPa 0,0 mm 16,2 km/h (3 Bft) W 272 ° 0 min 0,000 mm 0,0 UV-I 32 W/m² -0,2 °C -3,3 °C 22,5 km/h (4 Bft)
08.01.2019 14:48 1,1 °C 91 % 1016,5 hPa 0,0 mm 15,2 km/h (3 Bft) W-NW 294 ° 0 min 0,000 mm 0,0 UV-I 28 W/m² -0,2 °C -3,1 °C 24,1 km/h (4 Bft)
08.01.2019 14:49 1,1 °C 91 % 1016,5 hPa 0,0 mm 12,9 km/h (3 Bft) W 277 ° 0 min 0,000 mm 0,0 UV-I 25 W/m² -0,2 °C -2,7 °C 19,3 km/h (3 Bft)
08.01.2019 14:50 1,1 °C 91 % 1016,5 hPa 0,0 mm 15,2 km/h (3 Bft) W 271 ° 0 min 0,000 mm 0,0 UV-I 23 W/m² -0,2 °C -3,1 °C 24,1 km/h (4 Bft)
08.01.2019 14:51 1,1 °C 91 % 1016,5 hPa 0,0 mm 21,9 km/h (4 Bft) W-SW 242 ° 0 min 0,000 mm 0,0 UV-I 23 W/m² -0,2 °C -4,1 °C 29,0 km/h (5 Bft)
08.01.2019 14:52 1,1 °C 91 % 1016,5 hPa 0,2 mm 23,3 km/h (4 Bft) W-SW 252 ° 0 min 0,000 mm 0,0 UV-I 26 W/m² -0,2 °C -4,3 °C 38,6 km/h (5 Bft)
08.01.2019 14:53 1,1 °C 91 % 1016,4 hPa 0,0 mm 22,4 km/h (4 Bft) W-NW 289 ° 0 min 0,000 mm 0,0 UV-I 25 W/m² -0,2 °C -4,2 °C 38,6 km/h (5 Bft)
08.01.2019 14:54 1,1 °C 91 % 1016,4 hPa 0,0 mm 20,7 km/h (4 Bft) NW 318 ° 0 min 0,000 mm 0,0 UV-I 25 W/m² -0,2 °C -4,0 °C 32,2 km/h (5 Bft)
08.01.2019 14:55 1,1 °C 91 % 1016,4 hPa 0,0 mm 16,5 km/h (3 Bft) W-NW 297 ° 0 min 0,000 mm 0,0 UV-I 28 W/m² -0,2 °C -3,3 °C 27,4 km/h (4 Bft)
08.01.2019 14:56 1,1 °C 91 % 1016,5 hPa 0,0 mm 22,4 km/h (4 Bft) W 264 ° 0 min 0,000 mm 0,0 UV-I 35 W/m² -0,2 °C -4,2 °C 30,6 km/h (5 Bft)
08.01.2019 14:57 1,1 °C 91 % 1016,4 hPa 0,0 mm 19,2 km/h (3 Bft) W 281 ° 0 min 0,000 mm 0,0 UV-I 35 W/m² -0,2 °C -3,7 °C 25,7 km/h (4 Bft)
08.01.2019 14:58 1,1 °C 91 % 1016,4 hPa 0,0 mm 20,1 km/h (4 Bft) W-NW 283 ° 0 min 0,000 mm 0,0 UV-I 33 W/m² -0,2 °C -3,9 °C 40,2 km/h (6 Bft)
08.01.2019 14:59 1,1 °C 91 % 1016,3 hPa 0,0 mm 23,7 km/h (4 Bft) W 277 ° 0 min 0,000 mm 0,0 UV-I 26 W/m² -0,2 °C -4,3 °C 32,2 km/h (5 Bft)
08.01.2019 15:00 1,1 °C 91 % 1016,4 hPa 0,0 mm 19,8 km/h (3 Bft) W 277 ° 0 min 0,000 mm 0,0 UV-I 32 W/m² -0,2 °C -3,8 °C 33,8 km/h (5 Bft)
08.01.2019 15:01 1,1 °C 91 % 1016,4 hPa 0,0 mm 12,6 km/h (3 Bft) W 277 ° 0 min 0,026 mm 0,0 UV-I 30 W/m² -0,2 °C -2,6 °C 17,7 km/h (3 Bft)
08.01.2019 15:02 1,1 °C 91 % 1016,3 hPa 0,0 mm 19,4 km/h (3 Bft) W 269 ° 0 min 0,000 mm 0,0 UV-I 32 W/m² -0,2 °C -3,8 °C 29,0 km/h (5 Bft)
08.01.2019 15:03 1,1 °C 91 % 1016,5 hPa 0,2 mm 24,0 km/h (4 Bft) SW 235 ° 0 min 0,000 mm 0,0 UV-I 30 W/m² -0,2 °C -4,4 °C 33,8 km/h (5 Bft)
08.01.2019 15:04 1,1 °C 91 % 1016,2 hPa 0,0 mm 21,5 km/h (4 Bft) W-SW 240 ° 0 min 0,000 mm 0,0 UV-I 25 W/m² -0,2 °C -4,1 °C 41,8 km/h (6 Bft)
08.01.2019 15:05 1,1 °C 91 % 1016,3 hPa 0,0 mm 19,5 km/h (3 Bft) W-NW 291 ° 0 min 0,000 mm 0,0 UV-I 32 W/m² -0,2 °C -3,8 °C 27,4 km/h (4 Bft)
08.01.2019 15:06 1,1 °C 90 % 1016,2 hPa 0,0 mm 21,0 km/h (4 Bft) W 262 ° 0 min 0,000 mm 0,0 UV-I 30 W/m² -0,4 °C -4,0 °C 35,4 km/h (5 Bft)
08.01.2019 15:07 1,1 °C 90 % 1016,2 hPa 0,0 mm 20,6 km/h (4 Bft) W-SW 244 ° 0 min 0,000 mm 0,0 UV-I 39 W/m² -0,4 °C -3,9 °C 30,6 km/h (5 Bft)
08.01.2019 15:08 1,1 °C 90 % 1016,2 hPa 0,0 mm 18,4 km/h (3 Bft) W-NW 283 ° 0 min 0,000 mm 0,0 UV-I 39 W/m² -0,4 °C -3,6 °C 25,7 km/h (4 Bft)
08.01.2019 15:09 1,1 °C 90 % 1016,2 hPa 0,0 mm 27,4 km/h (4 Bft) W 266 ° 0 min 0,000 mm 0,0 UV-I 49 W/m² -0,4 °C -4,8 °C 38,6 km/h (5 Bft)
08.01.2019 15:10 1,1 °C 90 % 1016,2 hPa 0,0 mm 23,3 km/h (4 Bft) W 267 ° 0 min 0,000 mm 0,0 UV-I 49 W/m² -0,4 °C -4,3 °C 40,2 km/h (6 Bft)
08.01.2019 15:11 1,1 °C 90 % 1016,2 hPa 0,0 mm 23,1 km/h (4 Bft) W 266 ° 0 min 0,000 mm 0,0 UV-I 39 W/m² -0,4 °C -4,3 °C 33,8 km/h (5 Bft)
08.01.2019 15:12 1,1 °C 90 % 1016,2 hPa 0,0 mm 20,1 km/h (4 Bft) W-NW 283 ° 0 min 0,000 mm 0,0 UV-I 32 W/m² -0,4 °C -3,9 °C 32,2 km/h (5 Bft)
08.01.2019 15:13 1,1 °C 90 % 1016,2 hPa 0,0 mm 14,8 km/h (3 Bft) W 271 ° 0 min 0,000 mm 0,0 UV-I 35 W/m² -0,4 °C -3,0 °C 30,6 km/h (5 Bft)
08.01.2019 15:14 1,1 °C 90 % 1016,3 hPa 0,0 mm 26,2 km/h (4 Bft) W 265 ° 0 min 0,000 mm 0,0 UV-I 33 W/m² -0,4 °C -4,6 °C 41,8 km/h (6 Bft)
08.01.2019 15:15 1,1 °C 90 % 1016,2 hPa 0,0 mm 16,6 km/h (3 Bft) W-SW 256 ° 0 min 0,000 mm 0,0 UV-I 37 W/m² -0,4 °C -3,3 °C 20,9 km/h (4 Bft)
08.01.2019 15:16 1,1 °C 90 % 1016,1 hPa 0,2 mm 12,9 km/h (3 Bft) W 276 ° 0 min 0,000 mm 0,0 UV-I 30 W/m² -0,4 °C -2,7 °C 20,9 km/h (4 Bft)
08.01.2019 15:17 1,1 °C 90 % 1016,2 hPa 0,0 mm 20,4 km/h (4 Bft) W 269 ° 0 min 0,000 mm 0,0 UV-I 25 W/m² -0,4 °C -3,9 °C 29,0 km/h (5 Bft)
08.01.2019 15:18 1,1 °C 90 % 1016,1 hPa 0,0 mm 18,7 km/h (3 Bft) W 271 ° 0 min 0,000 mm 0,0 UV-I 21 W/m² -0,4 °C -3,7 °C 30,6 km/h (5 Bft)
08.01.2019 15:19 1,1 °C 90 % 1016,1 hPa 0,0 mm 20,3 km/h (4 Bft) W 268 ° 0 min 0,000 mm 0,0 UV-I 21 W/m² -0,4 °C -3,9 °C 30,6 km/h (5 Bft)
08.01.2019 15:20 1,1 °C 90 % 1016,2 hPa 0,0 mm 20,0 km/h (4 Bft) W 277 ° 0 min 0,000 mm 0,0 UV-I 19 W/m² -0,4 °C -3,9 °C 29,0 km/h (5 Bft)
08.01.2019 15:21 1,1 °C 90 % 1016,2 hPa 0,0 mm 25,4 km/h (4 Bft) W-SW 257 ° 0 min 0,000 mm 0,0 UV-I 19 W/m² -0,4 °C -4,5 °C 46,7 km/h (6 Bft)
08.01.2019 15:22 1,2 °C 90 % 1016,2 hPa 0,0 mm 22,5 km/h (4 Bft) W-NW 285 ° 0 min 0,000 mm 0,0 UV-I 16 W/m² -0,3 °C -4,1 °C 40,2 km/h (6 Bft)
08.01.2019 15:23 1,1 °C 90 % 1016,2 hPa 0,0 mm 15,1 km/h (3 Bft) W 260 ° 0 min 0,000 mm 0,0 UV-I 16 W/m² -0,4 °C -3,1 °C 20,9 km/h (4 Bft)
08.01.2019 15:24 1,1 °C 90 % 1016,3 hPa 0,0 mm 19,5 km/h (3 Bft) W 267 ° 0 min 0,000 mm 0,0 UV-I 16 W/m² -0,4 °C -3,8 °C 25,7 km/h (4 Bft)
08.01.2019 15:25 1,1 °C 90 % 1016,2 hPa 0,0 mm 21,0 km/h (4 Bft) W 268 ° 0 min 0,000 mm 0,0 UV-I 18 W/m² -0,4 °C -4,0 °C 32,2 km/h (5 Bft)
08.01.2019 15:26 1,1 °C 90 % 1016,2 hPa 0,0 mm 18,1 km/h (3 Bft) W-NW 291 ° 0 min 0,000 mm 0,0 UV-I 18 W/m² -0,4 °C -3,6 °C 30,6 km/h (5 Bft)
08.01.2019 15:27 1,1 °C 90 % 1016,3 hPa 0,0 mm 19,5 km/h (3 Bft) W-NW 289 ° 0 min 0,000 mm 0,0 UV-I 16 W/m² -0,4 °C -3,8 °C 32,2 km/h (5 Bft)
08.01.2019 15:28 1,1 °C 90 % 1016,3 hPa 0,0 mm 21,2 km/h (4 Bft) W-NW 289 ° 0 min 0,000 mm 0,0 UV-I 18 W/m² -0,4 °C -4,0 °C 32,2 km/h (5 Bft)
08.01.2019 15:29 1,1 °C 90 % 1016,4 hPa 0,2 mm 15,7 km/h (3 Bft) W-SW 250 ° 0 min 0,000 mm 0,0 UV-I 18 W/m² -0,4 °C -3,2 °C 25,7 km/h (4 Bft)
08.01.2019 15:30 1,1 °C 90 % 1016,3 hPa 0,0 mm 13,3 km/h (3 Bft) W-SW 242 ° 0 min 0,000 mm 0,0 UV-I 25 W/m² -0,4 °C -2,7 °C 19,3 km/h (3 Bft)
08.01.2019 15:31 1,1 °C 90 % 1016,3 hPa 0,0 mm 16,1 km/h (3 Bft) W 275 ° 0 min 0,000 mm 0,0 UV-I 25 W/m² -0,4 °C -3,3 °C 29,0 km/h (5 Bft)
08.01.2019 15:32 1,1 °C 90 % 1016,3 hPa 0,0 mm 19,5 km/h (3 Bft) W-SW 245 ° 0 min 0,000 mm 0,0 UV-I 25 W/m² -0,4 °C -3,8 °C 32,2 km/h (5 Bft)
08.01.2019 15:33 1,1 °C 90 % 1016,2 hPa 0,0 mm 16,8 km/h (3 Bft) W-NW 283 ° 0 min 0,000 mm 0,0 UV-I 23 W/m² -0,4 °C -3,4 °C 29,0 km/h (5 Bft)
08.01.2019 15:34 1,1 °C 90 % 1016,4 hPa 0,0 mm 19,0 km/h (3 Bft) W-SW 239 ° 0 min 0,000 mm 0,0 UV-I 30 W/m² -0,4 °C -3,7 °C 30,6 km/h (5 Bft)
08.01.2019 15:35 1,1 °C 90 % 1016,3 hPa 0,0 mm 11,5 km/h (2 Bft) W-NW 290 ° 0 min 0,000 mm 0,0 UV-I 26 W/m² -0,4 °C -2,4 °C 17,7 km/h (3 Bft)
08.01.2019 15:36 1,1 °C 90 % 1016,3 hPa 0,0 mm 16,5 km/h (3 Bft) W 261 ° 0 min 0,000 mm 0,0 UV-I 26 W/m² -0,4 °C -3,3 °C 24,1 km/h (4 Bft)
08.01.2019 15:37 1,1 °C 89 % 1016,3 hPa 0,0 mm 21,5 km/h (4 Bft) W 274 ° 0 min 0,000 mm 0,0 UV-I 26 W/m² -0,5 °C -4,1 °C 29,0 km/h (5 Bft)
08.01.2019 15:38 1,1 °C 89 % 1016,2 hPa 0,0 mm 19,0 km/h (3 Bft) W 277 ° 0 min 0,000 mm 0,0 UV-I 26 W/m² -0,5 °C -3,7 °C 25,7 km/h (4 Bft)
08.01.2019 15:39 1,1 °C 89 % 1016,2 hPa 0,0 mm 14,5 km/h (3 Bft) W-SW 250 ° 0 min 0,000 mm 0,0 UV-I 26 W/m² -0,5 °C -3,0 °C 22,5 km/h (4 Bft)
08.01.2019 15:40 1,2 °C 89 % 1016,3 hPa 0,0 mm 15,1 km/h (3 Bft) SW 220 ° 0 min 0,000 mm 0,0 UV-I 35 W/m² -0,4 °C -3,0 °C 20,9 km/h (4 Bft)
08.01.2019 15:41 1,1 °C 89 % 1016,2 hPa 0,0 mm 15,6 km/h (3 Bft) W 262 ° 0 min 0,000 mm 0,0 UV-I 39 W/m² -0,5 °C -3,2 °C 37,0 km/h (5 Bft)
08.01.2019 15:42 1,1 °C 89 % 1016,3 hPa 0,0 mm 20,9 km/h (4 Bft) W 268 ° 0 min 0,000 mm 0,0 UV-I 40 W/m² -0,5 °C -4,0 °C 35,4 km/h (5 Bft)
08.01.2019 15:43 1,1 °C 89 % 1016,3 hPa 0,0 mm 16,7 km/h (3 Bft) W 279 ° 0 min 0,000 mm 0,0 UV-I 39 W/m² -0,5 °C -3,4 °C 22,5 km/h (4 Bft)
08.01.2019 15:44 1,2 °C 89 % 1016,3 hPa 0,0 mm 20,5 km/h (4 Bft) W 264 ° 0 min 0,000 mm 0,0 UV-I 42 W/m² -0,4 °C -3,8 °C 27,4 km/h (4 Bft)
08.01.2019 15:45 1,2 °C 89 % 1016,3 hPa 0,0 mm 14,3 km/h (3 Bft) W 261 ° 0 min 0,000 mm 0,0 UV-I 44 W/m² -0,4 °C -2,8 °C 20,9 km/h (4 Bft)
08.01.2019 15:46 1,2 °C 89 % 1016,4 hPa 0,0 mm 14,8 km/h (3 Bft) SW 235 ° 0 min 0,000 mm 0,0 UV-I 44 W/m² -0,4 °C -2,9 °C 22,5 km/h (4 Bft)
08.01.2019 15:47 1,2 °C 89 % 1016,3 hPa 0,0 mm 18,7 km/h (3 Bft) W 263 ° 0 min 0,000 mm 0,0 UV-I 40 W/m² -0,4 °C -3,5 °C 27,4 km/h (4 Bft)
08.01.2019 15:48 1,2 °C 89 % 1016,2 hPa 0,0 mm 17,7 km/h (3 Bft) W 265 ° 0 min 0,000 mm 0,0 UV-I 30 W/m² -0,4 °C -3,4 °C 20,9 km/h (4 Bft)
08.01.2019 15:49 1,2 °C 89 % 1016,3 hPa 0,2 mm 20,9 km/h (4 Bft) W-NW 300 ° 0 min 0,000 mm 0,0 UV-I 26 W/m² -0,4 °C -3,9 °C 32,2 km/h (5 Bft)
08.01.2019 15:50 1,2 °C 89 % 1016,3 hPa 0,0 mm 27,1 km/h (4 Bft) NW 307 ° 0 min 0,000 mm 0,0 UV-I 25 W/m² -0,4 °C -4,6 °C 37,0 km/h (5 Bft)
08.01.2019 15:51 1,2 °C 89 % 1016,3 hPa 0,0 mm 21,0 km/h (4 Bft) W 275 ° 0 min 0,000 mm 0,0 UV-I 23 W/m² -0,4 °C -3,9 °C 35,4 km/h (5 Bft)
08.01.2019 15:52 1,2 °C 89 % 1016,3 hPa 0,0 mm 20,9 km/h (4 Bft) SW 223 ° 0 min 0,000 mm 0,0 UV-I 19 W/m² -0,4 °C -3,9 °C 32,2 km/h (5 Bft)
08.01.2019 15:53 1,1 °C 89 % 1016,3 hPa 0,0 mm 17,7 km/h (3 Bft) W-SW 252 ° 0 min 0,000 mm 0,0 UV-I 21 W/m² -0,5 °C -3,5 °C 25,7 km/h (4 Bft)
08.01.2019 15:54 1,1 °C 89 % 1016,3 hPa 0,0 mm 13,2 km/h (3 Bft) W-NW 284 ° 0 min 0,000 mm 0,0 UV-I 21 W/m² -0,5 °C -2,7 °C 22,5 km/h (4 Bft)
08.01.2019 15:55 1,2 °C 89 % 1016,2 hPa 0,0 mm 18,7 km/h (3 Bft) W-NW 286 ° 0 min 0,000 mm 0,0 UV-I 23 W/m² -0,4 °C -3,5 °C 24,1 km/h (4 Bft)
08.01.2019 15:56 1,2 °C 89 % 1016,2 hPa 0,0 mm 16,1 km/h (3 Bft) W-SW 257 ° 0 min 0,000 mm 0,0 UV-I 23 W/m² -0,4 °C -3,1 °C 25,7 km/h (4 Bft)
08.01.2019 15:57 1,2 °C 89 % 1016,2 hPa 0,0 mm 18,3 km/h (3 Bft) W-SW 249 ° 0 min 0,000 mm 0,0 UV-I 18 W/m² -0,4 °C -3,5 °C 24,1 km/h (4 Bft)
08.01.2019 15:58 1,2 °C 89 % 1016,2 hPa 0,0 mm 24,9 km/h (4 Bft) W 279 ° 0 min 0,000 mm 0,0 UV-I 16 W/m² -0,4 °C -4,4 °C 33,8 km/h (5 Bft)
08.01.2019 15:59 1,2 °C 89 % 1016,2 hPa 0,0 mm 18,3 km/h (3 Bft) W 281 ° 0 min 0,000 mm 0,0 UV-I 14 W/m² -0,4 °C -3,5 °C 24,1 km/h (4 Bft)
08.01.2019 16:00 1,2 °C 89 % 1016,1 hPa 0,0 mm 19,6 km/h (3 Bft) W-SW 244 ° 0 min 0,000 mm 0,0 UV-I 14 W/m² -0,4 °C -3,7 °C 25,7 km/h (4 Bft)
08.01.2019 16:01 1,2 °C 89 % 1016,1 hPa 0,0 mm 20,0 km/h (4 Bft) W-SW 254 ° 0 min 0,025 mm 0,0 UV-I 14 W/m² -0,4 °C -3,7 °C 29,0 km/h (5 Bft)
08.01.2019 16:02 1,2 °C 89 % 1016,2 hPa 0,0 mm 19,4 km/h (3 Bft) W-NW 300 ° 0 min 0,000 mm 0,0 UV-I 14 W/m² -0,4 °C -3,6 °C 24,1 km/h (4 Bft)
08.01.2019 16:03 1,2 °C 89 % 1016,0 hPa 0,0 mm 11,3 km/h (2 Bft) SW 234 ° 0 min 0,000 mm 0,0 UV-I 12 W/m² -0,4 °C -2,2 °C 17,7 km/h (3 Bft)
08.01.2019 16:04 1,1 °C 89 % 1016,0 hPa 0,0 mm 13,5 km/h (3 Bft) W 260 ° 0 min 0,000 mm 0,0 UV-I 12 W/m² -0,5 °C -2,8 °C 25,7 km/h (4 Bft)
08.01.2019 16:05 1,1 °C 89 % 1016,0 hPa 0,0 mm 20,8 km/h (4 Bft) W 265 ° 0 min 0,000 mm 0,0 UV-I 11 W/m² -0,5 °C -4,0 °C 38,6 km/h (5 Bft)
08.01.2019 16:06 1,1 °C 89 % 1016,0 hPa 0,0 mm 24,3 km/h (4 Bft) W 272 ° 0 min 0,000 mm 0,0 UV-I 11 W/m² -0,5 °C -4,4 °C 33,8 km/h (5 Bft)
08.01.2019 16:07 1,1 °C 89 % 1015,9 hPa 0,0 mm 20,9 km/h (4 Bft) W 265 ° 0 min 0,000 mm 0,0 UV-I 9 W/m² -0,5 °C -4,0 °C 29,0 km/h (5 Bft)
08.01.2019 16:08 1,1 °C 89 % 1016,0 hPa 0,2 mm 18,1 km/h (3 Bft) W 262 ° 0 min 0,000 mm 0,0 UV-I 9 W/m² -0,5 °C -3,6 °C 24,1 km/h (4 Bft)
08.01.2019 16:09 1,1 °C 89 % 1015,9 hPa 0,0 mm 13,5 km/h (3 Bft) W-SW 252 ° 0 min 0,000 mm 0,0 UV-I 7 W/m² -0,5 °C -2,8 °C 19,3 km/h (3 Bft)
08.01.2019 16:10 1,1 °C 89 % 1016,0 hPa 0,0 mm 12,2 km/h (2 Bft) W 265 ° 0 min 0,000 mm 0,0 UV-I 7 W/m² -0,5 °C -2,5 °C 20,9 km/h (4 Bft)
08.01.2019 16:11 1,1 °C 89 % 1015,9 hPa 0,0 mm 18,2 km/h (3 Bft) W 261 ° 0 min 0,000 mm 0,0 UV-I 7 W/m² -0,5 °C -3,6 °C 24,1 km/h (4 Bft)
08.01.2019 16:12 1,1 °C 89 % 1015,9 hPa 0,0 mm 18,6 km/h (3 Bft) W 280 ° 0 min 0,000 mm 0,0 UV-I 7 W/m² -0,5 °C -3,7 °C 22,5 km/h (4 Bft)
08.01.2019 16:13 1,1 °C 89 % 1016,1 hPa 0,0 mm 19,2 km/h (3 Bft) W 277 ° 0 min 0,000 mm 0,0 UV-I 7 W/m² -0,5 °C -3,7 °C 24,1 km/h (4 Bft)
08.01.2019 16:14 1,1 °C 89 % 1016,0 hPa 0,0 mm 17,8 km/h (3 Bft) S-SW 209 ° 0 min 0,000 mm 0,0 UV-I 7 W/m² -0,5 °C -3,5 °C 25,7 km/h (4 Bft)
08.01.2019 16:15 1,1 °C 89 % 1015,9 hPa 0,0 mm 13,8 km/h (3 Bft) W 275 ° 0 min 0,000 mm 0,0 UV-I 5 W/m² -0,5 °C -2,8 °C 24,1 km/h (4 Bft)
08.01.2019 16:16 1,1 °C 89 % 1015,9 hPa 0,0 mm 18,6 km/h (3 Bft) W 267 ° 0 min 0,000 mm 0,0 UV-I 7 W/m² -0,5 °C -3,7 °C 29,0 km/h (5 Bft)
08.01.2019 16:17 1,1 °C 89 % 1016,1 hPa 0,0 mm 19,0 km/h (3 Bft) W 281 ° 0 min 0,000 mm 0,0 UV-I 7 W/m² -0,5 °C -3,7 °C 29,0 km/h (5 Bft)
08.01.2019 16:18 1,1 °C 89 % 1015,9 hPa 0,0 mm 17,9 km/h (3 Bft) W-SW 244 ° 0 min 0,000 mm 0,0 UV-I 7 W/m² -0,5 °C -3,5 °C 30,6 km/h (5 Bft)
08.01.2019 16:19 1,1 °C 89 % 1015,9 hPa 0,0 mm 19,7 km/h (3 Bft) NW 315 ° 0 min 0,000 mm 0,0 UV-I 5 W/m² -0,5 °C -3,8 °C 29,0 km/h (5 Bft)
08.01.2019 16:20 1,1 °C 89 % 1015,9 hPa 0,0 mm 18,2 km/h (3 Bft) W 262 ° 0 min 0,000 mm 0,0 UV-I 7 W/m² -0,5 °C -3,6 °C 27,4 km/h (4 Bft)
08.01.2019 16:21 1,1 °C 89 % 1015,9 hPa 0,0 mm 18,3 km/h (3 Bft) W-NW 289 ° 0 min 0,000 mm 0,0 UV-I 5 W/m² -0,5 °C -3,6 °C 30,6 km/h (5 Bft)
08.01.2019 16:22 1,1 °C 89 % 1016,1 hPa 0,0 mm 25,7 km/h (4 Bft) W-SW 254 ° 0 min 0,000 mm 0,0 UV-I 7 W/m² -0,5 °C -4,6 °C 48,3 km/h (6 Bft)
08.01.2019 16:23 1,1 °C 89 % 1015,8 hPa 0,0 mm 24,1 km/h (4 Bft) W-SW 245 ° 0 min 0,000 mm 0,0 UV-I 5 W/m² -0,5 °C -4,4 °C 45,1 km/h (6 Bft)
08.01.2019 16:24 1,1 °C 89 % 1015,9 hPa 0,0 mm 14,1 km/h (3 Bft) SW 234 ° 0 min 0,000 mm 0,0 UV-I 7 W/m² -0,5 °C -2,9 °C 24,1 km/h (4 Bft)
08.01.2019 16:25 1,1 °C 89 % 1015,8 hPa 0,0 mm 15,6 km/h (3 Bft) W-SW 245 ° 0 min 0,000 mm 0,0 UV-I 7 W/m² -0,5 °C -3,2 °C 24,1 km/h (4 Bft)
08.01.2019 16:26 1,1 °C 89 % 1015,8 hPa 0,0 mm 16,8 km/h (3 Bft) W 267 ° 0 min 0,000 mm 0,0 UV-I 5 W/m² -0,5 °C -3,4 °C 22,5 km/h (4 Bft)
08.01.2019 16:27 1,1 °C 89 % 1015,9 hPa 0,0 mm 16,6 km/h (3 Bft) W 278 ° 0 min 0,000 mm 0,0 UV-I 5 W/m² -0,5 °C -3,3 °C 25,7 km/h (4 Bft)
08.01.2019 16:28 1,1 °C 89 % 1015,8 hPa 0,0 mm 15,8 km/h (3 Bft) W 263 ° 0 min 0,000 mm 0,0 UV-I 5 W/m² -0,5 °C -3,2 °C 24,1 km/h (4 Bft)
08.01.2019 16:29 1,1 °C 89 % 1015,8 hPa 0,0 mm 16,6 km/h (3 Bft) W-SW 256 ° 0 min 0,000 mm 0,0 UV-I 5 W/m² -0,5 °C -3,3 °C 25,7 km/h (4 Bft)
08.01.2019 16:30 1,1 °C 89 % 1015,8 hPa 0,0 mm 22,2 km/h (4 Bft) W 274 ° 0 min 0,000 mm 0,0 UV-I 5 W/m² -0,5 °C -4,2 °C 35,4 km/h (5 Bft)
08.01.2019 16:31 1,1 °C 89 % 1015,8 hPa 0,0 mm 14,7 km/h (3 Bft) W 275 ° 0 min 0,000 mm 0,0 UV-I 5 W/m² -0,5 °C -3,0 °C 20,9 km/h (4 Bft)
08.01.2019 16:32 1,1 °C 89 % 1015,8 hPa 0,0 mm 18,0 km/h (3 Bft) W 261 ° 0 min 0,000 mm 0,0 UV-I 5 W/m² -0,5 °C -3,6 °C 24,1 km/h (4 Bft)
08.01.2019 16:33 1,1 °C 89 % 1015,7 hPa 0,0 mm 16,4 km/h (3 Bft) W-SW 258 ° 0 min 0,000 mm 0,0 UV-I 5 W/m² -0,5 °C -3,3 °C 20,9 km/h (4 Bft)
08.01.2019 16:34 1,1 °C 89 % 1015,7 hPa 0,0 mm 19,6 km/h (3 Bft) W-NW 296 ° 0 min 0,000 mm 0,0 UV-I 0 W/m² -0,5 °C -3,8 °C 27,4 km/h (4 Bft)
08.01.2019 16:35 1,1 °C 89 % 1015,8 hPa 0,0 mm 18,4 km/h (3 Bft) SW 222 ° 0 min 0,000 mm 0,0 UV-I 0 W/m² -0,5 °C -3,6 °C 25,7 km/h (4 Bft)
08.01.2019 16:36 1,1 °C 89 % 1015,8 hPa 0,0 mm 17,1 km/h (3 Bft) W 277 ° 0 min 0,000 mm 0,0 UV-I 0 W/m² -0,5 °C -3,4 °C 29,0 km/h (5 Bft)
08.01.2019 16:37 1,1 °C 89 % 1015,7 hPa 0,0 mm 15,4 km/h (3 Bft) W 267 ° 0 min 0,000 mm 0,0 UV-I 0 W/m² -0,5 °C -3,1 °C 25,7 km/h (4 Bft)
08.01.2019 16:38 1,1 °C 89 % 1015,7 hPa 0,0 mm 13,8 km/h (3 Bft) W-NW 288 ° 0 min 0,000 mm 0,0 UV-I 0 W/m² -0,5 °C -2,8 °C 20,9 km/h (4 Bft)
08.01.2019 16:39 1,0 °C 89 % 1015,7 hPa 0,0 mm 19,6 km/h (3 Bft) W-SW 249 ° 0 min 0,000 mm 0,0 UV-I 0 W/m² -0,6 °C -3,9 °C 27,4 km/h (4 Bft)
08.01.2019 16:40 1,0 °C 89 % 1015,7 hPa 0,0 mm 20,5 km/h (4 Bft) W-NW 292 ° 0 min 0,000 mm 0,0 UV-I 0 W/m² -0,6 °C -4,1 °C 30,6 km/h (5 Bft)
08.01.2019 16:41 1,0 °C 89 % 1015,6 hPa 0,2 mm 19,0 km/h (3 Bft) SW 224 ° 0 min 0,000 mm 0,0 UV-I 0 W/m² -0,6 °C -3,8 °C 27,4 km/h (4 Bft)
08.01.2019 16:42 1,0 °C 89 % 1015,6 hPa 0,0 mm 21,5 km/h (4 Bft) W 272 ° 0 min 0,000 mm 0,0 UV-I 0 W/m² -0,6 °C -4,2 °C 27,4 km/h (4 Bft)
08.01.2019 16:43 1,0 °C 89 % 1015,7 hPa 0,0 mm 24,7 km/h (4 Bft) W-SW 257 ° 0 min 0,000 mm 0,0 UV-I 0 W/m² -0,6 °C -4,6 °C 35,4 km/h (5 Bft)
08.01.2019 16:44 1,0 °C 89 % 1015,7 hPa 0,0 mm 19,7 km/h (3 Bft) W 263 ° 0 min 0,000 mm 0,0 UV-I 0 W/m² -0,6 °C -3,9 °C 38,6 km/h (5 Bft)
08.01.2019 16:45 1,0 °C 89 % 1015,6 hPa 0,0 mm 19,1 km/h (3 Bft) W-SW 243 ° 0 min 0,000 mm 0,0 UV-I 0 W/m² -0,6 °C -3,9 °C 29,0 km/h (5 Bft)
08.01.2019 16:46 1,0 °C 89 % 1015,6 hPa 0,0 mm 21,4 km/h (4 Bft) W 277 ° 0 min 0,000 mm 0,0 UV-I 0 W/m² -0,6 °C -4,2 °C 33,8 km/h (5 Bft)
08.01.2019 16:47 1,1 °C 89 % 1015,6 hPa 0,0 mm 20,9 km/h (4 Bft) W-SW 255 ° 0 min 0,000 mm 0,0 UV-I 0 W/m² -0,5 °C -4,0 °C 32,2 km/h (5 Bft)
08.01.2019 16:48 1,0 °C 89 % 1015,6 hPa 0,0 mm 26,4 km/h (4 Bft) W-SW 254 ° 0 min 0,000 mm 0,0 UV-I 0 W/m² -0,6 °C -4,8 °C 38,6 km/h (5 Bft)
08.01.2019 16:49 1,0 °C 89 % 1015,5 hPa 0,0 mm 27,1 km/h (4 Bft) W 274 ° 0 min 0,000 mm 0,0 UV-I 0 W/m² -0,6 °C -4,9 °C 43,5 km/h (6 Bft)
08.01.2019 16:50 1,0 °C 89 % 1015,6 hPa 0,0 mm 23,8 km/h (4 Bft) W-SW 246 ° 0 min 0,000 mm 0,0 UV-I 0 W/m² -0,6 °C -4,5 °C 33,8 km/h (5 Bft)
08.01.2019 16:51 1,0 °C 89 % 1015,6 hPa 0,0 mm 21,0 km/h (4 Bft) W-SW 244 ° 0 min 0,000 mm 0,0 UV-I 0 W/m² -0,6 °C -4,1 °C 33,8 km/h (5 Bft)
08.01.2019 16:52 1,1 °C 89 % 1015,5 hPa 0,0 mm 17,4 km/h (3 Bft) W-SW 254 ° 0 min 0,000 mm 0,0 UV-I 0 W/m² -0,5 °C -3,5 °C 25,7 km/h (4 Bft)
08.01.2019 16:53 1,0 °C 89 % 1015,6 hPa 0,0 mm 17,2 km/h (3 Bft) W-SW 250 ° 0 min 0,000 mm 0,0 UV-I 0 W/m² -0,6 °C -3,6 °C 24,1 km/h (4 Bft)
08.01.2019 16:54 1,1 °C 89 % 1015,5 hPa 0,0 mm 13,0 km/h (3 Bft) SW 220 ° 0 min 0,000 mm 0,0 UV-I 0 W/m² -0,5 °C -2,7 °C 22,5 km/h (4 Bft)
08.01.2019 16:55 1,1 °C 89 % 1015,5 hPa 0,0 mm 16,9 km/h (3 Bft) W 263 ° 0 min 0,000 mm 0,0 UV-I 0 W/m² -0,5 °C -3,4 °C 20,9 km/h (4 Bft)
08.01.2019 16:56 1,1 °C 89 % 1015,4 hPa 0,0 mm 18,0 km/h (3 Bft) W 273 ° 0 min 0,000 mm 0,0 UV-I 0 W/m² -0,5 °C -3,6 °C 27,4 km/h (4 Bft)
08.01.2019 16:57 1,1 °C 89 % 1015,5 hPa 0,0 mm 23,5 km/h (4 Bft) W-NW 291 ° 0 min 0,000 mm 0,0 UV-I 0 W/m² -0,5 °C -4,3 °C 41,8 km/h (6 Bft)
08.01.2019 16:58 1,1 °C 89 % 1015,4 hPa 0,0 mm 22,6 km/h (4 Bft) W-NW 286 ° 0 min 0,000 mm 0,0 UV-I 0 W/m² -0,5 °C -4,2 °C 33,8 km/h (5 Bft)
08.01.2019 16:59 1,1 °C 89 % 1015,4 hPa 0,0 mm 24,2 km/h (4 Bft) W 271 ° 0 min 0,000 mm 0,0 UV-I 0 W/m² -0,5 °C -4,4 °C 43,5 km/h (6 Bft)
08.01.2019 17:00 1,1 °C 89 % 1015,4 hPa 0,0 mm 33,1 km/h (5 Bft) W 262 ° 0 min 0,000 mm 0,0 UV-I 0 W/m² -0,5 °C -5,3 °C 45,1 km/h (6 Bft)
08.01.2019 17:01 1,1 °C 88 % 1015,3 hPa 0,0 mm 20,4 km/h (4 Bft) W 271 ° 0 min 0,025 mm 0,0 UV-I 0 W/m² -0,7 °C -3,9 °C 25,7 km/h (4 Bft)
08.01.2019 17:02 1,1 °C 89 % 1015,4 hPa 0,0 mm 16,1 km/h (3 Bft) W 267 ° 0 min 0,000 mm 0,0 UV-I 0 W/m² -0,5 °C -3,3 °C 19,3 km/h (3 Bft)
08.01.2019 17:03 1,1 °C 89 % 1015,5 hPa 0,0 mm 26,1 km/h (4 Bft) W 271 ° 0 min 0,000 mm 0,0 UV-I 0 W/m² -0,5 °C -4,6 °C 33,8 km/h (5 Bft)
08.01.2019 17:04 1,1 °C 89 % 1015,4 hPa 0,0 mm 20,7 km/h (4 Bft) W 273 ° 0 min 0,000 mm 0,0 UV-I 0 W/m² -0,5 °C -4,0 °C 24,1 km/h (4 Bft)
08.01.2019 17:05 1,1 °C 89 % 1015,3 hPa 0,0 mm 18,1 km/h (3 Bft) SW 229 ° 0 min 0,000 mm 0,0 UV-I 0 W/m² -0,5 °C -3,6 °C 29,0 km/h (5 Bft)
08.01.2019 17:06 1,1 °C 89 % 1015,3 hPa 0,0 mm 23,0 km/h (4 Bft) W-NW 292 ° 0 min 0,000 mm 0,0 UV-I 0 W/m² -0,5 °C -4,3 °C 33,8 km/h (5 Bft)
08.01.2019 17:07 1,1 °C 89 % 1015,4 hPa 0,0 mm 20,9 km/h (4 Bft) W 273 ° 0 min 0,000 mm 0,0 UV-I 0 W/m² -0,5 °C -4,0 °C 25,7 km/h (4 Bft)
08.01.2019 17:08 1,1 °C 89 % 1015,5 hPa 0,0 mm 18,0 km/h (3 Bft) W-NW 288 ° 0 min 0,000 mm 0,0 UV-I 0 W/m² -0,5 °C -3,6 °C 27,4 km/h (4 Bft)
08.01.2019 17:09 1,1 °C 89 % 1015,5 hPa 0,0 mm 20,3 km/h (4 Bft) W-SW 248 ° 0 min 0,000 mm 0,0 UV-I 0 W/m² -0,5 °C -3,9 °C 38,6 km/h (5 Bft)
08.01.2019 17:10 1,1 °C 89 % 1015,5 hPa 0,0 mm 21,3 km/h (4 Bft) W-SW 246 ° 0 min 0,000 mm 0,0 UV-I 0 W/m² -0,5 °C -4,0 °C 29,0 km/h (5 Bft)
08.01.2019 17:11 1,1 °C 89 % 1015,5 hPa 0,0 mm 16,4 km/h (3 Bft) W-SW 250 ° 0 min 0,000 mm 0,0 UV-I 0 W/m² -0,5 °C -3,3 °C 20,9 km/h (4 Bft)
08.01.2019 17:12 1,1 °C 89 % 1015,4 hPa 0,0 mm 24,1 km/h (4 Bft) W-SW 238 ° 0 min 0,000 mm 0,0 UV-I 0 W/m² -0,5 °C -4,4 °C 33,8 km/h (5 Bft)
08.01.2019 17:13 1,1 °C 89 % 1015,4 hPa 0,0 mm 20,6 km/h (4 Bft) W-SW 248 ° 0 min 0,000 mm 0,0 UV-I 0 W/m² -0,5 °C -3,9 °C 29,0 km/h (5 Bft)
08.01.2019 17:14 1,1 °C 89 % 1015,3 hPa 0,0 mm 13,1 km/h (3 Bft) W-SW 245 ° 0 min 0,000 mm 0,0 UV-I 0 W/m² -0,5 °C -2,7 °C 22,5 km/h (4 Bft)
08.01.2019 17:15 1,1 °C 89 % 1015,4 hPa 0,0 mm 22,8 km/h (4 Bft) W-SW 250 ° 0 min 0,000 mm 0,0 UV-I 0 W/m² -0,5 °C -4,2 °C 30,6 km/h (5 Bft)
08.01.2019 17:16 1,0 °C 89 % 1015,3 hPa 0,0 mm 20,5 km/h (4 Bft) W 271 ° 0 min 0,000 mm 0,0 UV-I 0 W/m² -0,6 °C -4,1 °C 30,6 km/h (5 Bft)
08.01.2019 17:17 1,0 °C 89 % 1015,3 hPa 0,0 mm 19,2 km/h (3 Bft) W 275 ° 0 min 0,000 mm 0,0 UV-I 0 W/m² -0,6 °C -3,9 °C 22,5 km/h (4 Bft)
08.01.2019 17:18 1,0 °C 89 % 1015,4 hPa 0,0 mm 14,7 km/h (3 Bft) SW 214 ° 0 min 0,000 mm 0,0 UV-I 0 W/m² -0,6 °C -3,1 °C 22,5 km/h (4 Bft)
08.01.2019 17:19 1,0 °C 89 % 1015,3 hPa 0,0 mm 23,9 km/h (4 Bft) W 269 ° 0 min 0,000 mm 0,0 UV-I 0 W/m² -0,6 °C -4,5 °C 27,4 km/h (4 Bft)
08.01.2019 17:20 1,0 °C 90 % 1015,5 hPa 0,0 mm 26,6 km/h (4 Bft) W 277 ° 0 min 0,000 mm 0,0 UV-I 0 W/m² -0,5 °C -4,8 °C 32,2 km/h (5 Bft)
08.01.2019 17:21 0,9 °C 90 % 1015,4 hPa 0,0 mm 27,1 km/h (4 Bft) W 262 ° 0 min 0,000 mm 0,0 UV-I 0 W/m² -0,6 °C -5,0 °C 33,8 km/h (5 Bft)
08.01.2019 17:22 0,9 °C 90 % 1015,5 hPa 0,0 mm 18,2 km/h (3 Bft) S-SW 212 ° 0 min 0,000 mm 0,0 UV-I 0 W/m² -0,6 °C -3,8 °C 24,1 km/h (4 Bft)
08.01.2019 17:23 0,9 °C 90 % 1015,4 hPa 0,0 mm 16,5 km/h (3 Bft) W 272 ° 0 min 0,000 mm 0,0 UV-I 0 W/m² -0,6 °C -3,6 °C 22,5 km/h (4 Bft)
08.01.2019 17:24 0,9 °C 90 % 1015,5 hPa 0,0 mm 21,6 km/h (4 Bft) W 279 ° 0 min 0,000 mm 0,0 UV-I 0 W/m² -0,6 °C -4,3 °C 27,4 km/h (4 Bft)
08.01.2019 17:25 0,9 °C 90 % 1015,5 hPa 0,0 mm 19,1 km/h (3 Bft) W-SW 249 ° 0 min 0,000 mm 0,0 UV-I 0 W/m² -0,6 °C -4,0 °C 29,0 km/h (5 Bft)
08.01.2019 17:26 0,9 °C 90 % 1015,3 hPa 0,0 mm 25,7 km/h (4 Bft) W-SW 242 ° 0 min 0,000 mm 0,0 UV-I 0 W/m² -0,6 °C -4,8 °C 30,6 km/h (5 Bft)
08.01.2019 17:27 0,8 °C 90 % 1015,5 hPa 0,0 mm 21,7 km/h (4 Bft) W-NW 292 ° 0 min 0,000 mm 0,0 UV-I 0 W/m² -0,6 °C -4,5 °C 27,4 km/h (4 Bft)
08.01.2019 17:28 0,8 °C 90 % 1015,4 hPa 0,0 mm 18,5 km/h (3 Bft) W 279 ° 0 min 0,000 mm 0,0 UV-I 0 W/m² -0,6 °C -4,0 °C 25,7 km/h (4 Bft)
08.01.2019 17:29 0,8 °C 90 % 1015,5 hPa 0,0 mm 21,4 km/h (4 Bft) W-SW 252 ° 0 min 0,000 mm 0,0 UV-I 0 W/m² -0,6 °C -4,4 °C 29,0 km/h (5 Bft)
08.01.2019 17:30 0,8 °C 90 % 1015,5 hPa 0,0 mm 19,7 km/h (3 Bft) W 263 ° 0 min 0,000 mm 0,0 UV-I 0 W/m² -0,6 °C -4,2 °C 27,4 km/h (4 Bft)
08.01.2019 17:31 0,8 °C 91 % 1015,5 hPa 0,0 mm 20,1 km/h (4 Bft) W 263 ° 0 min 0,000 mm 0,0 UV-I 0 W/m² -0,5 °C -4,2 °C 38,6 km/h (5 Bft)
08.01.2019 17:32 0,8 °C 91 % 1015,4 hPa 0,0 mm 21,7 km/h (4 Bft) W 265 ° 0 min 0,000 mm 0,0 UV-I 0 W/m² -0,5 °C -4,5 °C 33,8 km/h (5 Bft)
08.01.2019 17:33 0,8 °C 91 % 1015,5 hPa 0,0 mm 20,5 km/h (4 Bft) W 269 ° 0 min 0,000 mm 0,0 UV-I 0 W/m² -0,5 °C -4,3 °C 30,6 km/h (5 Bft)
08.01.2019 17:34 0,7 °C 91 % 1015,5 hPa 0,0 mm 22,1 km/h (4 Bft) W 277 ° 0 min 0,000 mm 0,0 UV-I 0 W/m² -0,6 °C -4,6 °C 29,0 km/h (5 Bft)
08.01.2019 17:35 0,8 °C 91 % 1015,5 hPa 0,0 mm 18,2 km/h (3 Bft) W 267 ° 0 min 0,000 mm 0,0 UV-I 0 W/m² -0,5 °C -4,0 °C 29,0 km/h (5 Bft)
08.01.2019 17:36 0,7 °C 91 % 1015,5 hPa 0,0 mm 12,1 km/h (2 Bft) W 273 ° 0 min 0,000 mm 0,0 UV-I 0 W/m² -0,6 °C -3,0 °C 22,5 km/h (4 Bft)
08.01.2019 17:37 0,7 °C 91 % 1015,5 hPa 0,2 mm 17,6 km/h (3 Bft) W 265 ° 0 min 0,000 mm 0,0 UV-I 0 W/m² -0,6 °C -4,0 °C 22,5 km/h (4 Bft)
08.01.2019 17:38 0,7 °C 91 % 1015,6 hPa 0,0 mm 19,7 km/h (3 Bft) W 279 ° 0 min 0,000 mm 0,0 UV-I 0 W/m² -0,6 °C -4,3 °C 29,0 km/h (5 Bft)
08.01.2019 17:39 0,7 °C 91 % 1015,5 hPa 0,0 mm 20,4 km/h (4 Bft) W-NW 284 ° 0 min 0,000 mm 0,0 UV-I 0 W/m² -0,6 °C -4,4 °C 24,1 km/h (4 Bft)
08.01.2019 17:40 0,7 °C 91 % 1015,5 hPa 0,0 mm 18,2 km/h (3 Bft) W 261 ° 0 min 0,000 mm 0,0 UV-I 0 W/m² -0,6 °C -4,1 °C 25,7 km/h (4 Bft)
08.01.2019 17:41 0,7 °C 91 % 1015,6 hPa 0,0 mm 12,9 km/h (3 Bft) W 271 ° 0 min 0,000 mm 0,0 UV-I 0 W/m² -0,6 °C -3,1 °C 17,7 km/h (3 Bft)
08.01.2019 17:42 0,7 °C 91 % 1015,6 hPa 0,0 mm 10,9 km/h (2 Bft) W-SW 254 ° 0 min 0,000 mm 0,0 UV-I 0 W/m² -0,6 °C -2,7 °C 17,7 km/h (3 Bft)
08.01.2019 17:43 0,7 °C 92 % 1015,6 hPa 0,0 mm 13,5 km/h (3 Bft) W 269 ° 0 min 0,000 mm 0,0 UV-I 0 W/m² -0,4 °C -3,3 °C 17,7 km/h (3 Bft)
08.01.2019 17:44 0,7 °C 92 % 1015,6 hPa 0,0 mm 16,1 km/h (3 Bft) W-NW 286 ° 0 min 0,000 mm 0,0 UV-I 0 W/m² -0,4 °C -3,7 °C 20,9 km/h (4 Bft)
08.01.2019 17:45 0,6 °C 92 % 1015,5 hPa 0,0 mm 15,9 km/h (3 Bft) W 262 ° 0 min 0,000 mm 0,0 UV-I 0 W/m² -0,5 °C -3,8 °C 20,9 km/h (4 Bft)
08.01.2019 17:46 0,6 °C 92 % 1015,5 hPa 0,0 mm 20,3 km/h (4 Bft) W 278 ° 0 min 0,000 mm 0,0 UV-I 0 W/m² -0,5 °C -4,5 °C 27,4 km/h (4 Bft)
08.01.2019 17:47 0,6 °C 92 % 1015,5 hPa 0,0 mm 18,5 km/h (3 Bft) W 263 ° 0 min 0,000 mm 0,0 UV-I 0 W/m² -0,5 °C -4,3 °C 25,7 km/h (4 Bft)
08.01.2019 17:48 0,6 °C 92 % 1015,6 hPa 0,0 mm 19,5 km/h (3 Bft) W 263 ° 0 min 0,000 mm 0,0 UV-I 0 W/m² -0,5 °C -4,4 °C 24,1 km/h (4 Bft)
08.01.2019 17:49 0,6 °C 92 % 1015,5 hPa 0,0 mm 15,8 km/h (3 Bft) W-NW 294 ° 0 min 0,000 mm 0,0 UV-I 0 W/m² -0,5 °C -3,8 °C 22,5 km/h (4 Bft)
08.01.2019 17:50 0,5 °C 92 % 1015,5 hPa 0,0 mm 12,8 km/h (3 Bft) W-NW 299 ° 0 min 0,000 mm 0,0 UV-I 0 W/m² -0,6 °C -3,4 °C 19,3 km/h (3 Bft)
08.01.2019 17:51 0,5 °C 92 % 1015,5 hPa 0,0 mm 20,4 km/h (4 Bft) W 274 ° 0 min 0,000 mm 0,0 UV-I 0 W/m² -0,6 °C -4,7 °C 32,2 km/h (5 Bft)
08.01.2019 17:52 0,5 °C 92 % 1015,5 hPa 0,0 mm 19,0 km/h (3 Bft) W-SW 246 ° 0 min 0,000 mm 0,0 UV-I 0 W/m² -0,6 °C -4,5 °C 29,0 km/h (5 Bft)
08.01.2019 17:53 0,5 °C 92 % 1015,5 hPa 0,0 mm 21,3 km/h (4 Bft) W 268 ° 0 min 0,000 mm 0,0 UV-I 0 W/m² -0,6 °C -4,8 °C 29,0 km/h (5 Bft)
08.01.2019 17:54 0,4 °C 92 % 1015,4 hPa 0,0 mm 17,8 km/h (3 Bft) SW 226 ° 0 min 0,000 mm 0,0 UV-I 0 W/m² -0,7 °C -4,4 °C 29,0 km/h (5 Bft)
08.01.2019 17:55 0,4 °C 92 % 1015,4 hPa 0,0 mm 25,7 km/h (4 Bft) W 267 ° 0 min 0,000 mm 0,0 UV-I 0 W/m² -0,7 °C -5,5 °C 38,6 km/h (5 Bft)
08.01.2019 17:56 0,4 °C 92 % 1015,3 hPa 0,0 mm 22,3 km/h (4 Bft) W 268 ° 0 min 0,000 mm 0,0 UV-I 0 W/m² -0,7 °C -5,1 °C 33,8 km/h (5 Bft)
08.01.2019 17:57 0,4 °C 92 % 1015,3 hPa 0,0 mm 21,3 km/h (4 Bft) W-SW 251 ° 0 min 0,000 mm 0,0 UV-I 0 W/m² -0,7 °C -4,9 °C 33,8 km/h (5 Bft)
08.01.2019 17:58 0,4 °C 92 % 1015,3 hPa 0,0 mm 21,3 km/h (4 Bft) W-SW 257 ° 0 min 0,000 mm 0,0 UV-I 0 W/m² -0,7 °C -4,9 °C 30,6 km/h (5 Bft)
08.01.2019 17:59 0,4 °C 92 % 1015,2 hPa 0,0 mm 26,7 km/h (4 Bft) W-SW 249 ° 0 min 0,000 mm 0,0 UV-I 0 W/m² -0,7 °C -5,6 °C 35,4 km/h (5 Bft)
08.01.2019 18:00 0,4 °C 92 % 1015,2 hPa 0,0 mm 20,7 km/h (4 Bft) W 264 ° 0 min 0,000 mm 0,0 UV-I 0 W/m² -0,7 °C -4,8 °C 27,4 km/h (4 Bft)
08.01.2019 18:01 0,4 °C 92 % 1015,3 hPa 0,0 mm 16,1 km/h (3 Bft) W 268 ° 0 min 0,026 mm 0,0 UV-I 0 W/m² -0,7 °C -4,1 °C 19,3 km/h (3 Bft)
08.01.2019 18:02 0,4 °C 92 % 1015,3 hPa 0,0 mm 15,3 km/h (3 Bft) W-SW 257 ° 0 min 0,000 mm 0,0 UV-I 0 W/m² -0,7 °C -4,0 °C 24,1 km/h (4 Bft)
08.01.2019 18:03 0,4 °C 92 % 1015,2 hPa 0,0 mm 16,5 km/h (3 Bft) W 261 ° 0 min 0,000 mm 0,0 UV-I 0 W/m² -0,7 °C -4,2 °C 25,7 km/h (4 Bft)
08.01.2019 18:04 0,3 °C 92 % 1015,2 hPa 0,0 mm 15,1 km/h (3 Bft) W-SW 248 ° 0 min 0,000 mm 0,0 UV-I 0 W/m² -0,8 °C -4,1 °C 24,1 km/h (4 Bft)
08.01.2019 18:05 0,3 °C 92 % 1015,2 hPa 0,0 mm 23,5 km/h (4 Bft) W-SW 254 ° 0 min 0,000 mm 0,0 UV-I 0 W/m² -0,8 °C -5,3 °C 35,4 km/h (5 Bft)
08.01.2019 18:06 0,3 °C 92 % 1015,2 hPa 0,0 mm 21,3 km/h (4 Bft) W-SW 252 ° 0 min 0,000 mm 0,0 UV-I 0 W/m² -0,8 °C -5,0 °C 32,2 km/h (5 Bft)
08.01.2019 18:07 0,3 °C 93 % 1015,1 hPa 0,0 mm 16,2 km/h (3 Bft) SW 235 ° 0 min 0,000 mm 0,0 UV-I 0 W/m² -0,7 °C -4,3 °C 27,4 km/h (4 Bft)
08.01.2019 18:08 0,3 °C 92 % 1015,2 hPa 0,0 mm 17,3 km/h (3 Bft) W-SW 246 ° 0 min 0,000 mm 0,0 UV-I 0 W/m² -0,8 °C -4,4 °C 27,4 km/h (4 Bft)
08.01.2019 18:09 0,3 °C 92 % 1015,2 hPa 0,0 mm 29,0 km/h (5 Bft) W-SW 256 ° 0 min 0,000 mm 0,0 UV-I 0 W/m² -0,8 °C -6,0 °C 40,2 km/h (6 Bft)
08.01.2019 18:10 0,4 °C 92 % 1015,1 hPa 0,0 mm 20,5 km/h (4 Bft) W 273 ° 0 min 0,000 mm 0,0 UV-I 0 W/m² -0,7 °C -4,8 °C 27,4 km/h (4 Bft)
08.01.2019 18:11 0,3 °C 93 % 1015,2 hPa 0,0 mm 21,0 km/h (4 Bft) SW 235 ° 0 min 0,000 mm 0,0 UV-I 0 W/m² -0,7 °C -5,0 °C 30,6 km/h (5 Bft)
08.01.2019 18:12 0,4 °C 93 % 1015,1 hPa 0,0 mm 22,7 km/h (4 Bft) W-NW 300 ° 0 min 0,000 mm 0,0 UV-I 0 W/m² -0,6 °C -5,1 °C 30,6 km/h (5 Bft)
08.01.2019 18:13 0,4 °C 93 % 1015,1 hPa 0,0 mm 18,6 km/h (3 Bft) W 265 ° 0 min 0,000 mm 0,0 UV-I 0 W/m² -0,6 °C -4,5 °C 29,0 km/h (5 Bft)
08.01.2019 18:14 0,3 °C 93 % 1015,1 hPa 0,0 mm 15,1 km/h (3 Bft) W-SW 245 ° 0 min 0,000 mm 0,0 UV-I 0 W/m² -0,7 °C -4,1 °C 20,9 km/h (4 Bft)
08.01.2019 18:15 0,3 °C 93 % 1015,1 hPa 0,0 mm 21,7 km/h (4 Bft) W 259 ° 0 min 0,000 mm 0,0 UV-I 0 W/m² -0,7 °C -5,1 °C 30,6 km/h (5 Bft)
08.01.2019 18:16 0,3 °C 93 % 1015,1 hPa 0,0 mm 19,5 km/h (3 Bft) W 269 ° 0 min 0,000 mm 0,0 UV-I 0 W/m² -0,7 °C -4,8 °C 29,0 km/h (5 Bft)
08.01.2019 18:17 0,3 °C 93 % 1015,1 hPa 0,0 mm 20,8 km/h (4 Bft) W 262 ° 0 min 0,000 mm 0,0 UV-I 0 W/m² -0,7 °C -5,0 °C 29,0 km/h (5 Bft)
08.01.2019 18:18 0,3 °C 93 % 1015,2 hPa 0,0 mm 20,7 km/h (4 Bft) W-NW 282 ° 0 min 0,000 mm 0,0 UV-I 0 W/m² -0,7 °C -5,0 °C 29,0 km/h (5 Bft)
08.01.2019 18:19 0,3 °C 93 % 1015,2 hPa 0,0 mm 17,5 km/h (3 Bft) W 275 ° 0 min 0,000 mm 0,0 UV-I 0 W/m² -0,7 °C -4,5 °C 30,6 km/h (5 Bft)
08.01.2019 18:20 0,3 °C 93 % 1015,2 hPa 0,0 mm 24,9 km/h (4 Bft) NW 308 ° 0 min 0,000 mm 0,0 UV-I 0 W/m² -0,7 °C -5,5 °C 33,8 km/h (5 Bft)
08.01.2019 18:21 0,3 °C 93 % 1015,1 hPa 0,0 mm 20,3 km/h (4 Bft) W-SW 249 ° 0 min 0,000 mm 0,0 UV-I 0 W/m² -0,7 °C -4,9 °C 27,4 km/h (4 Bft)
08.01.2019 18:22 0,3 °C 93 % 1015,2 hPa 0,0 mm 18,4 km/h (3 Bft) W-SW 244 ° 0 min 0,000 mm 0,0 UV-I 0 W/m² -0,7 °C -4,6 °C 25,7 km/h (4 Bft)
08.01.2019 18:23 0,3 °C 93 % 1015,1 hPa 0,0 mm 15,0 km/h (3 Bft) W 270 ° 0 min 0,000 mm 0,0 UV-I 0 W/m² -0,7 °C -4,0 °C 24,1 km/h (4 Bft)
08.01.2019 18:24 0,3 °C 93 % 1015,1 hPa 0,0 mm 19,2 km/h (3 Bft) W-NW 286 ° 0 min 0,000 mm 0,0 UV-I 0 W/m² -0,7 °C -4,7 °C 29,0 km/h (5 Bft)
08.01.2019 18:25 0,3 °C 93 % 1015,1 hPa 0,0 mm 20,6 km/h (4 Bft) W-SW 250 ° 0 min 0,000 mm 0,0 UV-I 0 W/m² -0,7 °C -4,9 °C 32,2 km/h (5 Bft)
08.01.2019 18:26 0,3 °C 93 % 1015,1 hPa 0,0 mm 24,3 km/h (4 Bft) W-SW 248 ° 0 min 0,000 mm 0,0 UV-I 0 W/m² -0,7 °C -5,4 °C 32,2 km/h (5 Bft)
08.01.2019 18:27 0,3 °C 93 % 1015,0 hPa 0,0 mm 18,6 km/h (3 Bft) SW 232 ° 0 min 0,000 mm 0,0 UV-I 0 W/m² -0,7 °C -4,7 °C 35,4 km/h (5 Bft)
08.01.2019 18:28 0,3 °C 93 % 1015,0 hPa 0,0 mm 14,4 km/h (3 Bft) W-SW 244 ° 0 min 0,000 mm 0,0 UV-I 0 W/m² -0,7 °C -3,9 °C 30,6 km/h (5 Bft)
08.01.2019 18:29 0,3 °C 93 % 1015,1 hPa 0,0 mm 21,9 km/h (4 Bft) W 262 ° 0 min 0,000 mm 0,0 UV-I 0 W/m² -0,7 °C -5,1 °C 30,6 km/h (5 Bft)
08.01.2019 18:30 0,3 °C 93 % 1015,0 hPa 0,0 mm 18,1 km/h (3 Bft) W 268 ° 0 min 0,000 mm 0,0 UV-I 0 W/m² -0,7 °C -4,6 °C 24,1 km/h (4 Bft)
08.01.2019 18:31 0,3 °C 93 % 1015,0 hPa 0,0 mm 18,2 km/h (3 Bft) W 281 ° 0 min 0,000 mm 0,0 UV-I 0 W/m² -0,7 °C -4,6 °C 37,0 km/h (5 Bft)
08.01.2019 18:32 0,3 °C 93 % 1015,0 hPa 0,0 mm 21,3 km/h (4 Bft) W 263 ° 0 min 0,000 mm 0,0 UV-I 0 W/m² -0,7 °C -5,0 °C 27,4 km/h (4 Bft)
08.01.2019 18:33 0,3 °C 93 % 1015,0 hPa 0,0 mm 19,9 km/h (4 Bft) SW 219 ° 0 min 0,000 mm 0,0 UV-I 0 W/m² -0,7 °C -4,8 °C 29,0 km/h (5 Bft)
08.01.2019 18:34 0,3 °C 93 % 1015,0 hPa 0,0 mm 16,0 km/h (3 Bft) W 261 ° 0 min 0,000 mm 0,0 UV-I 0 W/m² -0,7 °C -4,2 °C 25,7 km/h (4 Bft)
08.01.2019 18:35 0,3 °C 93 % 1015,0 hPa 0,0 mm 21,2 km/h (4 Bft) W-SW 255 ° 0 min 0,000 mm 0,0 UV-I 0 W/m² -0,7 °C -5,0 °C 27,4 km/h (4 Bft)
08.01.2019 18:36 0,3 °C 93 % 1014,9 hPa 0,0 mm 18,1 km/h (3 Bft) W-SW 255 ° 0 min 0,000 mm 0,0 UV-I 0 W/m² -0,7 °C -4,6 °C 24,1 km/h (4 Bft)
08.01.2019 18:37 0,2 °C 93 % 1015,0 hPa 0,0 mm 23,0 km/h (4 Bft) SW 236 ° 0 min 0,000 mm 0,0 UV-I 0 W/m² -0,8 °C -5,4 °C 27,4 km/h (4 Bft)
08.01.2019 18:38 0,2 °C 93 % 1014,9 hPa 0,0 mm 16,7 km/h (3 Bft) W 271 ° 0 min 0,000 mm 0,0 UV-I 0 W/m² -0,8 °C -4,5 °C 27,4 km/h (4 Bft)
08.01.2019 18:39 0,2 °C 93 % 1014,9 hPa 0,0 mm 17,4 km/h (3 Bft) W-SW 250 ° 0 min 0,000 mm 0,0 UV-I 0 W/m² -0,8 °C -4,6 °C 25,7 km/h (4 Bft)
08.01.2019 18:40 0,2 °C 93 % 1014,9 hPa 0,0 mm 16,8 km/h (3 Bft) W 259 ° 0 min 0,000 mm 0,0 UV-I 0 W/m² -0,8 °C -4,5 °C 25,7 km/h (4 Bft)
08.01.2019 18:41 0,2 °C 93 % 1014,9 hPa 0,0 mm 15,2 km/h (3 Bft) W 260 ° 0 min 0,000 mm 0,0 UV-I 0 W/m² -0,8 °C -4,2 °C 24,1 km/h (4 Bft)
08.01.2019 18:42 0,2 °C 93 % 1014,9 hPa 0,0 mm 17,2 km/h (3 Bft) W 265 ° 0 min 0,000 mm 0,0 UV-I 0 W/m² -0,8 °C -4,6 °C 25,7 km/h (4 Bft)
08.01.2019 18:43 0,2 °C 93 % 1014,9 hPa 0,0 mm 17,4 km/h (3 Bft) W 267 ° 0 min 0,000 mm 0,0 UV-I 0 W/m² -0,8 °C -4,6 °C 24,1 km/h (4 Bft)
08.01.2019 18:44 0,2 °C 93 % 1014,9 hPa 0,0 mm 19,5 km/h (3 Bft) W-SW 254 ° 0 min 0,000 mm 0,0 UV-I 0 W/m² -0,8 °C -4,9 °C 24,1 km/h (4 Bft)
08.01.2019 18:45 0,2 °C 93 % 1014,9 hPa 0,0 mm 19,2 km/h (3 Bft) W-SW 256 ° 0 min 0,000 mm 0,0 UV-I 0 W/m² -0,8 °C -4,9 °C 24,1 km/h (4 Bft)
08.01.2019 18:46 0,2 °C 93 % 1014,9 hPa 0,0 mm 15,7 km/h (3 Bft) SW 218 ° 0 min 0,000 mm 0,0 UV-I 0 W/m² -0,8 °C -4,3 °C 22,5 km/h (4 Bft)
08.01.2019 18:47 0,2 °C 93 % 1014,9 hPa 0,0 mm 16,6 km/h (3 Bft) W-NW 288 ° 0 min 0,000 mm 0,0 UV-I 0 W/m² -0,8 °C -4,5 °C 25,7 km/h (4 Bft)
08.01.2019 18:48 0,2 °C 93 % 1014,9 hPa 0,0 mm 17,3 km/h (3 Bft) W-SW 250 ° 0 min 0,000 mm 0,0 UV-I 0 W/m² -0,8 °C -4,6 °C 29,0 km/h (5 Bft)
08.01.2019 18:49 0,2 °C 93 % 1014,9 hPa 0,0 mm 21,1 km/h (4 Bft) W-NW 283 ° 0 min 0,000 mm 0,0 UV-I 0 W/m² -0,8 °C -5,1 °C 33,8 km/h (5 Bft)
08.01.2019 18:50 0,2 °C 93 % 1014,9 hPa 0,0 mm 17,0 km/h (3 Bft) W 269 ° 0 min 0,000 mm 0,0 UV-I 0 W/m² -0,8 °C -4,5 °C 22,5 km/h (4 Bft)
08.01.2019 18:51 0,2 °C 93 % 1014,9 hPa 0,0 mm 15,0 km/h (3 Bft) SW 225 ° 0 min 0,000 mm 0,0 UV-I 0 W/m² -0,8 °C -4,2 °C 19,3 km/h (3 Bft)
08.01.2019 18:52 0,2 °C 93 % 1015,0 hPa 0,0 mm 21,3 km/h (4 Bft) W-NW 287 ° 0 min 0,000 mm 0,0 UV-I 0 W/m² -0,8 °C -5,2 °C 38,6 km/h (5 Bft)
08.01.2019 18:53 0,2 °C 93 % 1014,9 hPa 0,0 mm 18,5 km/h (3 Bft) W 267 ° 0 min 0,000 mm 0,0 UV-I 0 W/m² -0,8 °C -4,8 °C 24,1 km/h (4 Bft)
08.01.2019 18:54 0,1 °C 93 % 1014,9 hPa 0,0 mm 16,3 km/h (3 Bft) W 269 ° 0 min 0,000 mm 0,0 UV-I 0 W/m² -0,9 °C -4,5 °C 20,9 km/h (4 Bft)
08.01.2019 18:55 0,2 °C 93 % 1014,9 hPa 0,0 mm 19,6 km/h (3 Bft) W 269 ° 0 min 0,000 mm 0,0 UV-I 0 W/m² -0,8 °C -4,9 °C 24,1 km/h (4 Bft)
08.01.2019 18:56 0,1 °C 93 % 1014,9 hPa 0,0 mm 17,8 km/h (3 Bft) W-NW 284 ° 0 min 0,000 mm 0,0 UV-I 0 W/m² -0,9 °C -4,8 °C 25,7 km/h (4 Bft)
08.01.2019 18:57 0,1 °C 93 % 1014,9 hPa 0,0 mm 20,2 km/h (4 Bft) NW 311 ° 0 min 0,000 mm 0,0 UV-I 0 W/m² -0,9 °C -5,1 °C 27,4 km/h (4 Bft)
08.01.2019 18:58 0,1 °C 93 % 1014,9 hPa 0,0 mm 14,1 km/h (3 Bft) W-SW 254 ° 0 min 0,000 mm 0,0 UV-I 0 W/m² -0,9 °C -4,1 °C 17,7 km/h (3 Bft)
08.01.2019 18:59 0,1 °C 93 % 1014,8 hPa 0,0 mm 11,6 km/h (2 Bft) W 260 ° 0 min 0,000 mm 0,0 UV-I 0 W/m² -0,9 °C -3,6 °C 16,1 km/h (3 Bft)
08.01.2019 19:00 0,1 °C 93 % 1014,8 hPa 0,0 mm 16,2 km/h (3 Bft) W 259 ° 0 min 0,000 mm 0,0 UV-I 0 W/m² -0,9 °C -4,5 °C 19,3 km/h (3 Bft)
08.01.2019 19:01 0,1 °C 93 % 1014,9 hPa 0,0 mm 20,6 km/h (4 Bft) W-SW 243 ° 0 min 0,000 mm 0,0 UV-I 0 W/m² -0,9 °C -5,2 °C 27,4 km/h (4 Bft)
08.01.2019 19:02 0,1 °C 93 % 1014,8 hPa 0,2 mm 22,1 km/h (4 Bft) W 272 ° 0 min 0,000 mm 0,0 UV-I 0 W/m² -0,9 °C -5,4 °C 30,6 km/h (5 Bft)
08.01.2019 19:03 0,1 °C 93 % 1014,8 hPa 0,0 mm 17,2 km/h (3 Bft) W 263 ° 0 min 0,000 mm 0,0 UV-I 0 W/m² -0,9 °C -4,7 °C 24,1 km/h (4 Bft)
08.01.2019 19:04 0,1 °C 93 % 1014,8 hPa 0,0 mm 17,9 km/h (3 Bft) W 265 ° 0 min 0,000 mm 0,0 UV-I 0 W/m² -0,9 °C -4,8 °C 24,1 km/h (4 Bft)
08.01.2019 19:05 0,1 °C 93 % 1014,9 hPa 0,0 mm 21,5 km/h (4 Bft) W-SW 249 ° 0 min 0,000 mm 0,0 UV-I 0 W/m² -0,9 °C -5,3 °C 30,6 km/h (5 Bft)
08.01.2019 19:06 0,1 °C 93 % 1014,9 hPa 0,0 mm 19,7 km/h (3 Bft) W 266 ° 0 min 0,000 mm 0,0 UV-I 0 W/m² -0,9 °C -5,1 °C 27,4 km/h (4 Bft)
08.01.2019 19:07 0,1 °C 93 % 1014,8 hPa 0,0 mm 22,4 km/h (4 Bft) NW 308 ° 0 min 0,000 mm 0,0 UV-I 0 W/m² -0,9 °C -5,5 °C 29,0 km/h (5 Bft)
08.01.2019 19:08 0,1 °C 93 % 1014,7 hPa 0,0 mm 19,0 km/h (3 Bft) W-NW 289 ° 0 min 0,000 mm 0,0 UV-I 0 W/m² -0,9 °C -5,0 °C 22,5 km/h (4 Bft)
08.01.2019 19:09 0,1 °C 93 % 1014,7 hPa 0,0 mm 11,9 km/h (2 Bft) SW 217 ° 0 min 0,000 mm 0,0 UV-I 0 W/m² -0,9 °C -3,7 °C 16,1 km/h (3 Bft)
08.01.2019 19:10 0,1 °C 93 % 1014,8 hPa 0,0 mm 16,8 km/h (3 Bft) W-SW 256 ° 0 min 0,000 mm 0,0 UV-I 0 W/m² -0,9 °C -4,6 °C 27,4 km/h (4 Bft)
08.01.2019 19:11 0,1 °C 93 % 1014,7 hPa 0,0 mm 16,8 km/h (3 Bft) W-NW 282 ° 0 min 0,000 mm 0,0 UV-I 0 W/m² -0,9 °C -4,6 °C 22,5 km/h (4 Bft)
08.01.2019 19:12 0,1 °C 93 % 1014,7 hPa 0,0 mm 19,2 km/h (3 Bft) W 259 ° 0 min 0,000 mm 0,0 UV-I 0 W/m² -0,9 °C -5,0 °C 27,4 km/h (4 Bft)
08.01.2019 19:13 0,1 °C 93 % 1014,7 hPa 0,0 mm 12,6 km/h (3 Bft) SW 233 ° 0 min 0,000 mm 0,0 UV-I 0 W/m² -0,9 °C -3,8 °C 16,1 km/h (3 Bft)
08.01.2019 19:14 0,1 °C 93 % 1014,6 hPa 0,0 mm 19,3 km/h (3 Bft) W-SW 257 ° 0 min 0,000 mm 0,0 UV-I 0 W/m² -0,9 °C -5,0 °C 29,0 km/h (5 Bft)
08.01.2019 19:15 0,1 °C 93 % 1014,7 hPa 0,0 mm 12,9 km/h (3 Bft) W-NW 296 ° 0 min 0,000 mm 0,0 UV-I 0 W/m² -0,9 °C -3,9 °C 19,3 km/h (3 Bft)
08.01.2019 19:16 0,1 °C 93 % 1014,6 hPa 0,0 mm 14,7 km/h (3 Bft) W-SW 243 ° 0 min 0,000 mm 0,0 UV-I 0 W/m² -0,9 °C -4,2 °C 19,3 km/h (3 Bft)
08.01.2019 19:17 0,1 °C 93 % 1014,6 hPa 0,0 mm 14,3 km/h (3 Bft) W 265 ° 0 min 0,000 mm 0,0 UV-I 0 W/m² -0,9 °C -4,2 °C 19,3 km/h (3 Bft)
08.01.2019 19:18 0,1 °C 93 % 1014,6 hPa 0,0 mm 17,7 km/h (3 Bft) SW 236 ° 0 min 0,000 mm 0,0 UV-I 0 W/m² -0,9 °C -4,8 °C 22,5 km/h (4 Bft)
08.01.2019 19:19 0,1 °C 93 % 1014,6 hPa 0,0 mm 12,9 km/h (3 Bft) W 269 ° 0 min 0,000 mm 0,0 UV-I 0 W/m² -0,9 °C -3,9 °C 20,9 km/h (4 Bft)
08.01.2019 19:20 0,1 °C 93 % 1014,7 hPa 0,0 mm 16,0 km/h (3 Bft) W 259 ° 0 min 0,000 mm 0,0 UV-I 0 W/m² -0,9 °C -4,5 °C 19,3 km/h (3 Bft)
08.01.2019 19:21 0,1 °C 94 % 1014,6 hPa 0,0 mm 15,4 km/h (3 Bft) W-SW 238 ° 0 min 0,000 mm 0,0 UV-I 0 W/m² -0,7 °C -4,4 °C 25,7 km/h (4 Bft)
08.01.2019 19:22 0,1 °C 94 % 1014,6 hPa 0,0 mm 14,6 km/h (3 Bft) SW 235 ° 0 min 0,000 mm 0,0 UV-I 0 W/m² -0,7 °C -4,2 °C 19,3 km/h (3 Bft)
08.01.2019 19:23 0,1 °C 94 % 1014,6 hPa 0,0 mm 15,9 km/h (3 Bft) W-SW 258 ° 0 min 0,000 mm 0,0 UV-I 0 W/m² -0,7 °C -4,5 °C 24,1 km/h (4 Bft)
08.01.2019 19:24 0,1 °C 94 % 1014,7 hPa 0,0 mm 13,3 km/h (3 Bft) W-SW 253 ° 0 min 0,000 mm 0,0 UV-I 0 W/m² -0,7 °C -4,0 °C 19,3 km/h (3 Bft)
08.01.2019 19:25 0,1 °C 94 % 1014,7 hPa 0,0 mm 18,8 km/h (3 Bft) W 267 ° 0 min 0,000 mm 0,0 UV-I 0 W/m² -0,7 °C -4,9 °C 22,5 km/h (4 Bft)
08.01.2019 19:26 0,1 °C 94 % 1014,7 hPa 0,0 mm 19,2 km/h (3 Bft) W-SW 257 ° 0 min 0,000 mm 0,0 UV-I 0 W/m² -0,7 °C -5,0 °C 35,4 km/h (5 Bft)
08.01.2019 19:27 0,1 °C 94 % 1014,8 hPa 0,0 mm 16,2 km/h (3 Bft) W-SW 246 ° 0 min 0,000 mm 0,0 UV-I 0 W/m² -0,7 °C -4,5 °C 29,0 km/h (5 Bft)
08.01.2019 19:28 0,1 °C 94 % 1014,7 hPa 0,0 mm 12,5 km/h (3 Bft) W 279 ° 0 min 0,000 mm 0,0 UV-I 0 W/m² -0,7 °C -3,8 °C 16,1 km/h (3 Bft)
08.01.2019 19:29 0,1 °C 94 % 1014,7 hPa 0,0 mm 14,0 km/h (3 Bft) W 265 ° 0 min 0,000 mm 0,0 UV-I 0 W/m² -0,7 °C -4,1 °C 19,3 km/h (3 Bft)
08.01.2019 19:30 0,1 °C 94 % 1014,8 hPa 0,0 mm 11,2 km/h (2 Bft) W 273 ° 0 min 0,000 mm 0,0 UV-I 0 W/m² -0,7 °C -3,5 °C 16,1 km/h (3 Bft)
08.01.2019 19:31 0,1 °C 94 % 1014,6 hPa 0,0 mm 16,1 km/h (3 Bft) W 272 ° 0 min 0,000 mm 0,0 UV-I 0 W/m² -0,7 °C -4,5 °C 25,7 km/h (4 Bft)
08.01.2019 19:32 0,0 °C 94 % 1014,6 hPa 0,0 mm 16,7 km/h (3 Bft) W-NW 284 ° 0 min 0,000 mm 0,0 UV-I 0 W/m² -0,8 °C -4,7 °C 27,4 km/h (4 Bft)
08.01.2019 19:33 0,1 °C 94 % 1014,5 hPa 0,0 mm 16,8 km/h (3 Bft) S 173 ° 0 min 0,000 mm 0,0 UV-I 0 W/m² -0,7 °C -4,6 °C 22,5 km/h (4 Bft)
08.01.2019 19:34 0,1 °C 94 % 1014,6 hPa 0,0 mm 20,2 km/h (4 Bft) SW 235 ° 0 min 0,000 mm 0,0 UV-I 0 W/m² -0,7 °C -5,1 °C 27,4 km/h (4 Bft)
08.01.2019 19:35 0,1 °C 94 % 1014,7 hPa 0,0 mm 15,4 km/h (3 Bft) W-SW 250 ° 0 min 0,000 mm 0,0 UV-I 0 W/m² -0,7 °C -4,4 °C 19,3 km/h (3 Bft)
08.01.2019 19:36 0,1 °C 94 % 1014,8 hPa 0,0 mm 19,9 km/h (4 Bft) W-SW 250 ° 0 min 0,000 mm 0,0 UV-I 0 W/m² -0,7 °C -5,1 °C 27,4 km/h (4 Bft)
08.01.2019 19:37 0,1 °C 94 % 1014,7 hPa 0,0 mm 19,0 km/h (3 Bft) S-SW 200 ° 0 min 0,000 mm 0,0 UV-I 0 W/m² -0,7 °C -5,0 °C 30,6 km/h (5 Bft)
08.01.2019 19:38 0,1 °C 94 % 1014,6 hPa 0,0 mm 17,0 km/h (3 Bft) W-SW 255 ° 0 min 0,000 mm 0,0 UV-I 0 W/m² -0,7 °C -4,6 °C 22,5 km/h (4 Bft)
08.01.2019 19:39 0,1 °C 94 % 1014,6 hPa 0,0 mm 11,3 km/h (2 Bft) SW 228 ° 0 min 0,000 mm 0,0 UV-I 0 W/m² -0,7 °C -3,5 °C 14,5 km/h (3 Bft)
08.01.2019 19:40 0,1 °C 94 % 1014,6 hPa 0,0 mm 16,6 km/h (3 Bft) W 262 ° 0 min 0,000 mm 0,0 UV-I 0 W/m² -0,7 °C -4,6 °C 35,4 km/h (5 Bft)
08.01.2019 19:41 0,1 °C 94 % 1014,7 hPa 0,0 mm 17,9 km/h (3 Bft) W 280 ° 0 min 0,000 mm 0,0 UV-I 0 W/m² -0,7 °C -4,8 °C 24,1 km/h (4 Bft)
08.01.2019 19:42 0,1 °C 94 % 1014,6 hPa 0,0 mm 18,2 km/h (3 Bft) W 267 ° 0 min 0,000 mm 0,0 UV-I 0 W/m² -0,7 °C -4,8 °C 25,7 km/h (4 Bft)
08.01.2019 19:43 0,1 °C 94 % 1014,6 hPa 0,0 mm 17,0 km/h (3 Bft) NW 308 ° 0 min 0,000 mm 0,0 UV-I 0 W/m² -0,7 °C -4,6 °C 20,9 km/h (4 Bft)
08.01.2019 19:44 0,1 °C 94 % 1014,7 hPa 0,0 mm 13,6 km/h (3 Bft) W-NW 289 ° 0 min 0,000 mm 0,0 UV-I 0 W/m² -0,7 °C -4,0 °C 20,9 km/h (4 Bft)
08.01.2019 19:45 0,1 °C 94 % 1014,6 hPa 0,0 mm 16,8 km/h (3 Bft) S 189 ° 0 min 0,000 mm 0,0 UV-I 0 W/m² -0,7 °C -4,6 °C 22,5 km/h (4 Bft)
08.01.2019 19:46 0,1 °C 94 % 1014,7 hPa 0,0 mm 19,2 km/h (3 Bft) NW 308 ° 0 min 0,000 mm 0,0 UV-I 0 W/m² -0,7 °C -5,0 °C 35,4 km/h (5 Bft)
08.01.2019 19:47 0,1 °C 94 % 1014,6 hPa 0,0 mm 10,3 km/h (2 Bft) W 260 ° 0 min 0,000 mm 0,0 UV-I 0 W/m² -0,7 °C -3,3 °C 27,4 km/h (4 Bft)
08.01.2019 19:48 0,1 °C 94 % 1014,7 hPa 0,0 mm 14,5 km/h (3 Bft) W 273 ° 0 min 0,000 mm 0,0 UV-I 0 W/m² -0,7 °C -4,2 °C 19,3 km/h (3 Bft)
08.01.2019 19:49 0,1 °C 94 % 1014,7 hPa 0,0 mm 12,4 km/h (3 Bft) W-NW 287 ° 0 min 0,000 mm 0,0 UV-I 0 W/m² -0,7 °C -3,8 °C 27,4 km/h (4 Bft)
08.01.2019 19:50 0,1 °C 94 % 1014,6 hPa 0,0 mm 17,6 km/h (3 Bft) W-NW 282 ° 0 min 0,000 mm 0,0 UV-I 0 W/m² -0,7 °C -4,7 °C 24,1 km/h (4 Bft)
08.01.2019 19:51 0,1 °C 94 % 1014,8 hPa 0,0 mm 22,7 km/h (4 Bft) W-NW 285 ° 0 min 0,000 mm 0,0 UV-I 0 W/m² -0,7 °C -5,5 °C 30,6 km/h (5 Bft)
08.01.2019 19:52 0,1 °C 94 % 1014,8 hPa 0,0 mm 20,0 km/h (4 Bft) W 269 ° 0 min 0,000 mm 0,0 UV-I 0 W/m² -0,7 °C -5,1 °C 27,4 km/h (4 Bft)
08.01.2019 19:53 0,1 °C 94 % 1014,8 hPa 0,0 mm 13,7 km/h (3 Bft) W-SW 242 ° 0 min 0,000 mm 0,0 UV-I 0 W/m² -0,7 °C -4,0 °C 22,5 km/h (4 Bft)
08.01.2019 19:54 0,1 °C 94 % 1014,7 hPa 0,0 mm 14,3 km/h (3 Bft) W-SW 248 ° 0 min 0,000 mm 0,0 UV-I 0 W/m² -0,7 °C -4,2 °C 24,1 km/h (4 Bft)
08.01.2019 19:55 0,1 °C 94 % 1014,7 hPa 0,0 mm 16,0 km/h (3 Bft) W 259 ° 0 min 0,000 mm 0,0 UV-I 0 W/m² -0,7 °C -4,5 °C 24,1 km/h (4 Bft)
08.01.2019 19:56 0,1 °C 94 % 1014,8 hPa 0,0 mm 16,2 km/h (3 Bft) W 264 ° 0 min 0,000 mm 0,0 UV-I 0 W/m² -0,7 °C -4,5 °C 22,5 km/h (4 Bft)
08.01.2019 19:57 0,1 °C 94 % 1014,8 hPa 0,0 mm 12,6 km/h (3 Bft) W-SW 244 ° 0 min 0,000 mm 0,0 UV-I 0 W/m² -0,7 °C -3,8 °C 19,3 km/h (3 Bft)
08.01.2019 19:58 0,1 °C 94 % 1014,9 hPa 0,0 mm 10,9 km/h (2 Bft) W-NW 295 ° 0 min 0,000 mm 0,0 UV-I 0 W/m² -0,7 °C -3,4 °C 16,1 km/h (3 Bft)
08.01.2019 19:59 0,1 °C 94 % 1014,9 hPa 0,0 mm 12,3 km/h (3 Bft) W 268 ° 0 min 0,000 mm 0,0 UV-I 0 W/m² -0,7 °C -3,7 °C 17,7 km/h (3 Bft)
08.01.2019 20:00 0,1 °C 94 % 1014,9 hPa 0,0 mm 17,2 km/h (3 Bft) W 274 ° 0 min 0,000 mm 0,0 UV-I 0 W/m² -0,7 °C -4,7 °C 22,5 km/h (4 Bft)
08.01.2019 20:01 0,1 °C 94 % 1015,0 hPa 0,0 mm 18,5 km/h (3 Bft) W 263 ° 0 min 0,000 mm 0,0 UV-I 0 W/m² -0,7 °C -4,9 °C 29,0 km/h (5 Bft)
08.01.2019 20:02 0,1 °C 94 % 1014,9 hPa 0,0 mm 21,3 km/h (4 Bft) W 261 ° 0 min 0,000 mm 0,0 UV-I 0 W/m² -0,7 °C -5,3 °C 33,8 km/h (5 Bft)
08.01.2019 20:03 0,1 °C 94 % 1014,9 hPa 0,0 mm 19,6 km/h (3 Bft) W 271 ° 0 min 0,000 mm 0,0 UV-I 0 W/m² -0,7 °C -5,1 °C 32,2 km/h (5 Bft)
08.01.2019 20:04 0,1 °C 94 % 1014,9 hPa 0,0 mm 17,1 km/h (3 Bft) W 281 ° 0 min 0,000 mm 0,0 UV-I 0 W/m² -0,7 °C -4,7 °C 25,7 km/h (4 Bft)
08.01.2019 20:05 0,1 °C 94 % 1014,9 hPa 0,0 mm 16,0 km/h (3 Bft) W 259 ° 0 min 0,000 mm 0,0 UV-I 0 W/m² -0,7 °C -4,5 °C 20,9 km/h (4 Bft)
08.01.2019 20:06 0,1 °C 94 % 1014,9 hPa 0,0 mm 17,4 km/h (3 Bft) W-NW 288 ° 0 min 0,000 mm 0,0 UV-I 0 W/m² -0,7 °C -4,7 °C 22,5 km/h (4 Bft)
08.01.2019 20:07 0,1 °C 94 % 1014,9 hPa 0,0 mm 17,6 km/h (3 Bft) W 279 ° 0 min 0,000 mm 0,0 UV-I 0 W/m² -0,7 °C -4,7 °C 22,5 km/h (4 Bft)
08.01.2019 20:08 0,1 °C 94 % 1014,9 hPa 0,0 mm 11,1 km/h (2 Bft) W-NW 287 ° 0 min 0,000 mm 0,0 UV-I 0 W/m² -0,7 °C -3,5 °C 14,5 km/h (3 Bft)
08.01.2019 20:09 0,1 °C 94 % 1015,0 hPa 0,0 mm 14,2 km/h (3 Bft) W-SW 256 ° 0 min 0,000 mm 0,0 UV-I 0 W/m² -0,7 °C -4,1 °C 20,9 km/h (4 Bft)
08.01.2019 20:10 0,1 °C 94 % 1014,9 hPa 0,0 mm 16,2 km/h (3 Bft) W-NW 290 ° 0 min 0,000 mm 0,0 UV-I 0 W/m² -0,7 °C -4,5 °C 20,9 km/h (4 Bft)
08.01.2019 20:11 0,1 °C 94 % 1014,9 hPa 0,0 mm 12,9 km/h (3 Bft) W-SW 244 ° 0 min 0,000 mm 0,0 UV-I 0 W/m² -0,7 °C -3,9 °C 19,3 km/h (3 Bft)
08.01.2019 20:12 0,1 °C 94 % 1015,0 hPa 0,0 mm 21,3 km/h (4 Bft) W 276 ° 0 min 0,000 mm 0,0 UV-I 0 W/m² -0,7 °C -5,3 °C 35,4 km/h (5 Bft)
08.01.2019 20:13 0,1 °C 94 % 1014,9 hPa 0,0 mm 14,8 km/h (3 Bft) W-SW 249 ° 0 min 0,000 mm 0,0 UV-I 0 W/m² -0,7 °C -4,3 °C 20,9 km/h (4 Bft)
08.01.2019 20:14 0,1 °C 94 % 1014,9 hPa 0,0 mm 17,6 km/h (3 Bft) W-NW 295 ° 0 min 0,000 mm 0,0 UV-I 0 W/m² -0,7 °C -4,7 °C 25,7 km/h (4 Bft)
08.01.2019 20:15 0,1 °C 94 % 1014,9 hPa 0,0 mm 18,8 km/h (3 Bft) W-SW 256 ° 0 min 0,000 mm 0,0 UV-I 0 W/m² -0,7 °C -4,9 °C 29,0 km/h (5 Bft)
08.01.2019 20:16 0,1 °C 94 % 1014,9 hPa 0,0 mm 21,7 km/h (4 Bft) W-NW 288 ° 0 min 0,000 mm 0,0 UV-I 0 W/m² -0,7 °C -5,4 °C 30,6 km/h (5 Bft)
08.01.2019 20:17 0,1 °C 94 % 1014,8 hPa 0,0 mm 17,1 km/h (3 Bft) W-NW 296 ° 0 min 0,000 mm 0,0 UV-I 0 W/m² -0,7 °C -4,7 °C 20,9 km/h (4 Bft)
08.01.2019 20:18 0,1 °C 94 % 1014,8 hPa 0,0 mm 18,5 km/h (3 Bft) SW 229 ° 0 min 0,000 mm 0,0 UV-I 0 W/m² -0,7 °C -4,9 °C 24,1 km/h (4 Bft)
08.01.2019 20:19 0,1 °C 94 % 1014,8 hPa 0,0 mm 15,3 km/h (3 Bft) W-NW 296 ° 0 min 0,000 mm 0,0 UV-I 0 W/m² -0,7 °C -4,3 °C 22,5 km/h (4 Bft)
08.01.2019 20:20 0,1 °C 94 % 1014,8 hPa 0,0 mm 19,4 km/h (3 Bft) W-SW 253 ° 0 min 0,000 mm 0,0 UV-I 0 W/m² -0,7 °C -5,0 °C 35,4 km/h (5 Bft)
08.01.2019 20:21 0,1 °C 94 % 1014,9 hPa 0,0 mm 21,6 km/h (4 Bft) W-SW 256 ° 0 min 0,000 mm 0,0 UV-I 0 W/m² -0,7 °C -5,3 °C 33,8 km/h (5 Bft)
08.01.2019 20:22 0,1 °C 94 % 1014,8 hPa 0,0 mm 20,6 km/h (4 Bft) W 271 ° 0 min 0,000 mm 0,0 UV-I 0 W/m² -0,7 °C -5,2 °C 41,8 km/h (6 Bft)
08.01.2019 20:23 0,1 °C 94 % 1014,7 hPa 0,0 mm 18,3 km/h (3 Bft) W 259 ° 0 min 0,000 mm 0,0 UV-I 0 W/m² -0,7 °C -4,9 °C 24,1 km/h (4 Bft)
08.01.2019 20:24 0,1 °C 94 % 1014,8 hPa 0,0 mm 12,5 km/h (3 Bft) W 280 ° 0 min 0,000 mm 0,0 UV-I 0 W/m² -0,7 °C -3,8 °C 16,1 km/h (3 Bft)
08.01.2019 20:25 0,1 °C 94 % 1014,9 hPa 0,0 mm 12,2 km/h (2 Bft) W-NW 289 ° 0 min 0,000 mm 0,0 UV-I 0 W/m² -0,7 °C -3,7 °C 22,5 km/h (4 Bft)
08.01.2019 20:26 0,1 °C 94 % 1014,8 hPa 0,0 mm 17,8 km/h (3 Bft) W 267 ° 0 min 0,000 mm 0,0 UV-I 0 W/m² -0,7 °C -4,8 °C 29,0 km/h (5 Bft)
08.01.2019 20:27 0,1 °C 94 % 1014,8 hPa 0,0 mm 13,7 km/h (3 Bft) W-NW 295 ° 0 min 0,000 mm 0,0 UV-I 0 W/m² -0,7 °C -4,0 °C 19,3 km/h (3 Bft)
08.01.2019 20:28 0,1 °C 94 % 1014,8 hPa 0,0 mm 21,0 km/h (4 Bft) W-SW 256 ° 0 min 0,000 mm 0,0 UV-I 0 W/m² -0,7 °C -5,3 °C 30,6 km/h (5 Bft)
08.01.2019 20:29 0,1 °C 94 % 1014,9 hPa 0,0 mm 15,0 km/h (3 Bft) W 260 ° 0 min 0,000 mm 0,0 UV-I 0 W/m² -0,7 °C -4,3 °C 20,9 km/h (4 Bft)
08.01.2019 20:30 0,1 °C 94 % 1014,9 hPa 0,0 mm 19,8 km/h (3 Bft) W-SW 250 ° 0 min 0,000 mm 0,0 UV-I 0 W/m² -0,7 °C -5,1 °C 37,0 km/h (5 Bft)
08.01.2019 20:31 0,1 °C 94 % 1014,8 hPa 0,0 mm 20,1 km/h (4 Bft) W-NW 288 ° 0 min 0,000 mm 0,0 UV-I 0 W/m² -0,7 °C -5,1 °C 27,4 km/h (4 Bft)
08.01.2019 20:32 0,1 °C 94 % 1014,9 hPa 0,0 mm 20,1 km/h (4 Bft) W 267 ° 0 min 0,000 mm 0,0 UV-I 0 W/m² -0,7 °C -5,1 °C 27,4 km/h (4 Bft)
08.01.2019 20:33 0,1 °C 94 % 1014,8 hPa 0,0 mm 19,9 km/h (4 Bft) W-SW 257 ° 0 min 0,000 mm 0,0 UV-I 0 W/m² -0,7 °C -5,1 °C 33,8 km/h (5 Bft)
08.01.2019 20:34 0,2 °C 94 % 1014,9 hPa 0,0 mm 15,0 km/h (3 Bft) W-SW 240 ° 0 min 0,000 mm 0,0 UV-I 0 W/m² -0,6 °C -4,2 °C 24,1 km/h (4 Bft)
08.01.2019 20:35 0,2 °C 94 % 1014,9 hPa 0,0 mm 17,8 km/h (3 Bft) SW 235 ° 0 min 0,000 mm 0,0 UV-I 0 W/m² -0,6 °C -4,7 °C 25,7 km/h (4 Bft)
08.01.2019 20:36 0,1 °C 94 % 1014,8 hPa 0,0 mm 15,5 km/h (3 Bft) W 275 ° 0 min 0,000 mm 0,0 UV-I 0 W/m² -0,7 °C -4,4 °C 27,4 km/h (4 Bft)
08.01.2019 20:37 0,1 °C 94 % 1014,8 hPa 0,0 mm 20,7 km/h (4 Bft) W 262 ° 0 min 0,000 mm 0,0 UV-I 0 W/m² -0,7 °C -5,2 °C 27,4 km/h (4 Bft)
08.01.2019 20:38 0,1 °C 94 % 1014,8 hPa 0,0 mm 17,4 km/h (3 Bft) W 275 ° 0 min 0,000 mm 0,0 UV-I 0 W/m² -0,7 °C -4,7 °C 24,1 km/h (4 Bft)
08.01.2019 20:39 0,1 °C 94 % 1014,8 hPa 0,0 mm 14,9 km/h (3 Bft) W 271 ° 0 min 0,000 mm 0,0 UV-I 0 W/m² -0,7 °C -4,3 °C 20,9 km/h (4 Bft)
08.01.2019 20:40 0,1 °C 94 % 1014,9 hPa 0,0 mm 17,8 km/h (3 Bft) SW 226 ° 0 min 0,000 mm 0,0 UV-I 0 W/m² -0,7 °C -4,8 °C 22,5 km/h (4 Bft)
08.01.2019 20:41 0,1 °C 94 % 1014,8 hPa 0,0 mm 18,9 km/h (3 Bft) W 277 ° 0 min 0,000 mm 0,0 UV-I 0 W/m² -0,7 °C -5,0 °C 24,1 km/h (4 Bft)
08.01.2019 20:42 0,1 °C 94 % 1014,9 hPa 0,0 mm 17,0 km/h (3 Bft) W-SW 246 ° 0 min 0,000 mm 0,0 UV-I 0 W/m² -0,7 °C -4,6 °C 24,1 km/h (4 Bft)
08.01.2019 20:43 0,1 °C 94 % 1014,8 hPa 0,0 mm 16,8 km/h (3 Bft) W 265 ° 0 min 0,000 mm 0,0 UV-I 0 W/m² -0,7 °C -4,6 °C 20,9 km/h (4 Bft)
08.01.2019 20:44 0,1 °C 94 % 1014,8 hPa 0,0 mm 17,3 km/h (3 Bft) W 259 ° 0 min 0,000 mm 0,0 UV-I 0 W/m² -0,7 °C -4,7 °C 27,4 km/h (4 Bft)
08.01.2019 20:45 0,1 °C 94 % 1014,9 hPa 0,0 mm 15,9 km/h (3 Bft) W 262 ° 0 min 0,000 mm 0,0 UV-I 0 W/m² -0,7 °C -4,5 °C 22,5 km/h (4 Bft)
08.01.2019 20:46 0,1 °C 94 % 1014,9 hPa 0,0 mm 14,2 km/h (3 Bft) W 275 ° 0 min 0,000 mm 0,0 UV-I 0 W/m² -0,7 °C -4,1 °C 22,5 km/h (4 Bft)
08.01.2019 20:47 0,1 °C 94 % 1014,8 hPa 0,0 mm 17,4 km/h (3 Bft) W 259 ° 0 min 0,000 mm 0,0 UV-I 0 W/m² -0,7 °C -4,7 °C 27,4 km/h (4 Bft)
08.01.2019 20:48 0,1 °C 94 % 1014,9 hPa 0,0 mm 20,7 km/h (4 Bft) W-NW 284 ° 0 min 0,000 mm 0,0 UV-I 0 W/m² -0,7 °C -5,2 °C 29,0 km/h (5 Bft)
08.01.2019 20:49 0,1 °C 94 % 1015,0 hPa 0,0 mm 23,0 km/h (4 Bft) W-NW 289 ° 0 min 0,000 mm 0,0 UV-I 0 W/m² -0,7 °C -5,5 °C 40,2 km/h (6 Bft)
08.01.2019 20:50 0,1 °C 94 % 1014,9 hPa 0,0 mm 20,4 km/h (4 Bft) W-SW 258 ° 0 min 0,000 mm 0,0 UV-I 0 W/m² -0,7 °C -5,2 °C 33,8 km/h (5 Bft)
08.01.2019 20:51 0,1 °C 94 % 1014,8 hPa 0,0 mm 18,0 km/h (3 Bft) W-SW 257 ° 0 min 0,000 mm 0,0 UV-I 0 W/m² -0,7 °C -4,8 °C 27,4 km/h (4 Bft)
08.01.2019 20:52 0,1 °C 94 % 1014,9 hPa 0,0 mm 17,2 km/h (3 Bft) W 273 ° 0 min 0,000 mm 0,0 UV-I 0 W/m² -0,7 °C -4,7 °C 25,7 km/h (4 Bft)
08.01.2019 20:53 0,1 °C 94 % 1014,9 hPa 0,0 mm 14,5 km/h (3 Bft) W 278 ° 0 min 0,000 mm 0,0 UV-I 0 W/m² -0,7 °C -4,2 °C 20,9 km/h (4 Bft)
08.01.2019 20:54 0,1 °C 94 % 1014,9 hPa 0,0 mm 15,0 km/h (3 Bft) W 270 ° 0 min 0,000 mm 0,0 UV-I 0 W/m² -0,7 °C -4,3 °C 24,1 km/h (4 Bft)
08.01.2019 20:55 0,1 °C 94 % 1014,8 hPa 0,0 mm 18,2 km/h (3 Bft) W 264 ° 0 min 0,000 mm 0,0 UV-I 0 W/m² -0,7 °C -4,8 °C 25,7 km/h (4 Bft)
08.01.2019 20:56 0,1 °C 94 % 1014,8 hPa 0,0 mm 21,9 km/h (4 Bft) W-SW 238 ° 0 min 0,000 mm 0,0 UV-I 0 W/m² -0,7 °C -5,4 °C 38,6 km/h (5 Bft)
08.01.2019 20:57 0,1 °C 94 % 1014,7 hPa 0,0 mm 15,6 km/h (3 Bft) W 266 ° 0 min 0,000 mm 0,0 UV-I 0 W/m² -0,7 °C -4,4 °C 25,7 km/h (4 Bft)
08.01.2019 20:58 0,1 °C 94 % 1014,8 hPa 0,0 mm 12,2 km/h (2 Bft) W 262 ° 0 min 0,000 mm 0,0 UV-I 0 W/m² -0,7 °C -3,7 °C 16,1 km/h (3 Bft)
08.01.2019 20:59 0,1 °C 94 % 1014,8 hPa 0,0 mm 18,1 km/h (3 Bft) W-SW 246 ° 0 min 0,000 mm 0,0 UV-I 0 W/m² -0,7 °C -4,8 °C 32,2 km/h (5 Bft)
08.01.2019 21:00 0,1 °C 94 % 1014,8 hPa 0,0 mm 16,9 km/h (3 Bft) W 262 ° 0 min 0,000 mm 0,0 UV-I 0 W/m² -0,7 °C -4,6 °C 27,4 km/h (4 Bft)
08.01.2019 21:01 0,1 °C 94 % 1014,8 hPa 0,0 mm 12,8 km/h (3 Bft) SW 231 ° 0 min 0,000 mm 0,0 UV-I 0 W/m² -0,7 °C -3,9 °C 17,7 km/h (3 Bft)
08.01.2019 21:02 0,1 °C 94 % 1014,8 hPa 0,0 mm 18,4 km/h (3 Bft) W-NW 300 ° 0 min 0,000 mm 0,0 UV-I 0 W/m² -0,7 °C -4,9 °C 27,4 km/h (4 Bft)
08.01.2019 21:03 0,1 °C 94 % 1014,8 hPa 0,0 mm 17,5 km/h (3 Bft) W 269 ° 0 min 0,000 mm 0,0 UV-I 0 W/m² -0,7 °C -4,7 °C 22,5 km/h (4 Bft)
08.01.2019 21:04 0,1 °C 94 % 1014,8 hPa 0,0 mm 17,2 km/h (3 Bft) W 261 ° 0 min 0,000 mm 0,0 UV-I 0 W/m² -0,7 °C -4,7 °C 29,0 km/h (5 Bft)
08.01.2019 21:05 0,1 °C 94 % 1014,7 hPa 0,0 mm 16,5 km/h (3 Bft) W 262 ° 0 min 0,000 mm 0,0 UV-I 0 W/m² -0,7 °C -4,6 °C 22,5 km/h (4 Bft)
08.01.2019 21:06 0,1 °C 94 % 1014,8 hPa 0,0 mm 19,7 km/h (3 Bft) W-SW 257 ° 0 min 0,000 mm 0,0 UV-I 0 W/m² -0,7 °C -5,1 °C 25,7 km/h (4 Bft)
08.01.2019 21:07 0,1 °C 94 % 1014,8 hPa 0,0 mm 18,1 km/h (3 Bft) W 266 ° 0 min 0,000 mm 0,0 UV-I 0 W/m² -0,7 °C -4,8 °C 29,0 km/h (5 Bft)
08.01.2019 21:08 0,1 °C 94 % 1014,7 hPa 0,0 mm 18,7 km/h (3 Bft) W-SW 250 ° 0 min 0,000 mm 0,0 UV-I 0 W/m² -0,7 °C -4,9 °C 29,0 km/h (5 Bft)
08.01.2019 21:09 0,1 °C 94 % 1014,8 hPa 0,0 mm 19,7 km/h (3 Bft) W 270 ° 0 min 0,000 mm 0,0 UV-I 0 W/m² -0,7 °C -5,1 °C 37,0 km/h (5 Bft)
08.01.2019 21:10 0,1 °C 94 % 1014,7 hPa 0,0 mm 22,2 km/h (4 Bft) W 262 ° 0 min 0,000 mm 0,0 UV-I 0 W/m² -0,7 °C -5,4 °C 30,6 km/h (5 Bft)
08.01.2019 21:11 0,1 °C 94 % 1014,6 hPa 0,0 mm 20,5 km/h (4 Bft) W 271 ° 0 min 0,000 mm 0,0 UV-I 0 W/m² -0,7 °C -5,2 °C 25,7 km/h (4 Bft)
08.01.2019 21:12 0,1 °C 94 % 1014,7 hPa 0,0 mm 16,3 km/h (3 Bft) SW 236 ° 0 min 0,000 mm 0,0 UV-I 0 W/m² -0,7 °C -4,5 °C 27,4 km/h (4 Bft)
08.01.2019 21:13 0,1 °C 94 % 1014,7 hPa 0,0 mm 17,3 km/h (3 Bft) W-SW 255 ° 0 min 0,000 mm 0,0 UV-I 0 W/m² -0,7 °C -4,7 °C 27,4 km/h (4 Bft)
08.01.2019 21:14 0,1 °C 94 % 1014,6 hPa 0,0 mm 16,2 km/h (3 Bft) W 261 ° 0 min 0,000 mm 0,0 UV-I 0 W/m² -0,7 °C -4,5 °C 24,1 km/h (4 Bft)
08.01.2019 21:15 0,1 °C 94 % 1014,6 hPa 0,0 mm 22,5 km/h (4 Bft) W-NW 299 ° 0 min 0,000 mm 0,0 UV-I 0 W/m² -0,7 °C -5,5 °C 29,0 km/h (5 Bft)
08.01.2019 21:16 0,1 °C 94 % 1014,5 hPa 0,0 mm 19,0 km/h (3 Bft) W-SW 256 ° 0 min 0,000 mm 0,0 UV-I 0 W/m² -0,7 °C -5,0 °C 33,8 km/h (5 Bft)
08.01.2019 21:17 0,1 °C 94 % 1014,5 hPa 0,0 mm 18,5 km/h (3 Bft) W-NW 295 ° 0 min 0,000 mm 0,0 UV-I 0 W/m² -0,7 °C -4,9 °C 29,0 km/h (5 Bft)
08.01.2019 21:18 0,1 °C 94 % 1014,5 hPa 0,0 mm 13,0 km/h (3 Bft) W-NW 288 ° 0 min 0,000 mm 0,0 UV-I 0 W/m² -0,7 °C -3,9 °C 17,7 km/h (3 Bft)
08.01.2019 21:19 0,1 °C 94 % 1014,6 hPa 0,0 mm 15,2 km/h (3 Bft) W 273 ° 0 min 0,000 mm 0,0 UV-I 0 W/m² -0,7 °C -4,3 °C 22,5 km/h (4 Bft)
08.01.2019 21:20 0,1 °C 94 % 1014,5 hPa 0,0 mm 16,6 km/h (3 Bft) W-NW 298 ° 0 min 0,000 mm 0,0 UV-I 0 W/m² -0,7 °C -4,6 °C 27,4 km/h (4 Bft)
08.01.2019 21:21 0,1 °C 94 % 1014,4 hPa 0,0 mm 17,9 km/h (3 Bft) W 271 ° 0 min 0,000 mm 0,0 UV-I 0 W/m² -0,7 °C -4,8 °C 25,7 km/h (4 Bft)
08.01.2019 21:22 0,1 °C 94 % 1014,4 hPa 0,0 mm 20,1 km/h (4 Bft) W 279 ° 0 min 0,000 mm 0,0 UV-I 0 W/m² -0,7 °C -5,1 °C 25,7 km/h (4 Bft)
08.01.2019 21:23 0,1 °C 94 % 1014,5 hPa 0,0 mm 15,7 km/h (3 Bft) SW 231 ° 0 min 0,000 mm 0,0 UV-I 0 W/m² -0,7 °C -4,4 °C 19,3 km/h (3 Bft)
08.01.2019 21:24 0,1 °C 94 % 1014,4 hPa 0,0 mm 15,8 km/h (3 Bft) W 272 ° 0 min 0,000 mm 0,0 UV-I 0 W/m² -0,7 °C -4,4 °C 20,9 km/h (4 Bft)
08.01.2019 21:25 0,1 °C 94 % 1014,3 hPa 0,0 mm 11,3 km/h (2 Bft) W 274 ° 0 min 0,000 mm 0,0 UV-I 0 W/m² -0,7 °C -3,5 °C 16,1 km/h (3 Bft)
08.01.2019 21:26 0,1 °C 94 % 1014,3 hPa 0,0 mm 12,7 km/h (3 Bft) W 269 ° 0 min 0,000 mm 0,0 UV-I 0 W/m² -0,7 °C -3,8 °C 20,9 km/h (4 Bft)
08.01.2019 21:27 0,1 °C 94 % 1014,5 hPa 0,0 mm 19,3 km/h (3 Bft) W 274 ° 0 min 0,000 mm 0,0 UV-I 0 W/m² -0,7 °C -5,0 °C 27,4 km/h (4 Bft)
08.01.2019 21:28 0,1 °C 94 % 1014,4 hPa 0,0 mm 17,5 km/h (3 Bft) W-SW 257 ° 0 min 0,000 mm 0,0 UV-I 0 W/m² -0,7 °C -4,7 °C 24,1 km/h (4 Bft)
08.01.2019 21:29 0,1 °C 94 % 1014,4 hPa 0,0 mm 13,7 km/h (3 Bft) W-SW 252 ° 0 min 0,000 mm 0,0 UV-I 0 W/m² -0,7 °C -4,0 °C 20,9 km/h (4 Bft)
08.01.2019 21:30 0,1 °C 94 % 1014,4 hPa 0,0 mm 19,1 km/h (3 Bft) NW 313 ° 0 min 0,000 mm 0,0 UV-I 0 W/m² -0,7 °C -5,0 °C 27,4 km/h (4 Bft)
08.01.2019 21:31 0,1 °C 94 % 1014,3 hPa 0,0 mm 20,2 km/h (4 Bft) W 273 ° 0 min 0,000 mm 0,0 UV-I 0 W/m² -0,7 °C -5,1 °C 29,0 km/h (5 Bft)
08.01.2019 21:32 0,1 °C 94 % 1014,4 hPa 0,0 mm 13,4 km/h (3 Bft) W 265 ° 0 min 0,000 mm 0,0 UV-I 0 W/m² -0,7 °C -4,0 °C 17,7 km/h (3 Bft)
08.01.2019 21:33 0,1 °C 94 % 1014,4 hPa 0,2 mm 18,1 km/h (3 Bft) W 260 ° 0 min 0,000 mm 0,0 UV-I 0 W/m² -0,7 °C -4,8 °C 24,1 km/h (4 Bft)
08.01.2019 21:34 0,1 °C 94 % 1014,4 hPa 0,0 mm 12,8 km/h (3 Bft) W-SW 237 ° 0 min 0,000 mm 0,0 UV-I 0 W/m² -0,7 °C -3,9 °C 16,1 km/h (3 Bft)
08.01.2019 21:35 0,1 °C 94 % 1014,3 hPa 0,0 mm 12,1 km/h (2 Bft) W-SW 252 ° 0 min 0,000 mm 0,0 UV-I 0 W/m² -0,7 °C -3,7 °C 19,3 km/h (3 Bft)
08.01.2019 21:36 0,1 °C 94 % 1014,3 hPa 0,0 mm 14,4 km/h (3 Bft) W-SW 248 ° 0 min 0,000 mm 0,0 UV-I 0 W/m² -0,7 °C -4,2 °C 22,5 km/h (4 Bft)
08.01.2019 21:37 0,1 °C 94 % 1014,3 hPa 0,0 mm 14,1 km/h (3 Bft) NW 305 ° 0 min 0,000 mm 0,0 UV-I 0 W/m² -0,7 °C -4,1 °C 19,3 km/h (3 Bft)
08.01.2019 21:38 0,1 °C 94 % 1014,3 hPa 0,0 mm 15,0 km/h (3 Bft) W-NW 288 ° 0 min 0,000 mm 0,0 UV-I 0 W/m² -0,7 °C -4,3 °C 20,9 km/h (4 Bft)
08.01.2019 21:39 0,1 °C 94 % 1014,3 hPa 0,0 mm 16,2 km/h (3 Bft) W 266 ° 0 min 0,000 mm 0,0 UV-I 0 W/m² -0,7 °C -4,5 °C 24,1 km/h (4 Bft)
08.01.2019 21:40 0,1 °C 94 % 1014,3 hPa 0,0 mm 10,1 km/h (2 Bft) W-SW 251 ° 0 min 0,000 mm 0,0 UV-I 0 W/m² -0,7 °C -3,2 °C 16,1 km/h (3 Bft)
08.01.2019 21:41 0,1 °C 94 % 1014,2 hPa 0,0 mm 15,0 km/h (3 Bft) W 261 ° 0 min 0,000 mm 0,0 UV-I 0 W/m² -0,7 °C -4,3 °C 24,1 km/h (4 Bft)
08.01.2019 21:42 0,1 °C 94 % 1014,3 hPa 0,0 mm 11,3 km/h (2 Bft) W 263 ° 0 min 0,000 mm 0,0 UV-I 0 W/m² -0,7 °C -3,5 °C 14,5 km/h (3 Bft)
08.01.2019 21:43 0,1 °C 94 % 1014,3 hPa 0,0 mm 11,6 km/h (2 Bft) W 261 ° 0 min 0,000 mm 0,0 UV-I 0 W/m² -0,7 °C -3,6 °C 16,1 km/h (3 Bft)
08.01.2019 21:44 0,1 °C 94 % 1014,2 hPa 0,0 mm 15,9 km/h (3 Bft) W-SW 255 ° 0 min 0,000 mm 0,0 UV-I 0 W/m² -0,7 °C -4,5 °C 29,0 km/h (5 Bft)
08.01.2019 21:45 0,1 °C 94 % 1014,2 hPa 0,0 mm 17,5 km/h (3 Bft) W 278 ° 0 min 0,000 mm 0,0 UV-I 0 W/m² -0,7 °C -4,7 °C 27,4 km/h (4 Bft)
08.01.2019 21:46 0,1 °C 94 % 1014,2 hPa 0,0 mm 13,5 km/h (3 Bft) W 270 ° 0 min 0,000 mm 0,0 UV-I 0 W/m² -0,7 °C -4,0 °C 19,3 km/h (3 Bft)
08.01.2019 21:47 0,1 °C 94 % 1014,2 hPa 0,0 mm 15,7 km/h (3 Bft) W-SW 257 ° 0 min 0,000 mm 0,0 UV-I 0 W/m² -0,7 °C -4,4 °C 20,9 km/h (4 Bft)
08.01.2019 21:48 0,1 °C 94 % 1014,2 hPa 0,0 mm 14,6 km/h (3 Bft) W-SW 246 ° 0 min 0,000 mm 0,0 UV-I 0 W/m² -0,7 °C -4,2 °C 25,7 km/h (4 Bft)
08.01.2019 21:49 0,1 °C 94 % 1014,2 hPa 0,0 mm 19,3 km/h (3 Bft) W-NW 298 ° 0 min 0,000 mm 0,0 UV-I 0 W/m² -0,7 °C -5,0 °C 25,7 km/h (4 Bft)
08.01.2019 21:50 0,1 °C 94 % 1014,2 hPa 0,0 mm 13,0 km/h (3 Bft) W-NW 282 ° 0 min 0,000 mm 0,0 UV-I 0 W/m² -0,7 °C -3,9 °C 16,1 km/h (3 Bft)
08.01.2019 21:51 0,1 °C 94 % 1014,3 hPa 0,0 mm 16,7 km/h (3 Bft) W-SW 254 ° 0 min 0,000 mm 0,0 UV-I 0 W/m² -0,7 °C -4,6 °C 20,9 km/h (4 Bft)
08.01.2019 21:52 0,1 °C 94 % 1014,2 hPa 0,0 mm 16,6 km/h (3 Bft) W-SW 240 ° 0 min 0,000 mm 0,0 UV-I 0 W/m² -0,7 °C -4,6 °C 22,5 km/h (4 Bft)
08.01.2019 21:53 0,1 °C 94 % 1014,2 hPa 0,0 mm 12,1 km/h (2 Bft) W 267 ° 0 min 0,000 mm 0,0 UV-I 0 W/m² -0,7 °C -3,7 °C 22,5 km/h (4 Bft)
08.01.2019 21:54 0,1 °C 94 % 1014,3 hPa 0,0 mm 16,4 km/h (3 Bft) W 271 ° 0 min 0,000 mm 0,0 UV-I 0 W/m² -0,7 °C -4,5 °C 20,9 km/h (4 Bft)
08.01.2019 21:55 0,1 °C 94 % 1014,2 hPa 0,0 mm 12,6 km/h (3 Bft) W-NW 282 ° 0 min 0,000 mm 0,0 UV-I 0 W/m² -0,7 °C -3,8 °C 16,1 km/h (3 Bft)
08.01.2019 21:56 0,1 °C 94 % 1014,2 hPa 0,0 mm 11,6 km/h (2 Bft) W-NW 290 ° 0 min 0,000 mm 0,0 UV-I 0 W/m² -0,7 °C -3,6 °C 17,7 km/h (3 Bft)
08.01.2019 21:57 0,1 °C 94 % 1014,3 hPa 0,0 mm 13,3 km/h (3 Bft) W 265 ° 0 min 0,000 mm 0,0 UV-I 0 W/m² -0,7 °C -4,0 °C 17,7 km/h (3 Bft)
08.01.2019 21:58 0,1 °C 94 % 1014,3 hPa 0,0 mm 12,2 km/h (2 Bft) W 260 ° 0 min 0,000 mm 0,0 UV-I 0 W/m² -0,7 °C -3,7 °C 19,3 km/h (3 Bft)
08.01.2019 21:59 0,1 °C 94 % 1014,3 hPa 0,0 mm 11,7 km/h (2 Bft) W 277 ° 0 min 0,000 mm 0,0 UV-I 0 W/m² -0,7 °C -3,6 °C 19,3 km/h (3 Bft)
08.01.2019 22:00 0,1 °C 94 % 1014,3 hPa 0,0 mm 18,5 km/h (3 Bft) W 273 ° 0 min 0,000 mm 0,0 UV-I 0 W/m² -0,7 °C -4,9 °C 22,5 km/h (4 Bft)
08.01.2019 22:01 0,1 °C 94 % 1014,3 hPa 0,0 mm 9,7 km/h (2 Bft) W 267 ° 0 min 0,000 mm 0,0 UV-I 0 W/m² -0,7 °C -3,1 °C 17,7 km/h (3 Bft)
08.01.2019 22:02 0,1 °C 94 % 1014,3 hPa 0,0 mm 14,4 km/h (3 Bft) W-NW 293 ° 0 min 0,000 mm 0,0 UV-I 0 W/m² -0,7 °C -4,2 °C 20,9 km/h (4 Bft)
08.01.2019 22:03 0,1 °C 94 % 1014,2 hPa 0,0 mm 15,0 km/h (3 Bft) W-SW 253 ° 0 min 0,000 mm 0,0 UV-I 0 W/m² -0,7 °C -4,3 °C 27,4 km/h (4 Bft)
08.01.2019 22:04 0,1 °C 94 % 1014,2 hPa 0,0 mm 16,4 km/h (3 Bft) W-SW 249 ° 0 min 0,000 mm 0,0 UV-I 0 W/m² -0,7 °C -4,5 °C 20,9 km/h (4 Bft)
08.01.2019 22:05 0,1 °C 94 % 1014,2 hPa 0,0 mm 15,0 km/h (3 Bft) W 271 ° 0 min 0,000 mm 0,0 UV-I 0 W/m² -0,7 °C -4,3 °C 19,3 km/h (3 Bft)
08.01.2019 22:06 0,1 °C 94 % 1014,1 hPa 0,0 mm 9,1 km/h (2 Bft) W-SW 255 ° 0 min 0,000 mm 0,0 UV-I 0 W/m² -0,7 °C -2,9 °C 17,7 km/h (3 Bft)
08.01.2019 22:07 0,1 °C 94 % 1014,2 hPa 0,0 mm 13,5 km/h (3 Bft) W 265 ° 0 min 0,000 mm 0,0 UV-I 0 W/m² -0,7 °C -4,0 °C 17,7 km/h (3 Bft)
08.01.2019 22:08 0,1 °C 94 % 1014,2 hPa 0,0 mm 22,6 km/h (4 Bft) W 259 ° 0 min 0,000 mm 0,0 UV-I 0 W/m² -0,7 °C -5,5 °C 29,0 km/h (5 Bft)
08.01.2019 22:09 0,1 °C 94 % 1014,2 hPa 0,0 mm 17,3 km/h (3 Bft) W-NW 290 ° 0 min 0,000 mm 0,0 UV-I 0 W/m² -0,7 °C -4,7 °C 25,7 km/h (4 Bft)
08.01.2019 22:10 0,1 °C 94 % 1014,2 hPa 0,0 mm 11,4 km/h (2 Bft) W-SW 239 ° 0 min 0,000 mm 0,0 UV-I 0 W/m² -0,7 °C -3,5 °C 17,7 km/h (3 Bft)
08.01.2019 22:11 0,1 °C 94 % 1014,1 hPa 0,0 mm 17,0 km/h (3 Bft) W-NW 287 ° 0 min 0,000 mm 0,0 UV-I 0 W/m² -0,7 °C -4,6 °C 22,5 km/h (4 Bft)
08.01.2019 22:12 0,1 °C 94 % 1014,1 hPa 0,0 mm 14,8 km/h (3 Bft) SW 229 ° 0 min 0,000 mm 0,0 UV-I 0 W/m² -0,7 °C -4,3 °C 20,9 km/h (4 Bft)
08.01.2019 22:13 0,1 °C 94 % 1014,1 hPa 0,0 mm 8,6 km/h (2 Bft) W-SW 250 ° 0 min 0,000 mm 0,0 UV-I 0 W/m² -0,7 °C -2,8 °C 14,5 km/h (3 Bft)
08.01.2019 22:14 0,1 °C 94 % 1014,1 hPa 0,0 mm 9,7 km/h (2 Bft) W 273 ° 0 min 0,000 mm 0,0 UV-I 0 W/m² -0,7 °C -3,1 °C 16,1 km/h (3 Bft)
08.01.2019 22:15 0,1 °C 94 % 1014,1 hPa 0,0 mm 12,9 km/h (3 Bft) W-SW 255 ° 0 min 0,000 mm 0,0 UV-I 0 W/m² -0,7 °C -3,9 °C 19,3 km/h (3 Bft)
08.01.2019 22:16 0,1 °C 94 % 1014,0 hPa 0,0 mm 13,3 km/h (3 Bft) W-SW 254 ° 0 min 0,000 mm 0,0 UV-I 0 W/m² -0,7 °C -4,0 °C 16,1 km/h (3 Bft)
08.01.2019 22:17 0,1 °C 94 % 1014,0 hPa 0,0 mm 15,2 km/h (3 Bft) W-SW 240 ° 0 min 0,000 mm 0,0 UV-I 0 W/m² -0,7 °C -4,3 °C 24,1 km/h (4 Bft)
08.01.2019 22:18 0,1 °C 94 % 1013,9 hPa 0,0 mm 10,6 km/h (2 Bft) W-SW 257 ° 0 min 0,000 mm 0,0 UV-I 0 W/m² -0,7 °C -3,3 °C 17,7 km/h (3 Bft)
08.01.2019 22:19 0,1 °C 94 % 1014,1 hPa 0,0 mm 16,6 km/h (3 Bft) W-SW 253 ° 0 min 0,000 mm 0,0 UV-I 0 W/m² -0,7 °C -4,6 °C 20,9 km/h (4 Bft)
08.01.2019 22:20 0,1 °C 94 % 1014,1 hPa 0,0 mm 17,5 km/h (3 Bft) W 264 ° 0 min 0,000 mm 0,0 UV-I 0 W/m² -0,7 °C -4,7 °C 27,4 km/h (4 Bft)
08.01.2019 22:21 0,1 °C 94 % 1014,2 hPa 0,0 mm 12,0 km/h (2 Bft) W 274 ° 0 min 0,000 mm 0,0 UV-I 0 W/m² -0,7 °C -3,7 °C 20,9 km/h (4 Bft)
08.01.2019 22:22 0,1 °C 94 % 1014,2 hPa 0,0 mm 12,9 km/h (3 Bft) W-SW 255 ° 0 min 0,000 mm 0,0 UV-I 0 W/m² -0,7 °C -3,9 °C 19,3 km/h (3 Bft)
08.01.2019 22:23 0,1 °C 94 % 1014,2 hPa 0,0 mm 14,8 km/h (3 Bft) W-SW 237 ° 0 min 0,000 mm 0,0 UV-I 0 W/m² -0,7 °C -4,3 °C 20,9 km/h (4 Bft)
08.01.2019 22:24 0,1 °C 94 % 1014,2 hPa 0,0 mm 21,3 km/h (4 Bft) NW 311 ° 0 min 0,000 mm 0,0 UV-I 0 W/m² -0,7 °C -5,3 °C 30,6 km/h (5 Bft)
08.01.2019 22:25 0,1 °C 94 % 1014,2 hPa 0,0 mm 22,5 km/h (4 Bft) W 274 ° 0 min 0,000 mm 0,0 UV-I 0 W/m² -0,7 °C -5,5 °C 30,6 km/h (5 Bft)
08.01.2019 22:26 0,1 °C 94 % 1014,2 hPa 0,0 mm 18,1 km/h (3 Bft) W-SW 254 ° 0 min 0,000 mm 0,0 UV-I 0 W/m² -0,7 °C -4,8 °C 22,5 km/h (4 Bft)
08.01.2019 22:27 0,1 °C 94 % 1014,2 hPa 0,0 mm 16,9 km/h (3 Bft) W-SW 243 ° 0 min 0,000 mm 0,0 UV-I 0 W/m² -0,7 °C -4,6 °C 22,5 km/h (4 Bft)
08.01.2019 22:28 0,1 °C 94 % 1014,2 hPa 0,0 mm 15,5 km/h (3 Bft) W-SW 254 ° 0 min 0,000 mm 0,0 UV-I 0 W/m² -0,7 °C -4,4 °C 20,9 km/h (4 Bft)
08.01.2019 22:29 0,1 °C 94 % 1014,2 hPa 0,0 mm 12,6 km/h (3 Bft) NW 308 ° 0 min 0,000 mm 0,0 UV-I 0 W/m² -0,7 °C -3,8 °C 17,7 km/h (3 Bft)
08.01.2019 22:30 0,1 °C 94 % 1014,3 hPa 0,0 mm 13,6 km/h (3 Bft) W-SW 253 ° 0 min 0,000 mm 0,0 UV-I 0 W/m² -0,7 °C -4,0 °C 19,3 km/h (3 Bft)
08.01.2019 22:31 0,1 °C 94 % 1014,2 hPa 0,0 mm 10,3 km/h (2 Bft) W-SW 248 ° 0 min 0,000 mm 0,0 UV-I 0 W/m² -0,7 °C -3,3 °C 17,7 km/h (3 Bft)
08.01.2019 22:32 0,1 °C 94 % 1014,3 hPa 0,0 mm 17,8 km/h (3 Bft) W-SW 248 ° 0 min 0,000 mm 0,0 UV-I 0 W/m² -0,7 °C -4,8 °C 24,1 km/h (4 Bft)
08.01.2019 22:33 0,1 °C 94 % 1014,4 hPa 0,0 mm 15,1 km/h (3 Bft) W 274 ° 0 min 0,000 mm 0,0 UV-I 0 W/m² -0,7 °C -4,3 °C 19,3 km/h (3 Bft)
08.01.2019 22:34 0,1 °C 94 % 1014,3 hPa 0,0 mm 18,9 km/h (3 Bft) W 273 ° 0 min 0,000 mm 0,0 UV-I 0 W/m² -0,7 °C -5,0 °C 27,4 km/h (4 Bft)
08.01.2019 22:35 0,0 °C 94 % 1014,3 hPa 0,0 mm 17,3 km/h (3 Bft) W-SW 239 ° 0 min 0,000 mm 0,0 UV-I 0 W/m² -0,8 °C -4,8 °C 25,7 km/h (4 Bft)
08.01.2019 22:36 0,0 °C 94 % 1014,4 hPa 0,0 mm 20,5 km/h (4 Bft) W 266 ° 0 min 0,000 mm 0,0 UV-I 0 W/m² -0,8 °C -5,3 °C 27,4 km/h (4 Bft)
08.01.2019 22:37 0,1 °C 94 % 1014,4 hPa 0,0 mm 24,1 km/h (4 Bft) W 269 ° 0 min 0,000 mm 0,0 UV-I 0 W/m² -0,7 °C -5,7 °C 30,6 km/h (5 Bft)
08.01.2019 22:38 0,0 °C 94 % 1014,4 hPa 0,0 mm 21,7 km/h (4 Bft) W 270 ° 0 min 0,000 mm 0,0 UV-I 0 W/m² -0,8 °C -5,5 °C 32,2 km/h (5 Bft)
08.01.2019 22:39 0,0 °C 94 % 1014,4 hPa 0,0 mm 25,3 km/h (4 Bft) W 267 ° 0 min 0,000 mm 0,0 UV-I 0 W/m² -0,8 °C -5,9 °C 33,8 km/h (5 Bft)
08.01.2019 22:40 0,1 °C 94 % 1014,4 hPa 0,0 mm 17,2 km/h (3 Bft) W 261 ° 0 min 0,000 mm 0,0 UV-I 0 W/m² -0,7 °C -4,7 °C 22,5 km/h (4 Bft)
08.01.2019 22:41 0,0 °C 94 % 1014,5 hPa 0,0 mm 15,4 km/h (3 Bft) W 271 ° 0 min 0,000 mm 0,0 UV-I 0 W/m² -0,8 °C -4,5 °C 22,5 km/h (4 Bft)
08.01.2019 22:42 0,0 °C 94 % 1014,4 hPa 0,0 mm 15,5 km/h (3 Bft) W-NW 290 ° 0 min 0,000 mm 0,0 UV-I 0 W/m² -0,8 °C -4,5 °C 22,5 km/h (4 Bft)
08.01.2019 22:43 0,0 °C 94 % 1014,4 hPa 0,0 mm 14,3 km/h (3 Bft) W-SW 256 ° 0 min 0,000 mm 0,0 UV-I 0 W/m² -0,8 °C -4,3 °C 16,1 km/h (3 Bft)
08.01.2019 22:44 0,1 °C 94 % 1014,5 hPa 0,0 mm 10,4 km/h (2 Bft) W 267 ° 0 min 0,000 mm 0,0 UV-I 0 W/m² -0,7 °C -3,3 °C 17,7 km/h (3 Bft)
08.01.2019 22:45 0,0 °C 94 % 1014,5 hPa 0,0 mm 17,1 km/h (3 Bft) W 271 ° 0 min 0,000 mm 0,0 UV-I 0 W/m² -0,8 °C -4,8 °C 25,7 km/h (4 Bft)
08.01.2019 22:46 0,0 °C 94 % 1014,4 hPa 0,0 mm 17,2 km/h (3 Bft) W 260 ° 0 min 0,000 mm 0,0 UV-I 0 W/m² -0,8 °C -4,8 °C 19,3 km/h (3 Bft)
08.01.2019 22:47 0,0 °C 94 % 1014,3 hPa 0,0 mm 14,1 km/h (3 Bft) W 267 ° 0 min 0,000 mm 0,0 UV-I 0 W/m² -0,8 °C -4,2 °C 20,9 km/h (4 Bft)
08.01.2019 22:48 0,0 °C 94 % 1014,5 hPa 0,0 mm 18,0 km/h (3 Bft) W-SW 243 ° 0 min 0,000 mm 0,0 UV-I 0 W/m² -0,8 °C -4,9 °C 25,7 km/h (4 Bft)
08.01.2019 22:49 0,0 °C 94 % 1014,3 hPa 0,0 mm 19,9 km/h (4 Bft) W 263 ° 0 min 0,000 mm 0,0 UV-I 0 W/m² -0,8 °C -5,2 °C 30,6 km/h (5 Bft)
08.01.2019 22:50 0,0 °C 94 % 1014,4 hPa 0,0 mm 15,6 km/h (3 Bft) W 263 ° 0 min 0,000 mm 0,0 UV-I 0 W/m² -0,8 °C -4,5 °C 20,9 km/h (4 Bft)
08.01.2019 22:51 0,0 °C 94 % 1014,4 hPa 0,0 mm 19,6 km/h (3 Bft) W 261 ° 0 min 0,000 mm 0,0 UV-I 0 W/m² -0,8 °C -5,2 °C 25,7 km/h (4 Bft)
08.01.2019 22:52 0,0 °C 94 % 1014,3 hPa 0,0 mm 22,2 km/h (4 Bft) W-SW 256 ° 0 min 0,000 mm 0,0 UV-I 0 W/m² -0,8 °C -5,6 °C 33,8 km/h (5 Bft)
08.01.2019 22:53 0,0 °C 94 % 1014,2 hPa 0,0 mm 20,4 km/h (4 Bft) W-NW 284 ° 0 min 0,000 mm 0,0 UV-I 0 W/m² -0,8 °C -5,3 °C 29,0 km/h (5 Bft)
08.01.2019 22:54 0,0 °C 94 % 1014,3 hPa 0,0 mm 14,9 km/h (3 Bft) W-SW 247 ° 0 min 0,000 mm 0,0 UV-I 0 W/m² -0,8 °C -4,4 °C 19,3 km/h (3 Bft)
08.01.2019 22:55 -0,1 °C 94 % 1014,2 hPa 0,0 mm 17,2 km/h (3 Bft) W 272 ° 0 min 0,000 mm 0,0 UV-I 0 W/m² -0,9 °C -4,9 °C 22,5 km/h (4 Bft)
08.01.2019 22:56 0,0 °C 94 % 1014,2 hPa 0,0 mm 13,7 km/h (3 Bft) W-SW 258 ° 0 min 0,000 mm 0,0 UV-I 0 W/m² -0,8 °C -4,2 °C 19,3 km/h (3 Bft)
08.01.2019 22:57 0,0 °C 94 % 1014,1 hPa 0,0 mm 12,3 km/h (3 Bft) S 175 ° 0 min 0,000 mm 0,0 UV-I 0 W/m² -0,8 °C -3,9 °C 17,7 km/h (3 Bft)
08.01.2019 22:58 -0,1 °C 94 % 1014,1 hPa 0,0 mm 23,7 km/h (4 Bft) W 269 ° 0 min 0,000 mm 0,0 UV-I 0 W/m² -0,9 °C -5,9 °C 33,8 km/h (5 Bft)
08.01.2019 22:59 0,0 °C 94 % 1014,0 hPa 0,0 mm 16,0 km/h (3 Bft) W-SW 252 ° 0 min 0,000 mm 0,0 UV-I 0 W/m² -0,8 °C -4,6 °C 22,5 km/h (4 Bft)
08.01.2019 23:00 0,0 °C 94 % 1014,0 hPa 0,0 mm 16,2 km/h (3 Bft) W-SW 239 ° 0 min 0,000 mm 0,0 UV-I 0 W/m² -0,8 °C -4,6 °C 22,5 km/h (4 Bft)
08.01.2019 23:01 0,0 °C 94 % 1013,9 hPa 0,0 mm 14,8 km/h (3 Bft) W-SW 250 ° 0 min 0,000 mm 0,0 UV-I 0 W/m² -0,8 °C -4,4 °C 20,9 km/h (4 Bft)
08.01.2019 23:02 -0,1 °C 94 % 1013,9 hPa 0,0 mm 14,4 km/h (3 Bft) W-SW 242 ° 0 min 0,000 mm 0,0 UV-I 0 W/m² -0,9 °C -4,4 °C 20,9 km/h (4 Bft)
08.01.2019 23:03 0,0 °C 94 % 1014,0 hPa 0,0 mm 17,6 km/h (3 Bft) W-NW 288 ° 0 min 0,000 mm 0,0 UV-I 0 W/m² -0,8 °C -4,9 °C 22,5 km/h (4 Bft)
08.01.2019 23:04 0,0 °C 94 % 1013,9 hPa 0,0 mm 20,5 km/h (4 Bft) W 266 ° 0 min 0,000 mm 0,0 UV-I 0 W/m² -0,8 °C -5,3 °C 30,6 km/h (5 Bft)
08.01.2019 23:05 -0,1 °C 94 % 1013,9 hPa 0,0 mm 15,2 km/h (3 Bft) W-SW 248 ° 0 min 0,000 mm 0,0 UV-I 0 W/m² -0,9 °C -4,6 °C 19,3 km/h (3 Bft)
08.01.2019 23:06 -0,1 °C 94 % 1013,9 hPa 0,0 mm 16,4 km/h (3 Bft) W-NW 284 ° 0 min 0,000 mm 0,0 UV-I 0 W/m² -0,9 °C -4,8 °C 17,7 km/h (3 Bft)
08.01.2019 23:07 -0,1 °C 94 % 1013,8 hPa 0,0 mm 8,2 km/h (2 Bft) W 280 ° 0 min 0,000 mm 0,0 UV-I 0 W/m² -0,9 °C -2,9 °C 12,9 km/h (3 Bft)
08.01.2019 23:08 -0,1 °C 94 % 1013,8 hPa 0,0 mm 13,7 km/h (3 Bft) W-SW 258 ° 0 min 0,000 mm 0,0 UV-I 0 W/m² -0,9 °C -4,3 °C 17,7 km/h (3 Bft)
08.01.2019 23:09 -0,1 °C 94 % 1013,8 hPa 0,0 mm 17,0 km/h (3 Bft) W 272 ° 0 min 0,000 mm 0,0 UV-I 0 W/m² -0,9 °C -4,9 °C 22,5 km/h (4 Bft)
08.01.2019 23:10 -0,1 °C 94 % 1013,9 hPa 0,0 mm 12,6 km/h (3 Bft) W 265 ° 0 min 0,000 mm 0,0 UV-I 0 W/m² -0,9 °C -4,1 °C 19,3 km/h (3 Bft)
08.01.2019 23:11 -0,1 °C 94 % 1013,8 hPa 0,0 mm 7,6 km/h (2 Bft) W 272 ° 0 min 0,000 mm 0,0 UV-I 0 W/m² -0,9 °C -2,7 °C 11,3 km/h (2 Bft)
08.01.2019 23:12 -0,1 °C 94 % 1013,8 hPa 0,0 mm 7,8 km/h (2 Bft) W-NW 302 ° 0 min 0,000 mm 0,0 UV-I 0 W/m² -0,9 °C -2,8 °C 12,9 km/h (3 Bft)
08.01.2019 23:13 -0,1 °C 94 % 1013,8 hPa 0,0 mm 11,8 km/h (2 Bft) W 281 ° 0 min 0,000 mm 0,0 UV-I 0 W/m² -0,9 °C -3,9 °C 16,1 km/h (3 Bft)
08.01.2019 23:14 -0,1 °C 94 % 1013,7 hPa 0,0 mm 14,6 km/h (3 Bft) W 273 ° 0 min 0,000 mm 0,0 UV-I 0 W/m² -0,9 °C -4,5 °C 20,9 km/h (4 Bft)
08.01.2019 23:15 -0,1 °C 94 % 1013,6 hPa 0,0 mm 11,9 km/h (2 Bft) W-SW 242 ° 0 min 0,000 mm 0,0 UV-I 0 W/m² -0,9 °C -3,9 °C 20,9 km/h (4 Bft)
08.01.2019 23:16 -0,1 °C 94 % 1013,6 hPa 0,0 mm 13,0 km/h (3 Bft) W 263 ° 0 min 0,000 mm 0,0 UV-I 0 W/m² -0,9 °C -4,1 °C 19,3 km/h (3 Bft)
08.01.2019 23:17 -0,1 °C 94 % 1013,6 hPa 0,0 mm 17,5 km/h (3 Bft) W 274 ° 0 min 0,000 mm 0,0 UV-I 0 W/m² -0,9 °C -5,0 °C 20,9 km/h (4 Bft)
08.01.2019 23:18 -0,1 °C 94 % 1013,6 hPa 0,0 mm 10,3 km/h (2 Bft) W-SW 248 ° 0 min 0,000 mm 0,0 UV-I 0 W/m² -0,9 °C -3,5 °C 16,1 km/h (3 Bft)
08.01.2019 23:19 -0,1 °C 94 % 1013,5 hPa 0,0 mm 16,0 km/h (3 Bft) W 263 ° 0 min 0,000 mm 0,0 UV-I 0 W/m² -0,9 °C -4,7 °C 24,1 km/h (4 Bft)
08.01.2019 23:20 -0,1 °C 94 % 1013,5 hPa 0,0 mm 14,3 km/h (3 Bft) W 259 ° 0 min 0,000 mm 0,0 UV-I 0 W/m² -0,9 °C -4,4 °C 17,7 km/h (3 Bft)
08.01.2019 23:21 -0,1 °C 94 % 1013,5 hPa 0,0 mm 16,5 km/h (3 Bft) W 261 ° 0 min 0,000 mm 0,0 UV-I 0 W/m² -0,9 °C -4,8 °C 25,7 km/h (4 Bft)
08.01.2019 23:22 -0,1 °C 94 % 1013,4 hPa 0,0 mm 14,4 km/h (3 Bft) W-SW 256 ° 0 min 0,000 mm 0,0 UV-I 0 W/m² -0,9 °C -4,4 °C 20,9 km/h (4 Bft)
08.01.2019 23:23 -0,1 °C 94 % 1013,5 hPa 0,0 mm 12,1 km/h (2 Bft) W-NW 298 ° 0 min 0,000 mm 0,0 UV-I 0 W/m² -0,9 °C -3,9 °C 14,5 km/h (3 Bft)
08.01.2019 23:24 -0,1 °C 94 % 1013,4 hPa 0,0 mm 8,0 km/h (2 Bft) W-SW 246 ° 0 min 0,000 mm 0,0 UV-I 0 W/m² -0,9 °C -2,9 °C 12,9 km/h (3 Bft)
08.01.2019 23:25 -0,1 °C 94 % 1013,4 hPa 0,0 mm 16,0 km/h (3 Bft) W 265 ° 0 min 0,000 mm 0,0 UV-I 0 W/m² -0,9 °C -4,7 °C 19,3 km/h (3 Bft)
08.01.2019 23:26 -0,1 °C 94 % 1013,4 hPa 0,0 mm 13,8 km/h (3 Bft) W 269 ° 0 min 0,000 mm 0,0 UV-I 0 W/m² -0,9 °C -4,3 °C 16,1 km/h (3 Bft)
08.01.2019 23:27 -0,1 °C 94 % 1013,4 hPa 0,0 mm 13,7 km/h (3 Bft) W-SW 250 ° 0 min 0,000 mm 0,0 UV-I 0 W/m² -0,9 °C -4,3 °C 19,3 km/h (3 Bft)
08.01.2019 23:28 -0,1 °C 94 % 1013,4 hPa 0,0 mm 14,4 km/h (3 Bft) W-SW 250 ° 0 min 0,000 mm 0,0 UV-I 0 W/m² -0,9 °C -4,4 °C 17,7 km/h (3 Bft)
08.01.2019 23:29 -0,1 °C 94 % 1013,4 hPa 0,0 mm 14,3 km/h (3 Bft) W 263 ° 0 min 0,000 mm 0,0 UV-I 0 W/m² -0,9 °C -4,4 °C 20,9 km/h (4 Bft)
08.01.2019 23:30 -0,1 °C 94 % 1013,3 hPa 0,0 mm 12,7 km/h (3 Bft) W-SW 246 ° 0 min 0,000 mm 0,0 UV-I 0 W/m² -0,9 °C -4,1 °C 17,7 km/h (3 Bft)
08.01.2019 23:31 -0,1 °C 94 % 1013,4 hPa 0,0 mm 12,1 km/h (2 Bft) W-SW 252 ° 0 min 0,000 mm 0,0 UV-I 0 W/m² -0,9 °C -3,9 °C 17,7 km/h (3 Bft)
08.01.2019 23:32 -0,1 °C 94 % 1013,4 hPa 0,0 mm 13,4 km/h (3 Bft) W-NW 282 ° 0 min 0,000 mm 0,0 UV-I 0 W/m² -0,9 °C -4,2 °C 17,7 km/h (3 Bft)
08.01.2019 23:33 -0,1 °C 94 % 1013,3 hPa 0,0 mm 17,3 km/h (3 Bft) W 271 ° 0 min 0,000 mm 0,0 UV-I 0 W/m² -0,9 °C -4,9 °C 24,1 km/h (4 Bft)
08.01.2019 23:34 -0,1 °C 94 % 1013,3 hPa 0,0 mm 12,1 km/h (2 Bft) W 267 ° 0 min 0,000 mm 0,0 UV-I 0 W/m² -0,9 °C -3,9 °C 25,7 km/h (4 Bft)
08.01.2019 23:35 -0,1 °C 94 % 1013,4 hPa 0,0 mm 25,8 km/h (4 Bft) W-NW 294 ° 0 min 0,000 mm 0,0 UV-I 0 W/m² -0,9 °C -6,1 °C 38,6 km/h (5 Bft)
08.01.2019 23:36 -0,1 °C 94 % 1013,4 hPa 0,0 mm 16,3 km/h (3 Bft) W 266 ° 0 min 0,000 mm 0,0 UV-I 0 W/m² -0,9 °C -4,8 °C 20,9 km/h (4 Bft)
08.01.2019 23:37 -0,1 °C 94 % 1013,4 hPa 0,0 mm 22,6 km/h (4 Bft) SW 229 ° 0 min 0,000 mm 0,0 UV-I 0 W/m² -0,9 °C -5,7 °C 30,6 km/h (5 Bft)
08.01.2019 23:38 -0,1 °C 94 % 1013,5 hPa 0,0 mm 21,8 km/h (4 Bft) S-SW 208 ° 0 min 0,000 mm 0,0 UV-I 0 W/m² -0,9 °C -5,6 °C 32,2 km/h (5 Bft)
08.01.2019 23:39 -0,1 °C 94 % 1013,6 hPa 0,0 mm 32,9 km/h (5 Bft) W-NW 298 ° 0 min 0,000 mm 0,0 UV-I 0 W/m² -0,9 °C -6,9 °C 49,9 km/h (6 Bft)
08.01.2019 23:40 -0,1 °C 94 % 1013,9 hPa 0,0 mm 28,5 km/h (4 Bft) W-NW 297 ° 0 min 0,000 mm 0,0 UV-I 0 W/m² -0,9 °C -6,4 °C 43,5 km/h (6 Bft)
08.01.2019 23:41 -0,1 °C 94 % 1013,9 hPa 0,0 mm 33,6 km/h (5 Bft) W-NW 303 ° 0 min 0,000 mm 0,0 UV-I 0 W/m² -0,9 °C -7,0 °C 46,7 km/h (6 Bft)
08.01.2019 23:42 -0,1 °C 94 % 1013,9 hPa 0,0 mm 25,7 km/h (4 Bft) W-NW 295 ° 0 min 0,000 mm 0,0 UV-I 0 W/m² -0,9 °C -6,1 °C 38,6 km/h (5 Bft)
08.01.2019 23:43 -0,1 °C 94 % 1013,9 hPa 0,0 mm 18,1 km/h (3 Bft) W-SW 257 ° 0 min 0,000 mm 0,0 UV-I 0 W/m² -0,9 °C -5,1 °C 32,2 km/h (5 Bft)
08.01.2019 23:44 -0,1 °C 94 % 1013,9 hPa 0,0 mm 20,4 km/h (4 Bft) W-NW 284 ° 0 min 0,000 mm 0,0 UV-I 0 W/m² -0,9 °C -5,4 °C 38,6 km/h (5 Bft)
08.01.2019 23:45 -0,2 °C 94 % 1013,8 hPa 0,0 mm 24,3 km/h (4 Bft) W 261 ° 0 min 0,000 mm 0,0 UV-I 0 W/m² -1,0 °C -6,1 °C 40,2 km/h (6 Bft)
08.01.2019 23:46 -0,2 °C 94 % 1013,6 hPa 0,0 mm 22,9 km/h (4 Bft) W-NW 300 ° 0 min 0,000 mm 0,0 UV-I 0 W/m² -1,0 °C -5,9 °C 37,0 km/h (5 Bft)
08.01.2019 23:47 -0,2 °C 94 % 1013,8 hPa 0,0 mm 19,2 km/h (3 Bft) W 273 ° 0 min 0,000 mm 0,0 UV-I 0 W/m² -1,0 °C -5,4 °C 25,7 km/h (4 Bft)
08.01.2019 23:48 -0,2 °C 94 % 1013,8 hPa 0,0 mm 21,2 km/h (4 Bft) W 267 ° 0 min 0,000 mm 0,0 UV-I 0 W/m² -1,0 °C -5,7 °C 29,0 km/h (5 Bft)
08.01.2019 23:49 -0,2 °C 94 % 1013,7 hPa 0,0 mm 18,4 km/h (3 Bft) W 277 ° 0 min 0,000 mm 0,0 UV-I 0 W/m² -1,0 °C -5,2 °C 24,1 km/h (4 Bft)
08.01.2019 23:50 -0,2 °C 94 % 1013,9 hPa 0,0 mm 22,1 km/h (4 Bft) W 274 ° 0 min 0,000 mm 0,0 UV-I 0 W/m² -1,0 °C -5,8 °C 33,8 km/h (5 Bft)
08.01.2019 23:51 -0,2 °C 94 % 1013,7 hPa 0,0 mm 21,0 km/h (4 Bft) W 259 ° 0 min 0,000 mm 0,0 UV-I 0 W/m² -1,0 °C -5,6 °C 30,6 km/h (5 Bft)
08.01.2019 23:52 -0,3 °C 94 % 1013,8 hPa 0,0 mm 20,9 km/h (4 Bft) W 273 ° 0 min 0,000 mm 0,0 UV-I 0 W/m² -1,1 °C -5,8 °C 33,8 km/h (5 Bft)
08.01.2019 23:53 -0,3 °C 94 % 1013,7 hPa 0,0 mm 18,0 km/h (3 Bft) W-NW 286 ° 0 min 0,000 mm 0,0 UV-I 0 W/m² -1,1 °C -5,3 °C 22,5 km/h (4 Bft)
08.01.2019 23:54 -0,3 °C 94 % 1013,7 hPa 0,0 mm 15,5 km/h (3 Bft) W 264 ° 0 min 0,000 mm 0,0 UV-I 0 W/m² -1,1 °C -4,9 °C 20,9 km/h (4 Bft)
08.01.2019 23:55 -0,3 °C 94 % 1013,7 hPa 0,0 mm 12,0 km/h (2 Bft) W 281 ° 0 min 0,000 mm 0,0 UV-I 0 W/m² -1,1 °C -4,2 °C 16,1 km/h (3 Bft)
08.01.2019 23:56 -0,3 °C 94 % 1013,7 hPa 0,0 mm 17,1 km/h (3 Bft) W 273 ° 0 min 0,000 mm 0,0 UV-I 0 W/m² -1,1 °C -5,2 °C 27,4 km/h (4 Bft)
08.01.2019 23:57 -0,3 °C 94 % 1013,8 hPa 0,0 mm 19,2 km/h (3 Bft) W-NW 303 ° 0 min 0,000 mm 0,0 UV-I 0 W/m² -1,1 °C -5,5 °C 24,1 km/h (4 Bft)
08.01.2019 23:58 -0,3 °C 94 % 1013,5 hPa 0,0 mm 22,1 km/h (4 Bft) W 263 ° 0 min 0,000 mm 0,0 UV-I 0 W/m² -1,1 °C -5,9 °C 30,6 km/h (5 Bft)
08.01.2019 23:59 -0,3 °C 94 % 1013,5 hPa 0,0 mm 19,6 km/h (3 Bft) W 275 ° 0 min 0,000 mm 0,0 UV-I 0 W/m² -1,1 °C -5,6 °C 30,6 km/h (5 Bft)
_ Min-Zeit 00:51 17:01 23:34 - 02:52 - - - - - - 00:51 23:41 02:52
Minimum _ -1,7 °C 88 % 1013,3 hPa - 0,0 km/h (0 Bft) - - - - - - -2,7 °C -7,0 °C 0,0 km/h (0 Bft)
_ Max-Zeit 12:50 09:37 00:02 21:33 23:41 - - 23:59 18:01 23:59 14:05 11:27 03:11 11:15
Maximum _ 1,3 °C 95 % 1027,3 hPa 0,2 mm 33,6 km/h
W-NW (5 Bft)
- - 0 min 0,026 mm 0,0 UV-I 51 W/m² 0,4 °C -1,1 °C 51,5 km/h
NW (7 Bft)
Durchschnitt _ 0,2 °C 93 % 1018,3 hPa #7,6 mm 14,8 km/h (3 Bft) W - #0 min. #0,178 mm 0,0 UV-I 6 W/m² -0,8 °C -3,8 °C 21,9 km/h (4 Bft)